[[{"header":{"parameterUnit":"m.s-1","parameterCategory":1,"la1":31.0,"la2":29.5877,"lo1":-88.7671,"lo2":-86.6584,"dy":0.0162,"dx":0.0185,"nx":115,"ny":88,"refTime":"2023-08-19T06:00:00:Z","depth":0,"parameterNumber":2,"parameterNumberName":"U-component_of_WINDS"},"data":[0.0,0.0,0.0,0.0,0.0,0.0,0.0,0.0,0.0,0.0,0.0,0.0,0.0,0.0,0.0,0.0,0.0,0.0,0.0,0.0,0.0,0.0,0.0,0.0,0.0,0.0,0.0,0.0,0.0,0.0,0.0,0.0,0.0,0.0,0.0,0.0,0.0,0.0,0.0,0.0,0.0,0.0,0.0,0.0,0.0,0.0,0.0,0.0,0.0,0.0,0.0,0.0,0.0,0.0,0.0,0.0,0.0,0.0,0.0,0.0,0.0,0.0,0.0,0.0,0.0,0.0,0.0,0.0,0.0,0.0,0.0,0.0,0.0,0.0,0.0,0.0,0.0,0.0,0.0,0.0,0.0,0.0,0.0,0.0,0.0,0.0,0.0,0.0,0.0,0.0,0.0,0.0,0.0,0.0,0.0,0.0,0.0,0.0,0.0,0.0,0.0,0.0,0.0,0.0,0.0,0.0,0.0,0.0,0.0,0.0,0.0,0.0,0.0,0.0,0.0,0.0,0.0,0.0,0.0,0.0,0.0,0.0,0.0,0.0,0.0,0.0,0.0,0.0,0.0,0.0,0.0,0.0,0.0,0.0,0.0,0.0,0.0,0.0,0.0,0.0,0.0,0.0,0.0,0.0,0.0,0.0,0.0,0.0,0.0,0.0,0.0,0.0,0.0,0.0,0.0,0.0,0.0,0.0,0.0,0.0,0.0,0.0,0.0,0.0,0.0,0.0,0.0,0.0,0.0,0.0,0.0,0.0,0.0,0.0,0.0,0.0,0.0,0.0,0.0,0.0,0.0,0.0,0.0,0.0,0.0,0.0,0.0,0.0,0.0,0.0,0.0,0.0,0.0,0.0,0.0,0.0,0.0,0.0,0.0,0.0,0.0,0.0,0.0,0.0,0.0,0.0,0.0,0.0,0.0,0.0,0.0,0.0,0.0,0.0,0.0,0.0,0.0,0.0,0.0,0.0,0.0,0.0,0.0,0.0,0.0,0.0,0.0,0.0,0.0,0.0,0.0,0.0,0.0,0.0,0.0,0.0,0.0,0.0,0.0,0.0,0.0,0.0,0.0,0.0,0.0,0.0,0.0,0.0,0.0,0.0,0.0,0.0,0.0,0.0,0.0,0.0,0.0,0.0,0.0,0.0,0.0,0.0,0.0,0.0,0.0,0.0,0.0,0.0,0.0,0.0,0.0,0.0,0.0,0.0,0.0,0.0,0.0,0.0,0.0,0.0,0.0,0.0,0.0,0.0,0.0,0.0,0.0,0.0,0.0,0.0,0.0,0.0,0.0,0.0,0.0,0.0,0.0,0.0,0.0,0.0,0.0,0.0,0.0,0.0,0.0,0.0,0.0,0.0,0.0,0.0,0.0,0.0,0.0,0.0,0.0,0.0,0.0,0.0,0.0,0.0,0.0,0.0,0.0,0.0,0.0,0.0,0.0,0.0,0.0,0.0,0.0,0.0,0.0,0.0,0.0,0.0,0.0,0.0,0.0,0.0,0.0,0.0,0.0,0.0,0.0,0.0,0.0,0.0,0.0,0.0,0.0,0.0,0.0,0.0,0.0,0.0,0.0,0.0,0.0,0.0,0.0,0.0,0.0,0.0,0.0,0.0,0.0,0.0,0.0,0.0,0.0,0.0,0.0,0.0,0.0,0.0,0.0,0.0,0.0,0.0,0.0,0.0,0.0,0.0,0.0,0.0,0.0,0.0,0.0,0.0,0.0,0.0,0.0,0.0,0.0,0.0,0.0,0.0,0.0,0.0,0.0,0.0,0.0,0.0,0.0,0.0,0.0,0.0,0.0,0.0,0.0,0.0,0.0,0.0,0.0,0.0,0.0,0.0,0.0,0.0,0.0,0.0,0.0,0.0,0.0,0.0,0.0,0.0,0.0,0.0,0.0,0.0,0.0,0.0,0.0,0.0,0.0,0.0,0.0,0.0,0.0,0.0,0.0,0.0,0.0,0.0,0.0,0.0,0.0,0.0,0.0,0.0,0.0,0.0,0.0,0.0,0.0,0.0,0.0,0.0,0.0,0.0,0.0,0.0,0.0,0.0,0.0,0.0,0.0,0.0,0.0,0.0,0.0,0.0,0.0,0.0,0.0,0.0,0.0,0.0,0.0,0.0,0.0,0.0,0.0,0.0,0.0,0.0,0.0,0.0,0.0,0.0,0.0,0.0,0.0,0.0,0.0,0.0,0.0,0.0,0.0,0.0,0.0,0.0,0.0,0.0,0.0,0.0,0.0,0.0,0.0,0.0,0.0,0.0,0.0,0.0,0.0,0.0,0.0,0.0,0.0,0.0,0.0,0.0,0.0,0.0,0.0,0.0,0.0,0.0,0.0,0.0,0.0,0.0,0.0,0.0,0.0,0.0,0.0,0.0,0.0,0.0,0.0,0.0,0.0,0.0,0.0,0.0,0.0,0.0,0.0,0.0,0.0,0.0,0.0,0.0,0.0,0.0,0.0,0.0,0.0,0.0,0.0,0.0,0.0,0.0,0.0,0.0,0.0,0.0,0.0,0.0,0.0,0.0,0.0,0.0,0.0,0.0,0.0,0.0,0.0,0.0,0.0,0.0,0.0,0.0,0.0,0.0,0.0,0.0,0.0,0.0,0.0,0.0,0.0,0.0,0.0,0.0,0.0,0.0,0.0,0.0,0.0,0.0,0.0,0.0,0.0,0.0,0.0,0.0,0.0,0.0,0.0,0.0,0.0,0.0,0.0,0.0,0.0,0.0,0.0,0.0,0.0,0.0,0.0,0.0,0.0,0.0,0.0,0.0,0.0,0.0,0.0,0.0,0.0,0.0,0.0,0.0,0.0,0.0,0.0,0.0,0.0,0.0,0.0,0.0,0.0,0.0,0.0,0.0,0.0,0.0,0.0,0.0,0.0,0.0,0.0,0.0,0.0,0.0,0.0,0.0,0.0,0.0,0.0,0.0,0.0,0.0,0.0,0.0,0.0,0.0,0.0,0.0,0.0,0.0,0.0,0.0,0.0,0.0,0.0,0.0,0.0,0.0,0.0,0.0,0.0,0.0,0.0,0.0,0.0,0.0,0.0,0.0,0.0,0.0,0.0,0.0,0.0,0.0,0.0,0.0,0.0,0.0,0.0,0.0,0.0,0.0,0.0,0.0,0.0,0.0,0.0,0.0,0.0,0.0,0.0,0.0,0.0,0.0,0.0,0.0,0.0,0.0,0.0,0.0,0.0,0.0,0.0,0.0,0.0,0.0,0.0,0.0,0.0,0.0,0.0,0.0,0.0,0.0,0.0,0.0,0.0,0.0,0.0,0.0,0.0,0.0,0.0,0.0,0.0,0.0,0.0,0.0,0.0,0.0,0.0,0.0,0.0,0.0,0.0,0.0,0.0,0.0,0.0,0.0,0.0,0.0,0.0,0.0,0.0,0.0,0.0,0.0,0.0,0.0,0.0,0.0,0.0,0.0,0.0,0.0,0.0,0.0,0.0,0.0,0.0,0.0,0.0,0.0,0.0,0.0,0.0,0.0,0.0,0.0,0.0,0.0,0.0,0.0,0.0,0.0,0.0,0.0,0.0,0.0,0.0,0.0,0.0,0.0,0.0,0.0,0.0,0.0,0.0,0.0,0.0,0.0,0.0,0.0,0.0,0.0,0.0,0.0,0.0,0.0,0.0,0.0,0.0,0.0,0.0,0.0,0.0,0.0,0.0,0.0,0.0,0.0,0.0,0.0,0.0,0.0,0.0,0.0,0.0,0.0,0.0,0.0,0.0,0.0,0.0,0.0,0.0,0.0,0.0,0.0,0.0,0.0,0.0,0.0,0.0,0.0,0.0,0.0,0.0,0.0,0.0,0.0,0.0,0.0,0.0,0.0,0.0,0.0,0.0,0.0,0.0,0.0,0.0,0.0,0.0,0.0,0.0,0.0,0.0,0.0,0.0,0.0,0.0,0.0,0.0,0.0,0.0,0.0,0.0,0.0,0.0,0.0,0.0,0.0,0.0,0.0,0.0,0.0,0.0,0.0,0.0,0.0,0.0,0.0,0.0,0.0,0.0,0.0,0.0,0.0,0.0,0.0,0.0,0.0,0.0,0.0,0.0,0.0,0.0,0.0,0.0,0.0,0.0,0.0,0.0,0.0,0.0,0.0,0.0,0.0,0.0,0.0,0.0,0.0,0.0,0.0,0.0,0.0,0.0,0.0,0.0,0.0,0.0,0.0,0.0,0.0,0.0,0.0,0.0,0.0,0.0,0.0,0.0,0.0,0.0,0.0,0.0,0.0,0.0,0.0,0.8381,0.0,0.0,0.0,0.0,0.0,0.0,0.0,0.0,0.0,0.0,0.0,0.0,0.0,0.0,0.0,0.0,0.0,0.0,0.0,0.0,0.0,0.0,0.0,0.0,0.0,0.0,0.0,0.0,0.0,0.0,0.0,0.0,0.0,0.0,0.0,0.0,0.0,0.0,0.0,0.0,0.0,0.0,0.0,0.0,0.0,0.0,0.0,0.0,0.0,0.0,0.0,0.0,0.0,0.0,0.0,0.0,0.0,0.0,0.0,0.0,0.0,0.0,0.0,0.0,0.0,0.0,0.0,0.0,0.0,0.0,0.0,0.0,0.0,0.0,0.0,0.0,0.0,0.0,0.0,0.0,0.0,0.0,0.0,0.0,0.0,0.0,0.0,0.0,0.0,0.0,0.0,0.0,0.0,0.0,0.0,0.0,0.0,0.0,0.0,0.0,0.0,0.0,0.0,0.0,0.0,0.0,0.0,0.0,0.0,0.0,0.7437,0.7701,0.8087,0.8377,0.8553,0.0,0.0,0.0,0.0,0.0,0.0,0.0,0.0,0.0,0.0,0.0,0.0,0.0,0.0,0.0,0.0,0.0,0.0,0.0,0.0,0.0,0.0,0.0,0.0,0.0,0.0,0.0,0.0,0.0,0.0,0.0,0.0,0.0,0.0,0.0,0.0,0.0,0.0,0.0,0.0,0.0,0.0,0.0,0.0,0.0,0.0,0.0,0.0,0.0,0.0,0.0,0.0,0.0,0.0,0.0,0.0,0.0,0.0,0.0,0.0,0.0,0.0,0.0,0.0,0.0,0.0,0.0,0.0,0.0,0.0,0.0,0.0,0.0,0.0,0.0,0.0,0.0,0.0,0.0,0.0,0.0,0.0,0.0,0.0,0.0,0.0,0.0,0.0,0.0,0.0,0.0,0.0,0.0,0.0,0.0,0.0,0.0,0.0,0.0,0.0,0.0,0.0,0.0,0.0,0.0,0.0,0.0,0.0,0.0,0.0,0.0,0.0,0.8279,0.8625,0.8873,0.0,0.0,0.0,0.0,0.0,0.0,0.0,0.0,0.0,0.0,0.0,0.0,0.0,0.0,0.0,0.0,0.0,0.0,0.0,0.0,0.0,0.0,0.0,0.0,0.0,0.0,0.0,0.0,0.0,0.0,0.0,0.0,0.0,0.0,0.0,0.0,0.0,0.0,0.0,0.0,0.0,0.0,0.0,0.0,0.0,0.0,0.0,0.0,0.0,0.0,0.0,0.0,0.0,0.0,0.0,0.0,0.0,0.0,0.0,0.0,0.0,0.0,0.0,0.0,0.0,0.0,0.0,0.0,0.0,0.0,0.0,0.0,0.0,0.0,0.0,0.0,0.0,0.0,0.0,0.0,0.0,0.0,0.0,0.0,0.0,0.0,0.0,0.0,0.0,0.0,0.0,0.0,0.0,0.0,0.0,0.0,0.0,0.0,0.0,0.0,0.0,0.0,0.0,0.0,0.0,0.0,0.0,0.0,0.0,0.0,0.8082,0.8325,0.8834,0.0,0.9671,0.0,0.0,0.0,0.0,0.0,0.0,0.0,0.0,0.0,0.0,0.0,0.0,0.0,0.0,0.0,0.0,0.0,0.0,0.0,0.0,0.0,0.0,0.0,0.0,0.0,0.0,0.0,0.0,0.0,0.0,0.0,0.0,0.0,0.0,0.0,0.0,0.0,0.0,0.0,0.0,0.0,0.0,0.0,0.0,0.0,0.0,0.0,0.0,0.0,0.0,0.0,0.0,0.0,0.0,0.0,0.0,0.0,0.0,0.0,0.0,0.0,0.0,0.0,0.0,0.0,0.0,0.0,0.0,0.0,0.0,0.0,0.0,0.0,0.0,0.0,0.0,0.0,0.0,0.0,0.0,0.0,0.0,0.0,0.0,0.0,0.0,0.0,0.0,0.0,0.0,0.0,0.0,0.0,0.0,0.0,0.0,0.0,0.0,0.0,0.0,0.0,0.0,0.0,0.0,0.0,0.0,0.0,0.0,0.0,0.0,0.8293,0.8395,0.8923,0.9335,0.0,0.0,0.0,0.0,0.0,0.0,0.0,0.0,0.0,0.0,0.0,0.0,0.0,0.0,0.0,0.0,0.0,0.0,0.0,0.0,0.0,0.0,0.0,0.0,0.0,0.0,0.0,0.0,0.0,0.0,0.0,0.0,0.0,0.0,0.0,0.0,0.0,0.0,0.0,0.0,0.0,0.0,0.0,0.0,0.0,0.0,0.0,0.0,0.0,0.0,0.0,0.0,0.0,0.0,0.0,0.0,0.0,0.0,0.0,0.0,0.0,0.0,0.0,0.0,0.0,0.0,0.0,0.0,0.0,0.0,0.0,0.0,0.0,0.0,0.0,0.0,0.0,0.0,0.0,0.0,0.0,0.0,0.0,0.0,0.0,0.0,0.0,0.0,0.0,0.0,0.0,0.0,0.0,0.0,0.0,0.0,0.0,0.0,0.0,0.0,0.0,0.0,0.0,0.0,0.0,0.0,0.0,0.0,0.0,0.0,0.8082,0.8454,0.8573,0.8982,0.9316,0.9543,0.0,0.0,0.0,0.0,0.0,0.0,0.0,0.0,0.0,0.0,0.0,0.0,0.0,0.0,0.0,0.0,0.0,0.0,0.0,0.0,0.0,0.0,0.0,0.0,0.0,0.0,0.0,0.0,0.0,0.0,0.0,0.0,0.0,0.0,0.0,0.0,0.0,0.0,0.0,0.0,0.0,0.0,0.0,0.0,0.0,0.0,0.0,0.0,0.0,0.0,0.0,0.0,0.0,0.0,0.0,0.0,0.0,0.0,0.0,0.0,0.0,0.0,0.0,0.0,0.0,0.0,0.0,0.0,0.0,0.0,0.0,0.0,0.0,0.0,0.0,0.0,0.0,0.0,0.0,0.0,0.0,0.0,0.0,0.0,0.0,0.0,0.0,0.0,0.0,0.0,0.0,0.0,0.0,0.0,0.0,0.0,0.0,0.0,0.0,0.0,0.0,0.0,0.0,0.0,0.0,0.0,0.0,0.0,0.7521,0.8089,0.8586,0.8956,0.9126,0.9263,0.0,0.0,0.0,0.0,0.0,0.0,0.0,0.0,0.0,0.0,0.0,0.0,0.0,0.0,0.0,0.0,0.0,0.0,0.0,0.0,0.0,0.0,0.0,0.0,0.0,0.0,0.0,0.0,0.0,0.0,0.0,0.0,0.0,0.0,0.0,0.0,0.0,0.0,0.0,0.0,0.0,0.0,0.0,0.0,0.0,0.0,0.0,0.0,0.0,0.0,0.0,0.0,0.0,0.0,0.0,0.0,0.0,0.0,0.0,0.0,0.0,0.0,0.0,0.0,0.0,0.0,0.0,0.0,0.0,0.0,0.0,0.0,0.0,0.0,0.0,0.0,0.0,0.0,0.0,0.0,0.0,0.0,0.0,0.0,0.0,0.0,0.0,0.0,0.0,0.0,0.0,0.0,0.0,0.0,0.0,0.0,0.0,0.0,0.0,0.0,0.0,0.0,0.0,0.0,0.0,0.0,0.0,0.0,0.0,0.7534,0.8076,0.8547,0.885,0.9087,0.9224,0.0,0.0,0.0,0.0,0.0,0.0,0.0,0.0,0.0,0.0,0.0,0.0,0.0,0.0,0.0,0.0,0.0,0.0,0.0,0.0,0.0,0.0,0.0,0.0,0.0,0.0,0.0,0.0,0.0,0.0,0.0,0.0,0.0,0.0,0.0,0.0,0.0,0.0,0.0,0.0,0.0,0.0,0.0,0.0,0.0,0.0,0.0,0.0,0.0,0.0,0.0,0.0,0.0,0.0,0.0,0.0,0.0,0.0,0.0,0.0,0.0,0.0,0.0,0.0,0.0,0.0,0.0,0.0,0.0,0.0,0.0,0.0,0.0,0.0,0.0,0.0,0.0,0.0,0.0,0.0,0.0,0.0,0.0,0.0,0.0,0.0,0.0,0.0,0.0,0.0,0.0,0.0,0.0,0.0,0.0,0.0,0.0,0.0,0.0,0.0,0.0,0.0,0.0,0.0,0.0,0.0,0.0,0.0,0.0,0.7796,0.0,0.8533,0.8811,0.9061,0.9191,0.0,0.0,0.0,0.0,0.0,0.0,0.0,0.0,0.0,0.0,0.0,0.0,0.0,0.0,0.0,0.0,0.0,0.0,0.0,0.0,0.0,0.0,0.0,0.0,0.0,0.0,0.0,0.0,0.0,0.0,0.0,0.0,0.0,0.0,0.0,0.0,0.0,0.0,0.0,0.0,0.0,0.0,0.0,0.0,0.0,0.0,0.0,0.0,0.0,0.0,0.0,0.0,0.0,0.0,0.0,0.0,0.0,0.0,0.0,0.0,0.0,0.0,0.0,0.0,0.0,0.0,0.0,0.0,0.0,0.0,0.0,0.0,0.0,0.0,0.0,0.0,0.0,0.0,0.0,0.0,0.0,0.0,0.0,0.0,0.0,0.0,0.0,0.0,0.0,0.0,0.0,0.0,0.0,0.0,0.0,0.0,0.0,0.0,0.0,0.0,0.0,0.0,0.0,0.0,0.0,0.0,0.0,0.0,0.7796,0.8355,0.8381,0.8533,0.8811,0.9074,0.9191,0.0,0.0,0.0,0.0,0.0,0.0,0.0,0.0,0.0,0.0,0.0,0.0,0.0,0.0,0.0,0.0,0.0,0.0,0.0,0.0,0.0,0.0,0.0,0.0,0.0,0.0,0.0,0.0,0.0,0.0,0.0,0.0,0.0,0.0,0.0,0.0,0.0,0.0,0.0,0.0,0.0,0.0,0.0,0.0,0.0,0.0,0.0,0.0,0.0,0.0,0.0,0.0,0.0,0.0,0.0,0.0,0.0,0.0,0.0,0.0,0.0,0.0,0.0,0.0,0.0,0.0,0.0,0.0,0.0,0.0,0.0,0.0,0.0,0.0,0.0,0.0,0.0,0.0,0.0,0.0,0.0,0.0,0.0,0.0,0.0,0.0,0.0,0.0,0.0,0.0,0.0,0.0,0.0,0.0,0.0,0.0,0.0,0.0,0.0,0.0,0.0,0.0,0.0,0.0,0.0,0.0,0.0,0.0,0.0,0.8381,0.8395,0.8533,0.8791,0.9061,0.9191,0.0,0.0,0.0,0.0,0.0,0.0,0.0,0.0,0.0,0.0,0.0,0.0,0.0,0.0,0.0,0.0,0.0,0.0,0.0,0.0,0.0,0.0,0.0,0.0,0.0,0.0,0.0,0.0,0.0,0.0,0.0,0.0,0.0,0.0,0.0,0.0,0.0,0.0,0.0,0.0,0.0,0.0,0.0,0.0,0.0,0.0,0.0,0.0,0.0,0.0,0.0,0.0,0.0,0.0,0.0,0.0,0.0,0.0,0.0,0.0,0.0,0.0,0.0,0.0,0.0,0.0,0.0,0.0,0.0,0.0,0.0,0.0,0.0,0.0,0.0,0.0,0.0,0.0,0.0,0.0,0.0,0.0,0.0,0.0,0.0,0.0,0.0,0.0,0.0,0.0,0.0,0.0,0.0,0.0,0.0,0.0,0.0,0.0,0.0,0.0,0.0,0.0,0.0,0.0,0.0,0.0,0.0,0.0,0.0,0.8381,0.8395,0.856,0.887,0.9067,0.9224,0.927,0.0,0.0,0.0,0.0,0.0,0.0,0.0,0.0,0.0,0.0,0.0,0.0,0.0,0.0,0.0,0.0,0.0,0.0,0.0,0.0,0.0,0.0,0.0,0.0,0.0,0.0,0.0,0.0,0.0,0.0,0.0,0.0,0.0,0.0,0.0,0.0,0.0,0.0,0.0,0.0,0.0,0.0,0.0,0.0,0.0,0.0,0.0,0.0,0.0,0.0,0.0,0.0,0.0,0.0,0.0,0.0,0.0,0.0,0.0,0.0,0.0,0.0,0.0,0.0,0.0,0.0,0.0,0.0,0.0,0.0,0.0,0.0,0.0,0.0,0.0,0.0,0.0,0.0,0.0,0.0,0.0,0.0,0.0,0.0,0.0,0.0,0.0,0.0,0.0,0.0,0.0,0.0,0.0,0.0,0.0,0.0,0.0,0.0,0.0,0.0,0.0,0.0,0.0,0.0,0.0,0.0,0.0,0.0,0.8395,0.8408,0.8613,0.8989,0.9126,0.927,0.0,0.0,0.0,0.0,0.0,0.0,0.0,0.0,0.0,0.0,0.0,0.0,0.0,0.0,0.0,0.0,0.0,0.0,0.0,0.0,0.0,0.0,0.0,0.0,0.0,0.0,0.0,0.0,0.0,0.0,0.0,0.0,0.0,0.0,0.0,0.0,0.0,0.0,0.0,0.0,0.0,0.0,0.0,0.0,0.0,0.0,0.0,0.0,0.0,0.0,0.0,0.0,0.0,0.0,0.0,0.0,0.0,0.0,0.0,0.0,0.0,0.0,0.0,0.0,0.0,0.0,0.0,0.0,0.0,0.0,0.0,0.0,0.0,0.0,0.0,0.0,0.0,0.0,0.0,0.0,0.0,0.0,0.0,0.0,0.0,0.0,0.0,0.0,0.0,0.0,0.0,0.0,0.0,0.0,0.0,0.0,0.0,0.0,0.0,0.0,0.0,0.0,0.0,0.0,0.0,0.0,0.0,0.0,0.0,0.8395,0.8487,0.8685,0.8982,0.9126,0.9277,0.0,0.0,0.0,0.0,0.0,0.0,0.0,0.0,0.0,0.0,0.0,0.0,0.0,0.0,0.0,0.0,0.0,0.0,0.0,0.0,0.0,0.0,0.0,0.0,0.0,0.0,0.0,0.0,0.0,0.0,0.0,0.0,0.0,0.0,0.0,0.0,0.0,0.0,0.0,0.0,0.0,0.0,0.0,0.0,0.0,0.0,0.0,0.0,0.0,0.0,0.0,0.0,0.0,0.0,0.0,0.0,0.0,0.0,0.0,0.0,0.0,0.0,0.0,0.0,0.0,0.0,0.0,0.0,0.0,0.0,0.0,0.0,0.0,0.0,0.0,0.0,0.0,0.0,0.0,0.0,0.0,0.0,0.0,0.0,0.0,0.0,0.0,0.0,0.0,0.0,0.0,0.0,0.0,0.0,0.0,0.0,0.0,0.0,0.0,0.0,0.0,0.0,0.0,0.0,0.0,0.0,0.0,0.0,0.8308,0.8395,0.8646,0.887,0.9093,0.9159,0.9303,0.0,0.0,0.0,0.0,0.0,0.0,0.0,0.0,0.0,0.0,0.0,0.0,0.0,0.0,0.0,0.0,0.0,0.0,0.0,0.0,0.0,0.0,0.0,0.0,0.0,0.0,0.0,0.0,0.0,0.0,0.0,0.0,0.0,0.0,0.0,0.0,0.0,0.0,0.0,0.0,0.0,0.0,0.0,0.0,0.0,0.0,0.0,0.0,0.0,0.0,0.0,0.0,0.0,0.0,0.0,0.0,0.0,0.0,0.0,0.0,0.0,0.0,0.0,0.0,0.0,0.0,0.0,0.0,0.0,0.0,0.0,0.0,0.0,0.0,0.0,0.0,0.0,0.0,0.0,0.0,0.0,0.0,0.0,0.0,0.0,0.0,0.0,0.0,0.0,0.0,0.0,0.0,0.0,0.0,0.0,0.0,0.0,0.0,0.0,0.0,0.0,0.0,0.0,0.0,0.0,0.0,0.0,0.0,0.8395,0.8395,0.8824,0.9122,0.926,0.9238,0.9342,0.0,0.0,0.0,0.0,0.0,0.0,0.0,0.0,0.0,0.0,0.0,0.0,0.0,0.0,0.0,0.0,0.0,0.0,0.0,0.0,0.0,0.0,0.0,0.0,0.0,0.0,0.0,0.0,0.0,0.0,0.0,0.0,0.0,0.0,0.0,0.0,0.0,0.0,0.0,0.0,0.0,0.0,0.0,0.0,0.0,0.0,0.0,0.0,0.0,0.0,0.0,0.0,0.0,0.0,0.0,0.0,0.0,0.0,0.0,0.0,0.0,0.0,0.0,0.0,0.0,0.0,0.0,0.0,0.0,0.0,0.0,0.0,0.0,0.0,0.0,0.0,0.0,0.0,0.0,0.0,0.0,0.0,0.0,0.0,0.0,0.0,0.0,0.0,0.0,0.0,0.0,0.0,0.0,0.0,0.0,0.0,0.0,0.0,0.0,0.0,0.0,0.0,0.0,0.0,0.0,0.0,0.0,0.0,0.8395,0.8414,0.9038,0.9459,0.9596,0.9443,0.9472,0.0,0.0,0.0,0.0,0.0,0.0,0.0,0.0,0.0,0.0,0.0,0.0,0.0,0.0,0.0,0.0,0.0,0.0,0.0,0.0,0.0,0.0,0.0,0.0,0.0,0.0,0.0,0.0,0.0,0.0,0.0,0.0,0.0,0.0,0.0,0.0,0.0,0.0,0.0,0.0,0.0,0.0,0.0,0.0,0.0,0.0,0.0,0.0,1.5749,0.0,0.0,0.0,0.0,0.0,0.0,0.0,0.0,0.0,0.0,0.0,0.0,0.0,0.0,0.0,0.0,0.0,0.0,0.0,0.0,0.0,0.0,0.0,0.0,0.0,0.0,0.0,0.0,0.0,0.0,0.0,0.0,0.0,0.0,0.0,0.0,0.0,0.0,0.0,0.0,0.0,0.0,0.0,0.0,0.0,0.0,0.0,0.0,0.0,0.0,0.0,0.0,0.0,0.0,0.0,0.0,0.0,0.0,0.0,0.8656,0.8784,0.9443,0.9827,0.989,0.9998,1.0129,0.0,0.0,0.0,0.0,0.0,0.0,0.0,0.0,0.0,0.0,0.0,0.0,0.0,0.0,0.0,0.0,0.0,0.0,0.0,0.0,0.0,0.0,0.0,0.0,0.0,0.0,0.0,0.0,0.0,0.0,0.0,0.0,0.0,0.0,0.0,0.0,0.0,0.0,0.0,0.0,0.0,0.0,0.0,0.0,0.0,0.0,0.0,0.0,0.0,0.0,0.0,0.0,0.0,0.0,0.0,0.0,0.0,0.0,0.0,0.0,0.0,0.0,0.0,0.0,0.0,0.0,0.0,0.0,0.0,0.0,0.0,0.0,0.0,0.0,0.0,0.0,0.0,0.0,0.0,0.0,0.0,0.0,0.0,0.0,0.0,0.0,0.0,0.0,0.0,0.0,0.0,0.0,0.0,0.0,0.0,0.0,0.0,0.0,0.0,0.0,0.0,0.0,0.0,0.0,0.0,0.0,0.0,0.8711,0.9002,0.929,0.9866,1.0205,1.027,1.0704,1.0972,1.1029,0.0,0.0,0.0,0.0,0.0,0.0,0.0,0.0,0.0,0.0,0.0,0.0,0.0,0.0,0.0,0.0,0.0,0.0,0.0,0.0,0.0,0.0,0.0,0.0,0.0,0.0,0.0,0.0,0.0,0.0,0.0,0.0,0.0,0.0,0.0,0.0,0.0,0.0,1.4075,1.4784,0.0,0.0,0.0,0.0,0.0,0.0,0.0,0.0,1.5381,0.0,0.0,0.0,0.0,0.0,0.0,0.0,0.0,0.0,0.0,0.0,0.0,0.0,0.0,0.0,0.0,0.0,0.0,0.0,0.0,0.0,0.0,0.0,0.0,0.0,0.0,0.0,0.0,0.0,0.0,0.0,0.0,0.0,0.0,0.0,0.0,0.0,0.0,0.0,0.0,0.0,0.0,0.0,0.0,0.0,0.0,0.0,0.0,0.0,0.0,0.0,0.0,0.0,0.0,0.0,0.0,0.8891,0.9059,0.9295,0.9613,1.0195,1.0647,1.0922,1.1397,1.1775,1.2004,0.0,0.0,0.0,0.0,0.0,0.0,0.0,0.0,0.0,0.0,0.0,0.0,0.0,0.0,0.0,0.0,0.0,0.0,0.0,0.0,0.0,0.0,0.0,0.0,0.0,0.0,0.0,0.0,0.0,0.0,0.0,0.0,0.0,0.0,0.0,0.0,0.0,0.0,0.0,1.5345,1.5651,0.0,0.0,0.0,0.0,0.0,0.0,0.0,0.0,1.5235,0.0,0.0,0.0,0.0,0.0,0.0,0.0,0.0,0.0,0.0,0.0,0.0,0.0,0.0,0.0,0.0,0.0,0.0,0.0,0.0,0.0,0.0,0.0,0.0,0.0,0.0,0.0,0.0,0.0,0.0,0.0,0.0,0.0,0.0,0.0,0.0,0.0,0.0,0.0,0.0,0.0,0.0,0.0,0.0,0.0,0.0,0.0,0.0,0.0,0.0,0.0,0.0,0.0,0.0,0.0,0.9196,0.9379,0.9702,1.0164,1.062,1.102,1.1357,1.1751,1.212,0.0,0.0,0.0,0.0,0.0,0.0,0.0,0.0,0.0,0.0,0.0,0.0,0.0,0.0,0.0,0.0,0.0,0.0,0.0,0.0,0.0,0.0,0.0,0.0,0.0,0.0,0.0,0.0,0.0,0.0,0.0,0.0,0.0,0.0,0.0,0.0,0.0,0.0,0.0,0.0,1.5447,1.5561,1.5561,0.0,0.0,0.0,0.0,0.0,0.0,1.5235,1.5147,0.0,0.0,0.0,0.0,0.0,0.0,0.0,0.0,0.0,0.0,0.0,0.0,0.0,0.0,0.0,0.0,0.0,0.0,0.0,0.0,0.0,0.0,0.0,0.0,0.0,0.0,0.0,0.0,0.0,0.0,0.0,0.0,0.0,0.0,0.0,0.0,0.0,0.0,0.0,0.0,0.0,0.0,0.0,0.0,0.0,0.0,0.0,0.0,0.0,0.0,0.0,0.0,0.0,0.0,0.0,0.9506,0.9747,1.0148,1.069,1.1028,1.1357,1.1685,1.2027,1.2344,0.0,0.0,0.0,0.0,0.0,0.0,0.0,0.0,0.0,0.0,0.0,0.0,0.0,0.0,0.0,0.0,0.0,0.0,0.0,0.0,0.0,0.0,0.0,0.0,0.0,0.0,0.0,0.0,0.0,0.0,0.0,0.0,0.0,0.0,0.0,0.0,0.0,0.0,0.0,0.0,0.0,1.542,1.542,1.542,0.0,0.0,0.0,0.0,1.523,1.5171,0.0,0.0,0.0,0.0,0.0,0.0,0.0,0.0,0.0,0.0,0.0,0.0,0.0,0.0,0.0,0.0,0.0,0.0,0.0,0.0,0.0,0.0,0.0,0.0,0.0,0.0,0.0,0.0,0.0,0.0,0.0,0.0,0.0,0.0,0.0,0.0,0.0,0.0,0.0,0.0,0.0,0.0,0.0,0.0,0.0,0.0,0.0,0.0,0.0,0.0,0.0,0.0,0.0,0.0,0.0,0.0,0.992,1.0303,1.0685,1.1043,1.1373,1.1708,1.2027,1.2382,1.2621,0.0,0.0,0.0,0.0,0.0,0.0,0.0,0.0,0.0,0.0,0.0,0.0,0.0,0.0,0.0,0.0,0.0,0.0,0.0,0.0,0.0,0.0,0.0,0.0,0.0,0.0,0.0,0.0,0.0,0.0,0.0,0.0,0.0,0.0,0.0,0.0,0.0,0.0,0.0,0.0,0.0,1.542,1.542,1.542,1.542,0.0,0.0,1.5347,1.5205,1.5098,0.0,0.0,0.0,0.0,0.0,0.0,0.0,0.0,0.0,0.0,0.0,0.0,0.0,0.0,0.0,0.0,0.0,0.0,0.0,0.0,0.0,0.0,0.0,0.0,0.0,0.0,0.0,0.0,0.0,0.0,0.0,0.0,0.0,0.0,0.0,0.0,0.0,0.0,0.0,0.0,0.0,0.0,0.0,0.0,0.0,0.0,0.0,0.0,0.0,0.0,0.0,0.0,0.0,0.0,0.0,0.98,1.0158,1.045,1.0814,1.1193,1.1466,1.1848,1.2375,1.2529,1.2759,0.0,0.0,0.0,0.0,0.0,0.0,0.0,0.0,0.0,0.0,0.0,0.0,0.0,0.0,0.0,0.0,0.0,0.0,0.0,0.0,0.0,0.0,0.0,0.0,0.0,0.0,0.0,0.0,0.0,0.0,0.0,0.0,0.0,0.0,0.0,0.0,0.0,0.0,0.0,0.0,0.0,0.0,1.542,1.542,0.0,0.0,0.0,1.5235,1.5103,0.0,0.0,0.0,0.0,0.0,0.0,0.0,0.0,0.0,0.0,0.0,0.0,0.0,0.0,0.0,0.0,0.0,0.0,0.0,0.0,0.0,0.0,0.0,0.0,0.0,0.0,0.0,0.0,0.0,0.0,0.0,0.0,0.0,0.0,0.0,0.0,0.0,0.0,0.0,0.0,0.0,0.0,0.0,0.0,0.0,0.0,0.0,0.0,0.0,0.0,0.0,0.0,0.0,0.0,0.0,0.0,0.0,1.0371,1.0602,1.0933,1.1373,1.1607,1.2003,1.2575,1.2667,0.0,0.0,0.0,0.0,0.0,0.0,0.0,0.0,0.0,0.0,0.0,0.0,0.0,0.0,0.0,0.0,0.0,0.0,0.0,0.0,0.0,0.0,0.0,0.0,0.0,0.0,0.0,1.426,0.0,0.0,0.0,0.0,0.0,0.0,0.0,0.0,0.0,0.0,0.0,0.0,0.0,0.0,1.542,1.542,1.542,1.5381,0.0,0.0,1.5142,1.4941,1.4789,1.4656,0.0,0.0,0.0,0.0,0.0,0.0,0.0,0.0,0.0,0.0,0.0,0.0,0.0,0.0,0.0,0.0,0.0,0.0,0.0,0.0,0.0,0.0,0.0,0.0,0.0,0.0,0.0,0.0,0.0,0.0,0.0,0.0,0.0,0.0,0.0,0.0,0.0,0.0,0.0,0.0,0.0,0.0,0.0,0.0,0.0,0.0,0.0,0.0,0.0,0.0,0.0,0.0,0.0,0.0,1.0371,1.0593,1.0902,1.1232,1.1591,1.1895,1.2243,1.2575,1.2836,1.3133,0.0,0.0,0.0,0.0,0.0,0.0,0.0,0.0,0.0,0.0,0.0,0.0,0.0,0.0,0.0,0.0,0.0,0.0,0.0,0.0,0.0,0.0,0.0,0.0,0.0,0.0,0.0,0.0,0.0,0.0,0.0,0.0,0.0,0.0,0.0,0.0,0.0,0.0,0.0,0.0,0.0,1.542,1.542,1.542,1.5362,0.0,1.5191,1.5088,1.4775,1.4715,1.4642,1.4521,0.0,0.0,0.0,0.0,0.0,0.0,0.0,0.0,0.0,0.0,0.0,0.0,0.0,0.0,0.0,0.0,0.0,0.0,0.0,0.0,0.0,0.0,0.0,0.0,0.0,0.0,0.0,0.0,0.0,0.0,0.0,0.0,0.0,0.0,0.0,0.0,0.0,0.0,0.0,0.0,0.0,0.0,0.0,0.0,0.0,0.0,0.0,0.0,0.0,0.0,0.0,0.0,0.0,1.0561,1.0728,1.1185,1.1513,1.1732,1.2166,1.2552,1.2836,1.3155,1.3428,0.0,0.0,0.0,0.0,0.0,0.0,0.0,0.0,0.0,0.0,0.0,0.0,0.0,0.0,0.0,0.0,0.0,0.0,0.0,0.0,0.0,0.0,0.0,0.0,0.0,0.0,0.0,0.0,1.5298,1.542,1.542,0.0,0.0,0.0,0.0,0.0,0.0,0.0,0.0,0.0,0.0,1.5235,1.5152,1.5225,0.0,0.0,1.4985,1.4858,1.4715,1.484,1.4924,1.4888,1.509,0.0,0.0,0.0,0.0,0.0,0.0,0.0,0.0,0.0,0.0,0.0,0.0,0.0,0.0,0.0,0.0,0.0,0.0,0.0,0.0,0.0,0.0,0.0,0.0,0.0,0.0,0.0,0.0,0.0,0.0,0.0,0.0,0.0,0.0,0.0,0.0,0.0,0.0,0.0,0.0,0.0,0.0,0.0,0.0,0.0,0.0,0.0,0.0,0.0,0.0,0.0,0.0,1.0854,1.1036,1.1397,1.1732,1.2042,1.2406,1.279,1.3133,1.3375,1.364,0.0,0.0,0.0,0.0,0.0,0.0,0.0,0.0,0.0,0.0,0.0,0.0,0.0,0.0,0.0,0.0,0.0,0.0,0.0,0.0,0.0,0.0,0.0,0.0,0.0,0.0,0.0,0.0,1.542,1.5381,1.5347,0.0,0.0,0.0,0.0,0.0,0.0,0.0,0.0,0.0,0.0,1.5112,1.5015,1.5178,1.5264,1.5115,1.5074,1.5033,1.5003,1.5145,1.5276,1.5276,0.0,0.0,0.0,0.0,0.0,0.0,0.0,0.0,0.0,0.0,0.0,0.0,0.0,0.0,0.0,0.0,0.0,0.0,0.0,0.0,0.0,0.0,0.0,0.0,0.0,0.0,0.0,0.0,0.0,0.0,1.0645,0.0,0.0,0.0,0.0,0.0,0.0,0.0,0.0,0.0,0.0,0.0,0.0,0.0,0.0,0.0,0.0,0.0,0.0,0.0,0.0,0.0,0.0,1.1247,1.1576,1.1607,1.1926,1.2544,1.259,1.2904,1.3465,1.3496,1.3761,1.4267,0.0,0.0,0.0,0.0,0.0,0.0,0.0,0.0,0.0,0.0,0.0,0.0,0.0,0.0,0.0,0.0,0.0,0.0,0.0,0.0,0.0,0.0,0.0,0.0,0.0,0.0,1.542,1.542,1.5347,0.0,0.0,0.0,0.0,0.0,0.0,0.0,0.0,0.0,0.0,1.5009,1.5019,1.5004,1.5336,1.5506,1.5324,1.5619,1.5828,1.5675,1.5677,1.568,0.0,0.0,0.0,0.0,0.0,0.0,0.0,0.0,0.0,0.0,0.0,0.0,0.0,0.0,0.0,0.0,0.0,0.0,0.0,0.0,0.0,0.0,0.0,0.0,0.0,0.0,0.0,1.1269,1.1261,0.0,0.0,0.0,0.0,0.0,0.0,0.0,0.0,0.0,0.0,0.0,1.2228,1.2251,0.0,0.0,0.0,0.0,0.0,0.0,0.0,0.0,0.0,0.0,0.0,0.0,1.1614,1.1918,1.2135,1.2421,1.2729,1.3033,1.3284,1.3511,1.3923,1.4359,1.4758,0.0,0.0,0.0,0.0,0.0,0.0,0.0,0.0,0.0,0.0,0.0,0.0,0.0,0.0,0.0,0.0,0.0,0.0,0.0,0.0,0.0,0.0,0.0,0.0,0.0,1.542,0.0,0.0,0.0,0.0,0.0,0.0,0.0,0.0,0.0,0.0,0.0,1.4669,1.4679,1.4976,1.5175,1.5083,1.5473,1.5741,0.0,0.0,0.0,0.0,0.0,0.0,0.0,0.0,0.0,0.0,0.0,0.0,0.0,0.0,1.6178,1.5773,1.5811,1.591,1.591,0.0,0.0,0.0,0.0,0.0,0.0,0.0,0.0,0.0,0.0,0.0,0.0,0.0,0.0,1.1778,0.0,1.1778,0.0,0.0,0.0,0.0,0.0,0.0,0.0,0.0,1.2521,1.2552,1.2536,1.2552,1.249,0.0,1.2375,1.2305,0.0,0.0,0.0,0.0,0.0,0.0,0.0,0.0,1.1996,1.2267,1.2575,1.2836,1.3057,1.3413,1.3677,1.3842,1.4389,1.4784,1.5053,1.5156,1.523,0.0,0.0,0.0,0.0,0.0,0.0,0.0,0.0,0.0,0.0,0.0,0.0,0.0,0.0,0.0,0.0,0.0,0.0,0.0,0.0,0.0,0.0,0.0,1.542,0.0,0.0,0.0,0.0,0.0,0.0,0.0,0.0,0.0,1.4509,1.461,1.4702,1.4717,1.5133,1.5413,1.5319,0.0,0.0,0.0,0.0,0.0,0.0,0.0,1.6506,1.6523,1.6717,1.6908,1.6908,1.6839,1.6795,1.6786,0.0,0.0,1.6069,1.6061,1.6114,1.6097,1.6199,1.6289,1.6289,1.6289,1.6289,0.0,0.0,0.0,0.0,0.0,0.0,0.0,0.0,1.2135,1.215,0.0,1.2119,0.0,0.0,0.0,0.0,0.0,1.2545,0.0,0.0,1.2969,1.3037,1.3045,1.3054,1.3045,1.3014,1.2915,1.304,1.3363,1.2586,0.0,0.0,0.0,0.0,0.0,0.0,1.246,1.2692,1.2954,1.3212,1.3554,1.3774,1.409,1.4563,1.4866,1.5111,1.5234,1.5239,1.5279,1.542,1.542,0.0,0.0,0.0,0.0,0.0,0.0,0.0,0.0,0.0,0.0,0.0,0.0,0.0,0.0,0.0,0.0,0.0,0.0,0.0,0.0,1.542,0.0,0.0,0.0,0.0,0.0,0.0,0.0,0.0,0.0,0.0,1.461,1.4891,1.512,1.512,0.0,0.0,0.0,0.0,1.6323,1.6331,1.6652,1.6899,1.689,1.6899,1.6899,1.6899,0.0,0.0,1.6874,1.6716,1.6586,1.6586,1.6438,1.6359,1.6524,1.6385,1.6281,1.6272,1.6263,1.6272,1.6281,1.6246,1.6254,1.3282,0.0,0.0,0.0,0.0,1.2882,1.298,1.3014,1.2877,1.283,1.2798,1.2515,0.0,0.0,0.0,0.0,0.0,0.0,1.3327,1.3391,1.3694,1.3866,1.3842,1.3858,1.3842,1.3858,1.381,1.3851,1.395,1.3713,1.3469,1.3233,0.0,0.0,0.0,0.0,1.3656,1.4067,1.4164,1.4452,1.493,1.5072,1.5403,1.5913,1.5689,1.5693,1.5979,1.5709,1.557,1.5604,1.5604,0.0,0.0,0.0,0.0,0.0,0.0,0.0,0.0,0.0,0.0,0.0,0.0,0.0,0.0,0.0,0.0,0.0,0.0,0.0,1.542,1.542,1.5352,0.0,0.0,0.0,0.0,0.0,0.0,0.0,0.0,0.0,1.5359,1.545,1.5524,0.0,0.0,1.6121,1.6121,1.647,1.6726,1.6734,1.6818,0.0,1.6908,1.6908,1.6908,1.6908,1.6769,1.6647,1.6499,1.6429,1.6394,1.6394,1.6246,1.6184,1.6237,1.6202,1.6149,1.6149,1.6035,1.5938,1.5956,1.5938,1.5947,1.4765,1.4417,1.3787,1.3533,1.3541,1.3667,1.3709,1.3717,1.3574,1.3542,1.3526,1.3284,1.3171,1.3171,1.3179,0.0,0.0,0.0,1.4083,1.4155,1.4458,1.4585,1.4585,1.4592,1.4601,1.4601,1.4601,1.4669,1.4822,1.4831,1.479,1.4714,0.0,0.0,1.414,1.428,1.4485,1.4813,1.4992,1.526,1.556,1.5865,1.6227,1.6598,1.6403,1.6405,1.6672,1.6462,1.6257,1.6062,1.5989,1.5807,0.0,0.0,0.0,0.0,0.0,0.0,0.0,0.0,0.0,0.0,0.0,1.4906,1.5098,0.0,0.0,0.0,1.542,1.542,1.542,1.542,0.0,0.0,0.0,0.0,0.0,0.0,0.0,1.534,1.5689,1.5936,1.5953,1.6074,1.612,1.5964,1.6294,1.6534,1.6534,0.0,1.6908,1.6908,1.6908,1.6864,1.6812,1.6778,1.6743,1.6682,1.6577,1.6455,1.6324,1.6254,1.6228,1.6202,1.6105,1.5982,1.5982,1.5982,1.6,1.5982,1.5885,1.5805,1.5805,1.5805,1.5805,1.6167,1.6062,1.4909,1.438,1.4322,1.4347,1.4355,1.4355,1.433,1.4338,1.433,1.4305,1.428,1.4288,1.4288,0.0,1.4551,1.4708,1.4889,1.507,1.5195,1.5278,1.5287,1.5278,1.5294,1.5278,1.5294,1.5472,1.5826,1.5818,1.5987,1.6298,1.5221,1.4669,1.4669,1.4966,1.513,1.5156,1.5604,1.5829,1.5861,1.637,1.6731,1.6912,1.7024,1.7162,1.735,1.7341,1.7123,1.6678,1.6487,1.6193,1.5816,0.0,0.0,0.0,0.0,0.0,0.0,0.0,0.0,0.0,0.0,0.0,0.0,0.0,0.0,0.0,1.542,0.0,1.5444,1.543,0.0,0.0,0.0,1.5541,1.5365,1.5591,1.576,1.576,0.0,0.0,1.6341,1.6671,1.6771,1.6396,1.6662,1.6908,1.6908,1.6873,1.6864,1.6874,1.6856,1.6796,1.6676,1.6712,1.6695,1.651,1.6387,1.6404,1.636,1.6289,1.6192,1.6201,1.6015,1.5908,1.5891,1.5942,1.5891,1.5952,1.5848,1.5805,1.5805,1.5805,1.5822,1.6717,1.6682,1.6388,1.5929,1.5428,1.5575,1.5653,1.5627,1.5494,1.5414,1.5396,1.51,1.4977,1.4961,1.4977,1.4994,1.5043,1.5382,1.5565,1.5625,1.5917,1.6033,1.6033,1.605,1.6041,1.6033,1.6041,1.6077,1.6183,1.6191,1.6296,1.6507,1.6388,1.617,1.5886,1.611,1.6281,1.6453,1.6708,1.697,1.7223,1.7645,1.7886,1.7936,1.7772,1.7763,1.7897,1.7608,1.7389,1.7287,1.7086,1.6887,1.6694,1.6215,0.0,0.0,0.0,0.0,0.0,0.0,0.0,0.0,0.0,1.4754,1.4985,0.0,1.5235,0.0,1.542,1.5547,1.5894,1.5788,0.0,0.0,1.5883,1.5765,1.5615,1.5934,1.6166,1.6166,1.6506,1.6771,1.6754,1.6827,1.6854,1.678,1.6827,1.6908,1.6908,1.676,1.6682,1.6682,1.6578,1.6536,1.6804,1.7097,1.7183,1.7025,1.6971,1.6933,1.6775,1.6727,1.6727,1.67,1.669,1.6653,1.6609,1.6634,1.6626,1.66,1.619,1.5805,1.5805,1.5814,1.5865,1.7168,1.7168,1.7168,1.6916,1.656,1.6482,1.6456,1.6446,1.6352,1.6287,1.6278,1.6045,1.5955,1.5955,1.5955,1.6005,1.6115,1.6324,1.6475,1.657,1.6747,1.6839,1.6839,1.683,1.6839,1.6839,1.6839,1.6839,1.683,1.6839,1.6891,1.7003,1.7116,1.7047,1.6856,1.6951,1.7038,1.7168,1.7348,1.7613,1.7954,1.8175,1.8371,1.8522,1.8381,1.8371,1.8529,1.8331,1.8115,1.7904,1.7656,1.7391,1.7091,1.6609,1.6367,0.0,0.0,0.0,0.0,0.0,0.0,0.0,0.0,0.0,0.0,0.0,1.5327,1.5678,1.5864,1.6088,1.6338,1.6187,1.6102,1.6195,1.6176,1.6102,1.598,1.6331,1.6561,1.657,1.678,1.6908,1.6908,1.7047,1.713,1.7051,1.7188,1.7233,1.7052,1.6936,1.6901,1.6973,1.6901,1.6855,1.702,1.7138,1.7202,1.7099,1.7061,1.7023,1.6937,1.6899,1.6899,1.6899,1.6899,1.6899,1.6899,1.6899,1.6899,1.6848,1.6583,1.6328,1.6275,1.6275,1.6352,1.776,1.7812,1.7812,1.7822,1.7795,1.7439,1.7174,1.6978,1.696,1.6978,1.6978,1.6978,1.6978,1.6978,1.6978,1.7072,1.7218,1.7245,1.7331,1.7478,1.7478,1.7478,1.7478,1.7478,1.7478,1.7478,1.7478,1.7478,1.7478,1.7478,1.7522,1.7539,1.7529,1.7539,1.7556,1.7573,1.7573,1.759,1.7716,1.7954,1.832,1.8337,1.8506,1.8774,1.8825,1.8925,1.9081,1.9098,1.8905,1.8512,1.8163,1.7807,1.7401,1.702,1.6807,0.0,1.6736,0.0,0.0,0.0,0.0,0.0,0.0,0.0,0.0,1.5369,1.5598,1.6128,1.6479,1.671,1.6769,1.6558,1.6408,1.6337,1.6461,1.6501,1.6404,1.668,1.6908,1.6908,1.6928,1.6982,1.6992,1.733,1.746,1.7352,1.7523,1.7575,1.735,1.7233,1.7223,1.7448,1.7471,1.7368,1.7271,1.7152,1.7107,1.707,1.7124,1.7045,1.7088,1.706,1.7043,1.7051,1.7096,1.7079,1.7045,1.7062,1.7062,1.7096,1.707,1.7002,1.6874,1.6831,1.6917,1.9302,1.9445,1.9435,1.9435,1.9445,1.9364,1.859,1.7384,1.7375,1.7384,1.7384,1.7384,1.7401,1.7384,1.7401,1.7401,1.7453,1.7436,1.747,1.7478,1.7478,1.7478,1.7478,1.7478,1.7478,1.7478,1.7478,1.7478,1.7478,1.7478,1.7564,1.7664,1.7664,1.7742,1.7889,0.0,0.0,0.0,1.8168,1.8269,1.8455,1.8623,1.8724,1.8808,1.8958,0.0,1.9108,1.9098,1.9067,1.8957,1.8758,0.0,0.0,0.0,0.0,0.0,0.0,0.0,0.0,0.0,0.0,0.0,1.6457,1.6354,1.625,1.6354,1.6461,1.6586,1.6658,1.6795,1.7012,1.6854,1.6795,1.6981,1.6915,1.6815,1.6781,1.6845,1.6908,1.6917,1.7183,1.7385,1.7386,1.7606,1.7722,1.7685,1.7617,1.76,1.7667,1.7404,1.7236,1.7249,1.7414,1.7491,1.7461,1.7623,1.7738,1.7786,1.7786,1.776,1.7763,1.7752,1.7789,1.7752,1.7795,1.7769,1.7769,1.7786,1.7735,1.7777,1.7777,1.7626,1.7036,1.6908,1.7004,1.9811,0.0,1.9901,1.9901,0.0,1.9901,1.9435,1.8686,1.8703,1.8615,1.8537,1.8527,1.8484,1.8405,1.8378,1.8395,1.8405,1.8378,1.8395,1.8395,1.8387,1.8378,1.8395,1.8395,1.8378,1.8395,1.8378,1.8378,1.8395,1.8378,1.8431,1.85,1.85,1.8545,1.8633,1.8643,1.8532,1.8313,1.8381,1.8472,1.8623,1.8741,1.8841,1.8958,1.9048,0.0,0.0,0.0,0.0,0.0,0.0,0.0,0.0,0.0,0.0,1.7852,1.753,1.7347,1.7347,1.7337,1.733,1.7347,1.733,1.7139,1.6657,1.6886,1.7051,1.707,1.7129,1.725,1.7369,1.7163,1.7045,1.7173,1.702,1.6908,1.6927,1.7082,1.7193,1.7238,1.7559,1.777,1.7651,1.7913,1.7977,1.7852,1.7905,1.7917,1.7878,1.7666,1.7513,1.7579,1.7662,1.774,1.7766,1.7866,1.8011,1.8011,1.8011,1.8011,1.8011,1.8011,1.8011,1.8011,1.8011,1.8011,1.8011,1.8011,1.8011,1.8011,1.8011,1.7906,1.7496,1.7455,1.7498,2.0198,2.0234,2.0224,2.0252,2.0252,2.0224,2.0234,2.0224,0.0,0.0,0.0,1.9658,1.955,1.9433,1.9414,1.9414,1.9414,1.9368,1.936,1.9332,1.9323,1.9277,1.9277,1.9277,1.9277,1.9277,1.9277,1.9277,1.9277,1.9277,1.9277,1.9277,1.9277,1.9277,1.9305,1.9323,1.9088,1.8564,1.8661,1.8866,1.9076,1.9022,1.9048,1.9222,1.9139,1.9098,1.9098,1.9098,1.9098,1.9108,1.8958,1.8841,1.8791,1.8539,1.8354,1.8313,1.8144,1.8035,1.8008,1.8008,1.8008,1.8008,1.8008,1.7698,1.6996,1.7285,1.7507,1.7474,1.7598,1.7672,1.7604,1.7381,1.7221,1.7252,1.7114,1.7037,1.7138,1.7386,1.7605,1.7642,1.7953,1.8126,1.7966,1.8223,1.831,1.8033,1.8127,1.8241,1.8046,1.7914,1.7849,1.7932,1.7951,1.7994,1.7991,1.7983,1.8011,1.8011,1.8011,1.8011,1.8011,1.8011,1.8011,1.8011,1.8011,1.8011,1.8011,1.8011,1.8011,1.8011,1.8011,1.8011,1.8011,1.8011,1.7986,2.1365,2.1535,2.1535,2.1516,2.1535,2.1535,2.1535,2.1454,2.039,1.9883,1.9847,1.9847,1.9847,1.9821,1.9811,1.9811,1.9811,1.964,1.954,1.955,1.9378,1.9277,1.9277,1.9277,1.9277,1.9277,1.9287,1.9277,1.9305,1.9297,1.9277,1.9305,1.9277,1.9305,1.9305,1.9471,1.9512,1.9429,1.9599,1.9857,2.0153,1.9837,1.9665,1.9689,1.9316,1.9098,1.9098,1.9108,1.9098,1.9098,1.9065,1.8992,1.8808,1.8758,1.859,1.832,1.8279,1.8195,1.8008,1.8008,1.8008,1.8008,1.8008,1.7932,1.7835,1.7864,1.7852,1.768,1.7677,1.7586,1.7312,1.7254,1.7273,1.7447,1.7448,1.7532,1.7844,1.7972,1.8018,1.8027,1.8385,1.8546,1.8351,1.8492,1.8537,1.8335,1.8169,1.8052,1.8011,1.7968,1.798,1.8003,1.8011,1.8011,1.8011,1.8011,1.8011,1.8011,1.8011,1.8011,1.8011,1.8011,1.8011,1.8011,1.8011,1.8011,1.8011,1.8011,1.8011,1.8011,1.8011,1.8011,1.8011,1.8011,1.8011,2.1712,2.1788,2.1788,2.1788,2.1788,2.1788,2.1788,2.1747,2.1194,2.0879,2.0768,2.0768,2.0712,2.061,2.06,2.061,2.0581,2.0414,2.0292,2.0292,2.0094,2.0018,1.9999,1.9999,1.9999,1.9999,1.9999,2.0018,1.9999,2.0018,2.0018,2.0018,1.9999,2.0018,1.9999,2.0085,2.0207,2.0301,2.01,2.0083,2.0234,2.0153,2.0138,2.012,1.9913,1.9799,1.9799,1.9606,1.9482,1.9482,1.9243,1.9058,1.8975,1.8875,1.8724,1.859,1.8455,1.833,1.8178,1.8059,1.8008,1.8008,1.8008,1.8008,1.8008,1.8008,1.7913,1.7723,1.764,1.7573,1.7518,1.7432,1.7474,1.7798,1.7825,1.7899,1.8082,1.832,1.844,1.8457,1.8681,1.879,1.8583,1.8545,1.8442,1.8213,1.808,1.8011,1.8011,1.8011,1.8011,1.8011,1.8011,1.8011,1.8011,1.8011,1.8011,1.8011,1.8011,1.8011,1.8011,1.8011,1.8011,1.8011,1.8011,1.8011,1.8011,1.8011,1.8011,1.8011,1.8011,1.8011,1.8011,1.8011,1.8011,2.193,2.194,2.194,2.193,2.193,2.1883,2.1864,2.1854,2.1816,2.1712,2.1578,2.157,2.1493,2.134,2.134,2.131,2.1301,2.107,2.0945,2.0945,2.0712,2.0596,2.0596,2.0596,2.0596,2.0596,2.0596,2.0596,2.0596,2.0596,2.0596,2.0605,2.0596,2.0596,2.0596,2.0596,2.0663,2.0799,2.0521,2.0378,2.0433,2.0494,2.0558,2.0558,2.0454,2.0374,2.0382,2.0089,1.9931,1.991,1.9578,1.9392,1.9392,1.924,1.9107,1.8964,1.8819,1.8572,1.8313,1.8178,1.8108,1.8127,1.8137,1.8176,1.8264,1.8274,1.8121,1.7845,1.7716,1.7713,1.782,1.7714,1.7807,1.8173,1.8237,1.8292,1.8393,1.864,1.8824,1.8841,1.8931,1.8913,1.8712,1.8523,1.8322,1.8092,1.8011,1.8011,1.8011,1.8011,1.8011,1.8011,1.8011,1.8011,1.8011,1.8011,1.8011,1.8011,1.8011,1.8011,1.8011,1.8011,1.8011,1.8011,1.8011,1.8011,1.8011,1.8011,1.8011,1.8011,1.8011,1.804,1.8121,1.8181,1.8121,2.2346,2.2346,2.2327,2.2357,2.2308,2.2138,2.2073,2.2054,2.1883,2.1788,2.1769,2.1769,2.175,2.175,2.1731,2.1731,2.1693,2.134,2.1167,2.1128,2.076,2.0596,2.0596,2.0596,2.0596,2.0596,2.0596,2.0596,2.0596,2.0596,2.0596,2.0596,2.0596,2.0596,2.0596,2.0596,2.0625,2.0615,2.0942,2.1199,2.1349,2.1139,2.1023,2.1033,2.063,2.0374,2.0454,2.0361,2.0369,2.0341,2.0299,2.0268,2.0258,2.025,2.0015,1.9496,1.943,1.9102,1.8424,1.8286,1.8365,1.8535,1.8539,1.8713,1.9082,1.9141,1.8841,1.8276,1.8064,1.8056,1.8064,1.8064,1.8229,1.8576,1.864,1.8769,1.9044,1.9219,1.9246,1.9246,1.9076,1.8922,1.8712,1.8503,1.8273,1.8031,1.8011,1.8011,1.8011,1.8011,1.8011,1.8011,1.8011,1.8011,1.8011,1.8011,1.8011,1.8011,1.8011,1.8011,1.8011,1.8011,1.8011,1.8011,1.8011,1.8011,1.8011,1.8011,1.804,1.8052,1.8072,1.808,1.8302,1.8471,1.8451,2.2392,2.2392,2.2392,2.2392,2.2384,2.2308,2.2271,2.2252,2.2073,2.1978,2.1959,2.1845,2.1788,2.1788,2.1788,2.1788,2.1769,2.1378,2.1215,2.1167,2.078,2.0596,2.0596,2.0596,2.0596,2.0596,2.0596,2.0596,2.0596,2.0586,2.0596,2.0596,2.0596,2.0596,2.0596,2.0596,2.0654,2.077,2.1051,2.1301,2.1473,2.1518,2.1509,2.1507,2.1342,2.122,2.1199,2.0971,2.0816,2.0796,2.0558,2.0374,2.0374,2.0374,2.0305,2.0049,1.9943,1.9765,1.9459,1.9201,1.9112,1.9193,1.9077,1.9102,1.9276,1.9277,1.9187,1.9008,1.8679,1.8496,1.8592,1.8524,1.8632,1.8943,1.9044,1.9127,1.9265,1.9292,1.9292,1.9273,1.9013,1.8812,1.8672,1.8382,1.8141,1.802,1.8011,1.8011,1.8011,1.8011,1.8011,1.8011,1.8011,1.8011,1.8011,1.8011,1.8011,1.8011,1.8011,1.8011,1.8011,1.8011,1.8011,1.8011,1.8011,1.8011,1.8011,1.8152,1.8233,1.8233,1.8342,1.8451,1.8571,1.866,1.858,2.274,2.2721,2.2684,2.2647,2.2628,2.2534,2.2478,2.244,2.2271,2.2157,2.2082,2.1959,2.1854,2.1807,2.1788,2.1788,2.175,2.1445,2.1244,2.1167,2.0828,2.0654,2.0605,2.0596,2.0596,2.0596,2.0596,2.0625,2.0683,2.076,2.076,2.077,2.0702,2.0673,2.0673,2.0625,2.0693,2.0906,2.1099,2.1301,2.1512,2.1693,2.1788,2.1788,2.1788,2.1788,2.1797,2.1468,2.13,2.13,2.1016,2.0876,2.0858,2.0858,2.0806,2.0599,2.0378,2.0237,2.0211,1.9877,1.9718,1.9745,1.9553,1.9512,1.9628,1.9657,1.9719,1.9792,1.942,1.9203,1.9191,1.9122,1.9144,1.9353,1.9381,1.937,1.9321,1.9292,1.9292,1.9262,1.9013,1.8712,1.8591,1.829,1.8011,1.8011,1.8011,1.8011,1.8011,1.8011,1.8011,1.8011,1.8011,1.8011,1.8011,1.8011,1.8011,1.8011,1.8011,1.8011,1.8011,1.8011,1.8011,1.8011,1.8052,1.8112,1.8181,1.8322,1.8503,1.8523,1.8623,1.8812,1.8882,1.8911,1.8991,2.3538,2.3501,2.3335,2.3224,2.3224,2.2852,2.2684,2.2703,2.2478,2.2289,2.212,2.2082,2.1978,2.1797,2.1807,2.1788,2.1769,2.1578,2.1378,2.1205,2.0984,2.078,2.0615,2.0596,2.0605,2.0644,2.0663,2.0731,2.0877,2.107,2.1167,2.1157,2.0984,2.0887,2.0848,2.0712,2.0712,2.0906,2.1138,2.1301,2.1502,2.1693,2.1788,2.1788,2.1788,2.1788,2.1788,2.1787,2.1756,2.1756,2.1864,2.1958,2.1998,2.1968,2.1684,2.1132,2.0682,2.0365,2.0262,2.0076,2.0017,2.0122,2.0024,2.0049,2.0361,2.041,2.0439,2.0518,2.0256,2.0062,1.9876,1.9769,1.9679,1.9578,1.9606,1.9498,1.9341,1.9321,1.9292,1.9262,1.9073,1.8783,1.8462,1.8161,1.8031,1.8011,1.8011,1.8011,1.8011,1.8011,1.8011,1.8011,1.8011,1.8011,1.8011,1.8011,1.8011,1.8011,1.8011,1.8011,1.8011,1.8011,1.8011,1.8072,1.8241,1.8362,1.8402,1.8531,1.8692,1.8812,1.8962,1.9101,1.9251,1.9429,1.9498,2.3593,2.3593,2.3519,2.3501,2.3475,2.3187,2.3094,2.3046,2.274,2.2553,2.244,2.2214,2.2063,2.1987,2.1864,2.1788,2.1788,2.1598,2.1445,2.1378,2.1167,2.107,2.0993,2.0983,2.0993,2.0983,2.0983,2.1002,2.1089,2.1167,2.1215,2.1196,2.1128,2.1042,2.0926,2.0954,2.1032,2.1109,2.1301,2.1483,2.1674,2.1769,2.1788,2.1788,2.1788,2.1788,2.1788,2.1788,2.1788,2.1788,2.1987,2.2101,2.2101,2.2101,2.1943,2.1588,2.1393,2.1273,2.119,2.092,2.0764,2.079,2.0524,2.04,2.0566,2.0596,2.0596,2.0586,2.0547,2.0411,2.0313,2.0079,1.9863,1.9813,1.9794,1.9735,1.9557,1.9498,1.9449,1.9291,1.9022,1.8712,1.8462,1.8161,1.8011,1.8011,1.8011,1.8011,1.8011,1.8011,1.8011,1.8011,1.8011,1.8011,1.8011,1.8011,1.8011,1.8011,1.8011,1.802,1.802,1.8201,1.8262,1.8302,1.8462,1.8652,1.8732,1.8942,1.9082,1.934,1.9478,1.9449,1.9677,1.9765,1.9804,2.3806,2.3787,2.3732,2.3696,2.3677,2.3464,2.3353,2.3279,2.302,2.2815,2.2665,2.2402,2.2203,2.2082,2.1949,2.1845,2.1788,2.1655,2.1559,2.1512,2.1359,2.1263,2.1205,2.1215,2.1215,2.1215,2.1263,2.1282,2.132,2.1359,2.1397,2.1416,2.134,2.1186,2.1042,2.107,2.1138,2.1205,2.134,2.1521,2.175,2.1788,2.1788,2.1788,2.1788,2.1788,2.1788,2.1788,2.1788,2.1826,2.1978,2.2101,2.2101,2.2101,2.2006,2.1826,2.1778,2.1788,2.175,2.1436,2.1205,2.1167,2.0838,2.0596,2.0596,2.0596,2.0596,2.0596,2.0605,2.0625,2.0634,2.042,2.0157,2.0059,2.002,1.9942,1.9754,1.9705,1.9597,1.9399,1.9062,1.8772,1.8531,1.831,1.8141,1.8031,1.8011,1.8011,1.8011,1.8011,1.8011,1.8011,1.8011,1.8097,1.824,1.8358,1.8192,1.8158,1.8276,1.823,1.8288,1.8452,1.8584,1.8578,1.8709,1.89,1.9111,1.9349,1.9596,1.9881,1.9824,1.9745,1.9902,2.0029,2.0145,2.4182,2.4134,2.397,2.392,2.3936,2.3745,2.3527,2.3457,2.3397,2.3221,2.2964,2.2781,2.2619,2.2279,2.2279,2.207,2.198,2.1943,2.1756,2.155,2.1502,2.1416,2.1273,2.1273,2.1292,2.1292,2.1416,2.1493,2.1521,2.1655,2.1731,2.1731,2.1559,2.1349,2.1186,2.1042,2.1022,2.1167,2.1244,2.1436,2.175,2.1788,2.1788,2.1788,2.1788,2.1788,2.1788,2.1788,2.1788,2.1807,2.1987,2.2082,2.2101,2.2101,2.1987,2.1845,2.1788,2.1788,2.175,2.1416,2.1196,2.1128,2.0828,2.0596,2.0596,2.0596,2.0605,2.0634,2.0634,2.0693,2.0858,2.0838,2.0693,2.0391,2.0352,2.0225,2.0,1.9883,1.9813,1.9557,1.9201,1.8922,1.8712,1.8491,1.8262,1.808,1.8011,1.8011,1.8028,1.8063,1.8045,1.8063,1.8232,1.8482,1.8635,1.8754,1.8526,1.8351,1.8539,1.8629,1.8769,1.8929,1.9157,1.9221,1.9525,1.9727,1.9978,2.017,2.0193,2.0354,2.019,2.0269,2.0463,2.0669,2.0623,2.4189,2.4189,2.4116,2.4304,2.456,2.4426,2.442,2.4505,2.4401,2.418,2.3939,2.3792,2.3664,2.3488,2.3224,2.3016,2.2967,2.2808,2.2379,2.1815,2.1733,2.1705,2.1647,2.1618,2.1617,2.1617,2.1674,2.1712,2.1752,2.179,2.1788,2.175,2.1618,2.1387,2.1245,2.1138,2.1147,2.1205,2.134,2.154,2.1769,2.1799,2.1799,2.1788,2.1788,2.1788,2.1788,2.1788,2.1788,2.1797,2.1997,2.2101,2.2101,2.2101,2.2006,2.1826,2.1788,2.1731,2.1589,2.1349,2.1138,2.0993,2.0741,2.0605,2.0596,2.0596,2.0654,2.078,2.0799,2.0887,2.1061,2.1089,2.1051,2.0935,2.0799,2.0625,2.0362,1.999,1.9695,1.9577,1.924,1.8931,1.872,1.8511,1.8302,1.8094,1.8037,1.8037,1.8042,1.8276,1.8408,1.8417,1.87,1.899,1.923,1.9453,1.944,1.9282,1.9333,1.9271,1.9368,1.9581,1.9761,1.9996,2.0292,2.0558,2.0821,2.0974,2.0977,2.1124,2.1254,2.1324,2.1373,2.1336,2.126,2.4763,2.4763,2.4763,2.4905,2.518,2.5089,2.5069,2.5099,2.4985,2.4749,2.4515,2.4366,2.4275,2.4146,2.3897,2.3697,2.3606,2.3466,2.3111,2.2581,2.2353,2.2325,2.2315,2.2315,2.2315,2.2325,2.2325,2.2315,2.2315,2.2315,2.2286,2.2169,2.2041,2.1865,2.1599,2.158,2.1599,2.1698,2.1826,2.2022,2.2256,2.2315,2.2325,2.2274,2.2082,2.1961,2.1921,2.1719,2.1636,2.1788,2.1921,2.1997,2.1997,2.1921,2.1807,2.1712,2.1627,2.1512,2.1378,2.1205,2.1061,2.0896,2.0712,2.0605,2.0596,2.0596,2.0693,2.0867,2.0906,2.1003,2.1254,2.132,2.134,2.1425,2.1167,2.0935,2.0673,2.0127,1.9774,1.9656,1.9379,1.9022,1.8752,1.86,1.8432,1.8275,1.8225,1.8319,1.8413,1.8665,1.8793,1.8924,1.9154,1.9464,1.982,2.0093,2.0331,2.0305,2.031,2.0132,2.0075,2.0391,2.0629,2.0818,2.1066,2.1284,2.1529,2.1771,2.1874,2.2092,2.217,2.2033,2.1904,2.1882,2.1793,2.5673,2.5696,2.5685,2.5662,2.5719,2.5711,2.5535,2.5256,2.5209,2.5017,2.4679,2.4685,2.4571,2.4375,2.4383,2.4231,2.3972,2.3957,2.3947,2.3751,2.3529,2.3326,2.316,2.3108,2.3068,2.31,2.3101,2.3111,2.3029,2.3039,2.3052,2.2737,2.2625,2.2544,2.2148,2.2154,2.2177,2.2301,2.2402,2.2595,2.299,2.3061,2.3051,2.3,2.252,2.2207,2.2136,2.1734,2.1509,2.1714,2.1731,2.1731,2.1731,2.1589,2.1502,2.1483,2.1301,2.1244,2.1167,2.1032,2.0906,2.0848,2.0702,2.0596,2.0596,2.0634,2.0731,2.0945,2.0984,2.1128,2.1436,2.1521,2.1618,2.1745,2.1438,2.1099,2.0887,2.0303,1.9999,1.9909,1.9585,1.9216,1.8932,1.8849,1.8778,1.8664,1.8643,1.878,1.9032,1.9174,1.9341,1.9548,1.9777,2.0165,2.0578,2.0846,2.11,2.1234,2.1234,2.113,2.0994,2.1294,2.1612,2.1784,2.1896,2.2086,2.2291,2.2555,2.2668,2.2748,2.2689,2.252,2.2447,2.2471,2.2366,2.5696,2.5696,2.5696,2.5922,2.6232,2.6086,2.6072,2.6156,2.5974,2.5694,2.5543,2.5535,2.5417,2.5431,2.5264,2.5182,2.5035,2.4889,2.4828,2.4828,2.4744,2.4228,2.3712,2.3487,2.3437,2.3428,2.3358,2.3194,2.3194,2.3236,2.3114,2.2798,2.2716,2.2502,2.2225,2.211,2.2102,2.2246,2.2276,2.244,2.2686,2.2757,2.2666,2.2656,2.2514,2.2413,2.2433,2.2241,2.1849,2.139,2.1359,2.1349,2.1408,2.1351,2.1312,2.1263,2.1224,2.1128,2.1003,2.0926,2.0838,2.0693,2.0654,2.0596,2.0605,2.0741,2.0896,2.1089,2.1254,2.1446,2.1684,2.1772,2.1915,2.2133,2.1719,2.1199,2.0956,2.0489,2.0233,2.033,2.0135,1.9818,1.9567,1.9448,1.9354,1.9143,1.911,1.9204,1.9527,1.9761,1.9939,2.0316,2.0597,2.0983,2.1327,2.1611,2.1859,2.2089,2.2183,2.2236,2.2185,2.2318,2.2671,2.295,2.2934,2.3078,2.3249,2.3442,2.3467,2.3413,2.3348,2.3266,2.3205,2.3184,2.2996,2.6299,2.6208,2.6208,2.6328,2.6519,2.6388,2.6363,2.6393,2.6282,2.6084,2.5895,2.5801,2.577,2.5749,2.5644,2.5601,2.558,2.5528,2.5496,2.5496,2.5474,2.5058,2.4477,2.4176,2.4105,2.4053,2.3846,2.3774,2.3743,2.366,2.3462,2.3253,2.3013,2.2813,2.2621,2.2487,2.2508,2.2728,2.275,2.2834,2.3034,2.3034,2.3065,2.2973,2.2821,2.2537,2.2152,2.1979,2.1835,2.175,2.1758,2.1668,2.1458,2.137,2.127,2.112,2.1012,2.0886,2.0819,2.078,2.0712,2.0625,2.0596,2.0596,2.0605,2.0731,2.0867,2.1167,2.1301,2.1604,2.202,2.2263,2.2442,2.2519,2.2108,2.1709,2.157,2.1072,2.0798,2.0756,2.0563,2.0246,2.0014,1.9977,1.9895,1.979,1.9769,1.9948,2.0171,2.0347,2.0603,2.0953,2.1219,2.1505,2.1782,2.2066,2.2353,2.2621,2.2938,2.3035,2.3035,2.3123,2.329,2.3552,2.3799,2.397,2.3959,2.4002,2.4061,2.4001,2.4025,2.3872,2.3689,2.3493,2.3363,2.7026,2.685,2.6871,2.6757,2.6601,2.6561,2.6383,2.6188,2.6115,2.5979,2.577,2.5623,2.5559,2.5559,2.5517,2.5538,2.5612,2.5707,2.5812,2.5843,2.5812,2.5556,2.5157,2.4861,2.4809,2.4766,2.4637,2.4425,2.4257,2.419,2.4005,2.3667,2.3481,2.3333,2.3041,2.3025,2.3212,2.3286,2.3268,2.3313,2.3454,2.3476,2.3454,2.335,2.2939,2.2441,2.1903,2.1608,2.1718,2.2437,2.2398,2.2028,2.169,2.153,2.1332,2.1036,2.0869,2.0781,2.0713,2.0791,2.0752,2.0781,2.0771,2.0723,2.085,2.0948,2.1115,2.1419,2.1356,2.1842,2.2364,2.2855,2.295,2.2829,2.2614,2.2542,2.2438,2.1801,2.1254,2.1239,2.085,2.0552,2.0395,2.0324,2.0356,2.036,2.0382,2.0505,2.0722,2.0927,2.1194,2.156,2.1765,2.1948,2.2211,2.2454,2.2775,2.3069,2.3472,2.3646,2.358,2.3624,2.3732,2.3905,2.4088,2.4175,2.4206,2.4304,2.4411,2.4347,2.4153,2.398,2.3819,2.358,2.3428,2.6706,2.6665,2.6685,2.6633,2.6561,2.6375,2.6146,2.5937,2.5791,2.5623,2.539,2.5306,2.5285,2.5295,2.5285,2.538,2.5559,2.5675,2.5738,2.5906,2.5895,2.577,2.5464,2.5221,2.5115,2.5009,2.47,2.4433,2.4282,2.4196,2.3959,2.3612,2.3493,2.3373,2.3135,2.3101,2.3113,2.3178,2.321,2.3232,2.3254,2.3266,2.321,2.3047,2.271,2.2468,2.2292,2.2176,2.2242,2.2219,2.1894,2.1561,2.1417,2.1347,2.125,2.1154,2.1094,2.1051,2.1081,2.1177,2.1307,2.126,2.1393,2.1612,2.1642,2.1706,2.1817,2.2039,2.2261,2.2412,2.2696,2.2828,2.3002,2.3028,2.292,2.2893,2.2965,2.218,2.1627,2.1556,2.1403,2.1191,2.1124,2.1062,2.1033,2.0953,2.0971,2.106,2.1239,2.1454,2.1731,2.203,2.222,2.2397,2.2662,2.2925,2.3232,2.3493,2.3851,2.4088,2.4024,2.4002,2.4067,2.4175,2.4304,2.4368,2.4378,2.439,2.4454,2.4347,2.4228,2.398,2.3732,2.358,2.3428,2.6343,2.6239,2.6135,2.6031,2.5915,2.579,2.5675,2.557,2.5464,2.5338,2.52,2.5094,2.5052,2.5041,2.5073,2.519,2.5443,2.5665,2.5801,2.5864,2.5822,2.5696,2.5538,2.5253,2.5052,2.5009,2.4679,2.439,2.4228,2.4067,2.3841,2.3503,2.3394,2.3254,2.3113,2.3101,2.3101,2.3113,2.3101,2.3079,2.2991,2.2947,2.2838,2.2618,2.2397,2.2264,2.2224,2.2113,2.2069,2.1963,2.1665,2.1458,2.1469,2.1483,2.1386,2.1237,2.1208,2.1208,2.1262,2.1377,2.1464,2.1512,2.174,2.1864,2.1905,2.1999,2.2102,2.2205,2.239,2.2604,2.2939,2.3202,2.3319,2.328,2.3211,2.3179,2.3039,2.2411,2.1952,2.1976,2.1748,2.1568,2.1534,2.153,2.1508,2.1337,2.1547,2.1628,2.1695,2.1909,2.2154,2.2397,2.2618,2.2838,2.311,2.3394,2.3689,2.3927,2.4131,2.4292,2.4314,2.4314,2.4304,2.439,2.4433,2.4454,2.4464,2.4475,2.4411,2.4261,2.4088,2.3851,2.3624,2.3428,2.3297,2.5946,2.577,2.5538,2.5359,2.52,2.52,2.5179,2.5158,2.5115,2.5062,2.5052,2.4914,2.4818,2.485,2.4839,2.4967,2.5264,2.5612,2.5791,2.5801,2.5601,2.5496,2.537,2.5105,2.485,2.4786,2.454,2.4335,2.4088,2.3894,2.3646,2.3406,2.3232,2.3144,2.3123,2.3101,2.3101,2.3101,2.3047,2.2969,2.2825,2.275,2.2596,2.2287,2.2074,2.1963,2.1919,2.1807,2.1687,2.1687,2.1687,2.1734,2.1761,2.1751,2.1678,2.1309,2.1323,2.1339,2.1379,2.1516,2.1644,2.1621,2.1911,2.2068,2.2139,2.2208,2.2281,2.2377,2.2542,2.2746,2.3183,2.3435,2.3536,2.3464,2.3418,2.3232,2.2891,2.2583,2.2353,2.223,2.1906,2.1667,2.1704,2.1718,2.1741,2.1798,2.2008,2.2163,2.222,2.2353,2.2574,2.2794,2.3013,2.3297,2.3569,2.3677,2.4002,2.4175,2.44,2.4421,2.4486,2.4464,2.4421,2.4464,2.4507,2.4507,2.4486,2.4411,2.4304,2.4163,2.3916,2.3667,2.345,2.3254,2.3166,2.5348,2.5306,2.5264,2.5221,2.5158,2.5009,2.4903,2.4903,2.4679,2.4625,2.4615,2.4583,2.4583,2.4583,2.4583,2.4818,2.5179,2.5485,2.5644,2.5601,2.5401,2.5232,2.5062,2.4882,2.4658,2.439,2.4228,2.4088,2.3862,2.3667,2.345,2.321,2.3123,2.3101,2.3101,2.3091,2.3091,2.3035,2.2938,2.2838,2.2715,2.2485,2.2242,2.1865,2.1683,2.1593,2.1549,2.1504,2.1517,2.1674,2.1687,2.1686,2.1701,2.1727,2.1671,2.1607,2.1573,2.1567,2.1599,2.1817,2.2039,2.2264,2.245,2.2676,2.2785,2.2838,2.273,2.2822,2.3014,2.3264,2.3418,2.3422,2.3396,2.3254,2.3144,2.3057,2.2803,2.2605,2.2353,2.222,2.1932,2.1754,2.1874,2.1941,2.1976,2.2065,2.223,2.2375,2.2463,2.2684,2.2969,2.3188,2.3428,2.3732,2.4045,2.4067,2.4218,2.4325,2.4464,2.4464,2.4507,2.4507,2.4507,2.4507,2.4507,2.4507,2.4464,2.4368,2.4175,2.4002,2.3732,2.3472,2.3319,2.3166,2.3144,2.469,2.4679,2.454,2.4476,2.4445,2.4391,2.4336,2.4315,2.4186,2.4218,2.4304,2.4347,2.4411,2.4475,2.4507,2.47,2.5031,2.5285,2.538,2.5338,2.5158,2.5009,2.4818,2.4669,2.4444,2.4175,2.3991,2.3786,2.3646,2.3559,2.3341,2.3166,2.3101,2.3101,2.3101,2.3101,2.3025,2.2947,2.2816,2.2649,2.2429,2.2087,2.1741,2.1593,2.1459,2.1401,2.1414,2.1526,2.1584,2.1674,2.1687,2.1687,2.1687,2.1687,2.1687,2.1687,2.1687,2.1687,2.1731,2.1932,2.2179,2.2378,2.264,2.2816,2.2894,2.2887,2.2872,2.2816,2.2816,2.2935,2.2916,2.2969,2.286,2.2806,2.285,2.2838,2.2684,2.2596,2.2463,2.2264,2.2087,2.2021,2.2132,2.2198,2.222,2.2331,2.2485,2.2618,2.275,2.3035,2.3363,2.3559,2.3776,2.4002,2.4239,2.4304,2.4335,2.4443,2.4507,2.4507,2.4507,2.4507,2.4507,2.4507,2.4507,2.4507,2.4433,2.4368,2.411,2.3851,2.3624,2.3428,2.3232,2.3101,2.3101,2.398,2.3959,2.3732,2.3667,2.3667,2.3667,2.3711,2.3732,2.3732,2.3894,2.411,2.4206,2.4314,2.4433,2.4561,2.47,2.4903,2.5073,2.5115,2.5073,2.4871,2.4743,2.4615,2.4368,2.4099,2.3937,2.3742,2.3493,2.3503,2.3406,2.3276,2.3166,2.3101,2.3101,2.3101,2.3035,2.2925,2.2838,2.2662,2.2397,2.1963,2.1616,2.1369,2.1325,2.1347,2.1325,2.1414,2.1517,2.1629,2.1674,2.1687,2.1687,2.1687,2.1687,2.1687,2.1687,2.1687,2.1687,2.1731,2.1843,2.2074,2.2287,2.2508,2.264,2.2706,2.2684,2.2649,2.2441,2.2441,2.2463,2.253,2.2441,2.2485,2.2574,2.2684,2.275,2.2662,2.2618,2.2662,2.2485,2.2309,2.2287,2.2375,2.2463,2.2508,2.2706,2.286,2.3079,2.3232,2.3482,2.3764,2.3937,2.411,2.4261,2.44,2.4443,2.4443,2.4464,2.4507,2.4507,2.4507,2.4507,2.4507,2.4507,2.4507,2.4507,2.4433,2.4304,2.4013,2.3776,2.3569,2.3363,2.3188,2.3101,2.3101,2.3232,2.3232,2.3188,2.3188,2.3188,2.3178,2.3319,2.3525,2.3503,2.3655,2.3872,2.4099,2.4206,2.4335,2.4658,2.4818,2.4882,2.4903,2.4903,2.4839,2.4529,2.4347,2.4239,2.3992,2.3807,2.3677,2.3547,2.3525,2.3428,2.3254,2.3157,2.3101,2.3101,2.3101,2.3057,2.2957,2.2847,2.2728,2.2375,2.1985,2.1593,2.1468,2.1293,2.1163,2.1118,2.1195,2.1392,2.1482,2.1562,2.1687,2.1718,2.1718,2.1687,2.1687,2.1687,2.1687,2.1687,2.1687,2.1709,2.1763,2.1896,2.2119,2.2207,2.2287,2.2397,2.2419,2.2375,2.2419,2.2375,2.2375,2.2353,2.2375,2.2498,2.2618,2.2737,2.2781,2.2737,2.2762,2.2816,2.2891,2.2737,2.2618,2.2596,2.2706,2.2825,2.3045,2.3242,2.345,2.3677,2.3894,2.4045,2.4196,2.4261,2.44,2.4443,2.4507,2.4507,2.4507,2.4507,2.4507,2.4507,2.4507,2.4507,2.4507,2.4507,2.4507,2.4433,2.4261,2.3949,2.3711,2.3493,2.3319,2.3144,2.3101,2.3101,2.2224,2.2706,2.2718,2.2696,2.2706,2.2696,2.286,2.3067,2.311,2.3297,2.3624,2.3862,2.411,2.4357,2.4615,2.4668,2.4679,2.4679,2.4604,2.4508,2.4282,2.412,2.3959,2.3764,2.3569,2.3482,2.3341,2.3254,2.321,2.3178,2.3101,2.3101,2.3101,2.3025,2.2979,2.2847,2.2649,2.2375,2.2065,2.1794,2.1593,2.1459,2.1347,2.1217,2.1217,2.1293,2.1383,2.1526,2.1607,2.1731,2.183,2.1919,2.1963,2.2021,2.2109,2.21,2.2109,2.1976,2.1754,2.1709,2.1874,2.203,2.2119,2.2163,2.2207,2.2132,2.2043,2.1998,2.1998,2.2087,2.223,2.223,2.2375,2.253,2.2728,2.2825,2.2869,2.2969,2.3013,2.3101,2.3176,2.3101,2.3035,2.3123,2.3285,2.3438,2.358,2.3732,2.3959,2.4175,2.4304,2.4421,2.4464,2.4486,2.4486,2.4507,2.4507,2.4507,2.4507,2.4507,2.4507,2.4507,2.4507,2.4507,2.4507,2.4486,2.4454,2.4196,2.3862,2.3624,2.3418,2.3244,2.3101,2.3101,2.3101,2.1423,2.2033,2.2056,2.2078,2.2163,2.2198,2.2375,2.2627,2.2781,2.2991,2.3329,2.3602,2.3959,2.4261,2.4293,2.4304,2.4325,2.4325,2.4239,2.4131,2.4024,2.3894,2.3699,2.3525,2.3394,2.3416,2.3232,2.3144,2.3123,2.3101,2.3101,2.3101,2.3101,2.2982,2.2838,2.2684,2.2485,2.203,2.1852,2.1696,2.1584,2.145,2.1414,2.1378,2.1401,2.1437,2.1504,2.1696,2.1807,2.1874,2.2043,2.2154,2.2176,2.2264,2.2331,2.2321,2.2331,2.222,2.2021,2.1954,2.2008,2.2119,2.2185,2.222,2.2176,2.1976,2.1896,2.1998,2.1976,2.2065,2.2132,2.2198,2.2353,2.2552,2.2706,2.2816,2.2969,2.3123,2.3297,2.3406,2.3537,2.3677,2.3624,2.3655,2.3742,2.3872,2.3959,2.4024,2.4196,2.439,2.4433,2.4507,2.4507,2.4507,2.4507,2.4507,2.4507,2.4507,2.4507,2.4507,2.4507,2.4507,2.4507,2.4507,2.4507,2.4433,2.4368,2.4067,2.3797,2.3646,2.3472,2.3232,2.3101,2.3101,2.3101,2.1042,2.1087,2.1109,2.1253,2.1526,2.1674,2.1919,2.2207,2.2605,2.2803,2.3001,2.3329,2.3667,2.3841,2.3927,2.3905,2.3884,2.3841,2.3862,2.3797,2.3646,2.359,2.346,2.3297,2.3144,2.3166,2.3123,2.3123,2.3101,2.3101,2.3101,2.3101,2.3057,2.2947,2.2728,2.2463,2.2198,2.1852,2.1718,2.1629,2.1526,2.1437,2.1414,2.1414,2.1414,2.1482,2.1683,2.1941,2.2074,2.2074,2.2287,2.2397,2.241,2.2463,2.253,2.253,2.252,2.2432,2.2366,2.2277,2.2331,2.2353,2.2353,2.2331,2.2309,2.2353,2.2331,2.2287,2.222,2.2277,2.2344,2.2388,2.2508,2.2772,2.2979,2.3101,2.3264,2.3373,2.3537,2.3711,2.3841,2.3927,2.4045,2.4045,2.4024,2.4131,2.4153,2.4218,2.4304,2.4454,2.4486,2.4507,2.4507,2.4507,2.4507,2.4507,2.4507,2.4507,2.4507,2.4507,2.4507,2.4507,2.4507,2.4507,2.4507,2.4368,2.4239,2.4002,2.3797,2.3711,2.3515,2.3232,2.3101,2.3101,2.3101,2.0578,2.0546,2.0578,2.0781,2.115,2.1405,2.1629,2.1887,2.223,2.264,2.2991,2.3341,2.3612,2.3732,2.3797,2.3797,2.3797,2.3797,2.3711,2.3634,2.3525,2.3406,2.3276,2.3188,2.3101,2.3101,2.3101,2.3101,2.3101,2.3079,2.2991,2.2947,2.2913,2.275,2.2508,2.2198,2.1887,2.1776,2.1687,2.1651,2.1629,2.1593,2.1562,2.1584,2.1794,2.1852,2.1985,2.2163,2.2252,2.2331,2.2508,2.2596,2.2662,2.2728,2.2794,2.2794,2.2784,2.2784,2.2718,2.2586,2.2419,2.2397,2.2397,2.2419,2.2454,2.241,2.241,2.2397,2.2432,2.2476,2.264,2.2662,2.2772,2.3089,2.3285,2.3394,2.3525,2.3655,2.3807,2.397,2.4057,2.4153,2.4261,2.4378,2.4378,2.4378,2.439,2.439,2.4454,2.4507,2.4507,2.4507,2.4507,2.4507,2.4507,2.4507,2.4507,2.4507,2.4507,2.4507,2.4507,2.4507,2.4507,2.4507,2.4475,2.4368,2.4218,2.398,2.3786,2.3655,2.3428,2.3166,2.3101,2.3101,2.3101,2.0292,2.0292,2.0292,2.0541,2.0907,2.1114,2.1347,2.1629,2.1874,2.2309,2.2904,2.3101,2.3264,2.3363,2.3353,2.3428,2.3406,2.3428,2.3438,2.3385,2.3341,2.3276,2.3166,2.3101,2.3101,2.3101,2.3101,2.3101,2.3101,2.3057,2.2957,2.2825,2.2659,2.2463,2.2264,2.1941,2.1687,2.1687,2.1687,2.1687,2.1687,2.1696,2.1763,2.1807,2.1985,2.2087,2.2198,2.2375,2.2508,2.2605,2.2737,2.286,2.2925,2.2991,2.3079,2.3101,2.3101,2.3101,2.3003,2.285,2.2618,2.2652,2.2652,2.263,2.2608,2.2608,2.2684,2.2652,2.2652,2.2696,2.2957,2.3035,2.3166,2.346,2.3525,2.3634,2.3786,2.3937,2.4088,2.4218,2.4282,2.4325,2.4368,2.4464,2.4464,2.4464,2.4464,2.4454,2.4475,2.4507,2.4507,2.4507,2.4507,2.4507,2.4507,2.4507,2.4507,2.4507,2.4507,2.4507,2.4507,2.4507,2.4507,2.4507,2.4454,2.4368,2.4143,2.3884,2.3711,2.3547,2.3319,2.3101,2.3101,2.3101,2.3101,2.0269,2.0292,2.0292,2.045,2.0677,2.0699,2.0979,2.1369,2.1642,2.1998,2.2419,2.2485,2.253,2.2574,2.2652,2.2762,2.2904,2.2904,2.2925,2.3057,2.3123,2.3101,2.3101,2.3079,2.3101,2.3101,2.3091,2.3091,2.3079,2.2925,2.2847,2.2627,2.234,2.2141,2.2084,2.183,2.1687,2.1687,2.1687,2.1687,2.1709,2.1731,2.1874,2.1985,2.2163,2.2287,2.2419,2.264,2.275,2.2794,2.2925,2.3025,2.3057,2.3079,2.3101,2.3101,2.3101,2.3101,2.3101,2.3079,2.3035,2.296,2.2916,2.296,2.3025,2.3057,2.3035,2.3003,2.3057,2.321,2.3363,2.3472,2.359,2.3721,2.3786,2.3872,2.4045,2.4153,2.4304,2.4368,2.4433,2.4507,2.4486,2.4507,2.4507,2.4507,2.4507,2.4507,2.4507,2.4507,2.4507,2.4507,2.4507,2.4507,2.4507,2.4507,2.4507,2.4507,2.4507,2.4507,2.4507,2.4507,2.4507,2.4507,2.4454,2.4368,2.4078,2.3766,2.358,2.3363,2.3254,2.3101,2.3101,2.3101,2.3101,1.9831,1.9845,1.9982,2.0087,2.0224,2.0541,2.0812,2.0992,2.1441,2.1785,2.1976,2.2233,2.2397,2.2397,2.2375,2.2388,2.2508,2.253,2.2618,2.2662,2.2816,2.2882,2.2925,2.2991,2.3079,2.3101,2.3091,2.296,2.2882,2.2781,2.2561,2.2318,2.2052,2.1874,2.183,2.1718,2.1687,2.1687,2.1687,2.1709,2.1741,2.1874,2.2008,2.2109,2.2384,2.2561,2.2662,2.2882,2.2969,2.2969,2.3069,2.3091,2.3101,2.3101,2.3101,2.3101,2.3101,2.3101,2.3101,2.3101,2.3101,2.3123,2.3113,2.3113,2.3101,2.3276,2.3319,2.3385,2.345,2.3559,2.3667,2.3689,2.3807,2.4002,2.4088,2.4175,2.4304,2.4368,2.4454,2.4454,2.4507,2.4507,2.4507,2.4507,2.4507,2.4507,2.4507,2.4507,2.4507,2.4507,2.4507,2.4507,2.4507,2.4507,2.4507,2.4507,2.4507,2.4507,2.4507,2.4507,2.4507,2.4507,2.4507,2.4507,2.4433,2.4347,2.3992,2.3657,2.3375,2.3178,2.3135,2.3101,2.3101,2.3101,2.3101,1.9587,1.961,1.9739,1.9808,1.9868,2.0337,2.0609,2.0789,2.123,2.1454,2.1521,2.178,2.1891,2.19,2.1922,2.2087,2.2122,2.2154,2.2353,2.2375,2.2552,2.264,2.2706,2.2794,2.2794,2.2882,2.286,2.2781,2.264,2.2583,2.234,2.2008,2.1785,2.1741,2.1718,2.1709,2.1687,2.1718,2.1763,2.1865,2.1941,2.2052,2.2252,2.2407,2.2605,2.2825,2.2904,2.3013,2.3101,2.3101,2.3101,2.3101,2.3101,2.3101,2.3101,2.3101,2.3101,2.3101,2.3101,2.3101,2.3144,2.3254,2.3222,2.3266,2.3341,2.3525,2.3559,2.3646,2.3754,2.3841,2.3905,2.3905,2.4024,2.4239,2.4304,2.44,2.4411,2.4475,2.4497,2.4507,2.4507,2.4507,2.4507,2.4507,2.4507,2.4507,2.4507,2.4507,2.4507,2.4507,2.4507,2.4507,2.4507,2.4507,2.4507,2.4507,2.4507,2.4507,2.4507,2.4507,2.4507,2.4507,2.4507,2.4507,2.4454,2.4282,2.3862,2.3527,2.3266,2.3135,2.3123,2.3101,2.3101,2.3101,2.3101,1.9564,1.9587,1.9587,1.9579,1.9671,2.0073,2.0414,2.0654,2.0893,2.0966,2.0975,2.1042,2.1177,2.1087,2.1056,2.1311,2.1664,2.1696,2.1941,2.223,2.2331,2.2384,2.2419,2.2441,2.253,2.2485,2.2463,2.253,2.2397,2.223,2.1963,2.1776,2.1718,2.1687,2.1687,2.1754,2.1754,2.183,2.1919,2.2021,2.2109,2.2318,2.2485,2.2662,2.2816,2.2925,2.3013,2.3101,2.3101,2.3101,2.3101,2.3101,2.3101,2.3101,2.3101,2.3101,2.3101,2.3101,2.3101,2.3101,2.3276,2.3438,2.3493,2.3602,2.3711,2.3764,2.3829,2.3841,2.3927,2.4035,2.4131,2.4196,2.4261,2.4368,2.4464,2.4486,2.4486,2.4507,2.4507,2.4507,2.4507,2.4507,2.4507,2.4507,2.4507,2.4507,2.4507,2.4507,2.4507,2.4507,2.4507,2.4507,2.4507,2.4507,2.4507,2.4507,2.4507,2.4507,2.4507,2.4507,2.4507,2.4507,2.4507,2.4507,2.4454,2.4218,2.3776,2.3428,2.3178,2.3101,2.3101,2.3101,2.3101,2.3101,2.3101,1.9043,1.9043,1.9242,1.9302,1.9356,1.9662,1.9845,1.9968,2.0314,2.051,2.0518,2.0862,2.0907,2.0997,2.0997,2.1064,2.1208,2.1383,2.1526,2.1741,2.1976,2.2119,2.2207,2.2242,2.2353,2.2375,2.2331,2.2264,2.2154,2.1941,2.1807,2.1709,2.1687,2.1687,2.1754,2.1896,2.1941,2.203,2.2119,2.2207,2.2353,2.2561,2.2706,2.2816,2.2947,2.3035,2.3079,2.3101,2.3101,2.3101,2.3101,2.3101,2.3101,2.3101,2.3101,2.3101,2.3101,2.3101,2.3101,2.3101,2.3254,2.359,2.3677,2.3711,2.3819,2.3949,2.4067,2.411,2.4143,2.4282,2.4325,2.4368,2.439,2.4433,2.4507,2.4507,2.4507,2.4507,2.4507,2.4507,2.4507,2.4507,2.4507,2.4507,2.4507,2.4507,2.4507,2.4507,2.4507,2.4507,2.4507,2.4507,2.4507,2.4507,2.4507,2.4507,2.4507,2.4507,2.4507,2.4507,2.4507,2.4507,2.4507,2.4411,2.4261,2.4002,2.3646,2.3363,2.3123,2.3101,2.3101,2.3101,2.3101,2.3101,2.3101,1.8804,1.8827,1.8966,1.905,1.9058,1.9227,1.9273,1.9373,1.9799,2.0027,2.005,2.0292,2.0442,2.0419,2.0487,2.0591,2.0727,2.097,2.1181,2.1351,2.1553,2.1566,2.1722,2.1811,2.1843,2.1954,2.2008,2.1909,2.1896,2.183,2.1687,2.1687,2.1687,2.1687,2.1763,2.1941,2.2109,2.223,2.234,2.2451,2.2605,2.2772,2.2882,2.2925,2.3079,2.3079,2.3091,2.3091,2.3091,2.3101,2.3101,2.3101,2.3101,2.3101,2.3101,2.3101,2.3101,2.3101,2.3101,2.3101,2.3341,2.3559,2.3699,2.3807,2.397,2.4175,2.4271,2.4335,2.4421,2.4507,2.4507,2.4507,2.4507,2.4507,2.4507,2.4507,2.4507,2.4507,2.4507,2.4507,2.4507,2.4507,2.4507,2.4507,2.4507,2.4507,2.4507,2.4507,2.4507,2.4507,2.4507,2.4507,2.4507,2.4507,2.4507,2.4507,2.4507,2.4507,2.4507,2.4507,2.4507,2.4486,2.4454,2.4239,2.398,2.3742,2.3503,2.3297,2.3101,2.3101,2.3101,2.3101,2.3101,2.3101,2.3101,1.8804,1.8804,1.8804,1.8827,1.8804,1.8827,1.8827,1.885,1.935,1.9533,1.9579,1.9633,1.9693,1.9831,1.9936,2.0133,2.0337,2.0609,2.0835,2.0952,2.1109,2.1177,2.1154,2.1042,2.1342,2.1383,2.1437,2.1553,2.1674,2.1696,2.1687,2.1687,2.1687,2.1687,2.1731,2.1963,2.2141,2.2274,2.2473,2.2649,2.2794,2.2969,2.3101,2.3101,2.3079,2.3047,2.3047,2.3047,2.3025,2.3025,2.3079,2.3057,2.3091,2.3101,2.3101,2.3101,2.3101,2.3101,2.3101,2.3101,2.3254,2.3428,2.3515,2.3742,2.3959,2.4218,2.4314,2.4421,2.4507,2.4507,2.4507,2.4507,2.4507,2.4507,2.4507,2.4507,2.4507,2.4507,2.4507,2.4507,2.4507,2.4507,2.4507,2.4507,2.4507,2.4507,2.4507,2.4507,2.4507,2.4507,2.4507,2.4507,2.4507,2.4507,2.4507,2.4507,2.4507,2.4507,2.4507,2.4507,2.4507,2.4454,2.439,2.4131,2.3829,2.3612,2.3394,2.321,2.3101,2.3101,2.3101,2.3101,2.3101,2.3101,2.3101,1.8804,1.8804,1.8804,1.8804,1.8804,1.8804,1.8804,1.8804,1.8928,1.9104,1.9311,1.9487,1.9564,1.9564,1.961,1.9777,1.9996,2.0224,2.051,2.069,2.0826,2.0794,2.093,2.0817,2.0975,2.1064,2.1141,2.1262,2.1472,2.1607,2.1687,2.1687,2.1687,2.1687,2.1718,2.1963,2.2141,2.223,2.2419,2.2684,2.2904,2.3013,2.3101,2.3035,2.2991,2.286,2.2816,2.2684,2.2618,2.2564,2.2772,2.2916,2.3069,2.3091,2.3101,2.3101,2.3101,2.3101,2.3101,2.3113,2.3232,2.3394,2.3525,2.3667,2.3862,2.411,2.4314,2.4421,2.4507,2.4486,2.4507,2.4507,2.4507,2.4507,2.4507,2.4507,2.4507,2.4507,2.4507,2.4507,2.4507,2.4507,2.4507,2.4507,2.4507,2.4507,2.4507,2.4507,2.4507,2.4507,2.4507,2.4507,2.4507,2.4507,2.4507,2.4507,2.4507,2.4507,2.4507,2.4507,2.4507,2.4304,2.411,2.3937,2.3699,2.3472,2.3297,2.3188,2.3101,2.3101,2.3101,2.3101,2.3101,2.3101,2.3101,1.8804,1.8804,1.8804,1.8804,1.8781,1.872,1.8651,1.8651,1.855,1.8573,1.875,1.9066,1.925,1.9304,1.9373,1.9479,1.9654,1.9868,2.0005,2.0209,2.036,2.0314,2.0374,2.045,2.0541,2.0623,2.093,2.1141,2.1347,2.1482,2.1584,2.1674,2.1687,2.1709,2.1741,2.1941,2.2084,2.2106,2.2296,2.2508,2.2794,2.2794,2.2784,2.274,2.2706,2.2618,2.2596,2.2485,2.2441,2.241,2.2542,2.275,2.2872,2.2938,2.3013,2.3079,2.3101,2.3101,2.3091,2.3135,2.3178,2.3297,2.3341,2.3428,2.3612,2.3851,2.4045,2.4175,2.4314,2.4335,2.4464,2.4507,2.4507,2.4507,2.4507,2.4507,2.4507,2.4507,2.4507,2.4507,2.4507,2.4507,2.4507,2.4507,2.4507,2.4507,2.4507,2.4507,2.4507,2.4507,2.4507,2.4507,2.4507,2.4507,2.4507,2.4507,2.4507,2.4507,2.4507,2.4411,2.4325,2.4045,2.3797,2.3689,2.3537,2.3319,2.3166,2.3123,2.3101,2.3101,2.3101,2.3101,2.3101,2.3101,2.3101,1.8689,1.8704,1.8712,1.8689,1.8689,1.852,1.8458,1.8404,1.821,1.811,1.8203,1.8573,1.8689,1.885,1.9027,1.9127,1.9288,1.9525,1.9571,1.9656,1.9693,1.9822,1.9808,1.9716,1.9982,2.0314,2.0645,2.0947,2.1212,2.1369,2.1526,2.1629,2.1674,2.1687,2.1776,2.1896,2.203,2.203,2.2132,2.2242,2.2331,2.2375,2.2432,2.2432,2.2375,2.2375,2.2353,2.2309,2.2309,2.2331,2.2321,2.2508,2.264,2.275,2.2882,2.2947,2.3013,2.3025,2.3091,2.3101,2.3113,2.3123,2.3101,2.321,2.3416,2.3569,2.3764,2.3937,2.4077,2.4249,2.4378,2.4486,2.4486,2.4507,2.4507,2.4507,2.4507,2.4507,2.4507,2.4507,2.4507,2.4507,2.4507,2.4507,2.4507,2.4507,2.4507,2.4507,2.4507,2.4507,2.4507,2.4507,2.4507,2.4507,2.4507,2.4475,2.4475,2.4454,2.4433,2.4325,2.4153,2.3862,2.3646,2.3537,2.3363,2.3188,2.3144,2.3123,2.3101,2.3101,2.3101,2.3101,2.3101,2.3101,2.3101,1.8226,1.8226,1.8218,1.8249,1.8226,1.8187,1.8179,1.8179,1.811,1.8087,1.8087,1.8156,1.835,1.8543,1.8781,1.892,1.9027,1.9173,1.9419,1.9564,1.9396,1.9487,1.9533,1.9487,1.9739,2.0027,2.0292,2.0564,2.0911,2.119,2.1401,2.1459,2.1651,2.1696,2.1709,2.1798,2.182,2.1852,2.1852,2.1909,2.1998,2.2109,2.2375,2.2353,2.2242,2.2207,2.2119,2.1941,2.1865,2.1887,2.2043,2.2242,2.2397,2.2508,2.264,2.2772,2.2838,2.2925,2.2969,2.3025,2.3047,2.3101,2.3101,2.3123,2.3232,2.3232,2.3428,2.3634,2.3829,2.4099,2.4249,2.4368,2.4411,2.4475,2.4475,2.4497,2.4507,2.4507,2.4507,2.4507,2.4507,2.4507,2.4507,2.4507,2.4507,2.4507,2.4507,2.4507,2.4507,2.4507,2.4507,2.4486,2.4486,2.4507,2.4507,2.4454,2.4433,2.4433,2.4325,2.411,2.3894,2.3699,2.3515,2.3385,2.3276,2.3144,2.3101,2.3101,2.3101,2.3101,2.3101,2.3101,2.3101,2.3101,2.3101]},{"header":{"parameterUnit":"m.s-1","parameterCategory":1,"la1":31.0,"la2":29.5877,"lo1":-88.7671,"lo2":-86.6584,"dy":0.0162,"dx":0.0185,"nx":115,"ny":88,"refTime":"2023-08-19T06:00:00:Z","depth":0,"parameterNumber":3,"parameterNumberName":"V-component_of_WINDS"},"data":[0.0,0.0,0.0,0.0,0.0,0.0,0.0,0.0,0.0,0.0,0.0,0.0,0.0,0.0,0.0,0.0,0.0,0.0,0.0,0.0,0.0,0.0,0.0,0.0,0.0,0.0,0.0,0.0,0.0,0.0,0.0,0.0,0.0,0.0,0.0,0.0,0.0,0.0,0.0,0.0,0.0,0.0,0.0,0.0,0.0,0.0,0.0,0.0,0.0,0.0,0.0,0.0,0.0,0.0,0.0,0.0,0.0,0.0,0.0,0.0,0.0,0.0,0.0,0.0,0.0,0.0,0.0,0.0,0.0,0.0,0.0,0.0,0.0,0.0,0.0,0.0,0.0,0.0,0.0,0.0,0.0,0.0,0.0,0.0,0.0,0.0,0.0,0.0,0.0,0.0,0.0,0.0,0.0,0.0,0.0,0.0,0.0,0.0,0.0,0.0,0.0,0.0,0.0,0.0,0.0,0.0,0.0,0.0,0.0,0.0,0.0,0.0,0.0,0.0,0.0,0.0,0.0,0.0,0.0,0.0,0.0,0.0,0.0,0.0,0.0,0.0,0.0,0.0,0.0,0.0,0.0,0.0,0.0,0.0,0.0,0.0,0.0,0.0,0.0,0.0,0.0,0.0,0.0,0.0,0.0,0.0,0.0,0.0,0.0,0.0,0.0,0.0,0.0,0.0,0.0,0.0,0.0,0.0,0.0,0.0,0.0,0.0,0.0,0.0,0.0,0.0,0.0,0.0,0.0,0.0,0.0,0.0,0.0,0.0,0.0,0.0,0.0,0.0,0.0,0.0,0.0,0.0,0.0,0.0,0.0,0.0,0.0,0.0,0.0,0.0,0.0,0.0,0.0,0.0,0.0,0.0,0.0,0.0,0.0,0.0,0.0,0.0,0.0,0.0,0.0,0.0,0.0,0.0,0.0,0.0,0.0,0.0,0.0,0.0,0.0,0.0,0.0,0.0,0.0,0.0,0.0,0.0,0.0,0.0,0.0,0.0,0.0,0.0,0.0,0.0,0.0,0.0,0.0,0.0,0.0,0.0,0.0,0.0,0.0,0.0,0.0,0.0,0.0,0.0,0.0,0.0,0.0,0.0,0.0,0.0,0.0,0.0,0.0,0.0,0.0,0.0,0.0,0.0,0.0,0.0,0.0,0.0,0.0,0.0,0.0,0.0,0.0,0.0,0.0,0.0,0.0,0.0,0.0,0.0,0.0,0.0,0.0,0.0,0.0,0.0,0.0,0.0,0.0,0.0,0.0,0.0,0.0,0.0,0.0,0.0,0.0,0.0,0.0,0.0,0.0,0.0,0.0,0.0,0.0,0.0,0.0,0.0,0.0,0.0,0.0,0.0,0.0,0.0,0.0,0.0,0.0,0.0,0.0,0.0,0.0,0.0,0.0,0.0,0.0,0.0,0.0,0.0,0.0,0.0,0.0,0.0,0.0,0.0,0.0,0.0,0.0,0.0,0.0,0.0,0.0,0.0,0.0,0.0,0.0,0.0,0.0,0.0,0.0,0.0,0.0,0.0,0.0,0.0,0.0,0.0,0.0,0.0,0.0,0.0,0.0,0.0,0.0,0.0,0.0,0.0,0.0,0.0,0.0,0.0,0.0,0.0,0.0,0.0,0.0,0.0,0.0,0.0,0.0,0.0,0.0,0.0,0.0,0.0,0.0,0.0,0.0,0.0,0.0,0.0,0.0,0.0,0.0,0.0,0.0,0.0,0.0,0.0,0.0,0.0,0.0,0.0,0.0,0.0,0.0,0.0,0.0,0.0,0.0,0.0,0.0,0.0,0.0,0.0,0.0,0.0,0.0,0.0,0.0,0.0,0.0,0.0,0.0,0.0,0.0,0.0,0.0,0.0,0.0,0.0,0.0,0.0,0.0,0.0,0.0,0.0,0.0,0.0,0.0,0.0,0.0,0.0,0.0,0.0,0.0,0.0,0.0,0.0,0.0,0.0,0.0,0.0,0.0,0.0,0.0,0.0,0.0,0.0,0.0,0.0,0.0,0.0,0.0,0.0,0.0,0.0,0.0,0.0,0.0,0.0,0.0,0.0,0.0,0.0,0.0,0.0,0.0,0.0,0.0,0.0,0.0,0.0,0.0,0.0,0.0,0.0,0.0,0.0,0.0,0.0,0.0,0.0,0.0,0.0,0.0,0.0,0.0,0.0,0.0,0.0,0.0,0.0,0.0,0.0,0.0,0.0,0.0,0.0,0.0,0.0,0.0,0.0,0.0,0.0,0.0,0.0,0.0,0.0,0.0,0.0,0.0,0.0,0.0,0.0,0.0,0.0,0.0,0.0,0.0,0.0,0.0,0.0,0.0,0.0,0.0,0.0,0.0,0.0,0.0,0.0,0.0,0.0,0.0,0.0,0.0,0.0,0.0,0.0,0.0,0.0,0.0,0.0,0.0,0.0,0.0,0.0,0.0,0.0,0.0,0.0,0.0,0.0,0.0,0.0,0.0,0.0,0.0,0.0,0.0,0.0,0.0,0.0,0.0,0.0,0.0,0.0,0.0,0.0,0.0,0.0,0.0,0.0,0.0,0.0,0.0,0.0,0.0,0.0,0.0,0.0,0.0,0.0,0.0,0.0,0.0,0.0,0.0,0.0,0.0,0.0,0.0,0.0,0.0,0.0,0.0,0.0,0.0,0.0,0.0,0.0,0.0,0.0,0.0,0.0,0.0,0.0,0.0,0.0,0.0,0.0,0.0,0.0,0.0,0.0,0.0,0.0,0.0,0.0,0.0,0.0,0.0,0.0,0.0,0.0,0.0,0.0,0.0,0.0,0.0,0.0,0.0,0.0,0.0,0.0,0.0,0.0,0.0,0.0,0.0,0.0,0.0,0.0,0.0,0.0,0.0,0.0,0.0,0.0,0.0,0.0,0.0,0.0,0.0,0.0,0.0,0.0,0.0,0.0,0.0,0.0,0.0,0.0,0.0,0.0,0.0,0.0,0.0,0.0,0.0,0.0,0.0,0.0,0.0,0.0,0.0,0.0,0.0,0.0,0.0,0.0,0.0,0.0,0.0,0.0,0.0,0.0,0.0,0.0,0.0,0.0,0.0,0.0,0.0,0.0,0.0,0.0,0.0,0.0,0.0,0.0,0.0,0.0,0.0,0.0,0.0,0.0,0.0,0.0,0.0,0.0,0.0,0.0,0.0,0.0,0.0,0.0,0.0,0.0,0.0,0.0,0.0,0.0,0.0,0.0,0.0,0.0,0.0,0.0,0.0,0.0,0.0,0.0,0.0,0.0,0.0,0.0,0.0,0.0,0.0,0.0,0.0,0.0,0.0,0.0,0.0,0.0,0.0,0.0,0.0,0.0,0.0,0.0,0.0,0.0,0.0,0.0,0.0,0.0,0.0,0.0,0.0,0.0,0.0,0.0,0.0,0.0,0.0,0.0,0.0,0.0,0.0,0.0,0.0,0.0,0.0,0.0,0.0,0.0,0.0,0.0,0.0,0.0,0.0,0.0,0.0,0.0,0.0,0.0,0.0,0.0,0.0,0.0,0.0,0.0,0.0,0.0,0.0,0.0,0.0,0.0,0.0,0.0,0.0,0.0,0.0,0.0,0.0,0.0,0.0,0.0,0.0,0.0,0.0,0.0,0.0,0.0,0.0,0.0,0.0,0.0,0.0,0.0,0.0,0.0,0.0,0.0,0.0,0.0,0.0,0.0,0.0,0.0,0.0,0.0,0.0,0.0,0.0,0.0,0.0,0.0,0.0,0.0,0.0,0.0,0.0,0.0,0.0,0.0,0.0,0.0,0.0,0.0,0.0,0.0,0.0,0.0,0.0,0.0,0.0,0.0,0.0,0.0,0.0,0.0,0.0,0.0,0.0,0.0,0.0,0.0,0.0,0.0,0.0,0.0,0.0,0.0,0.0,0.0,0.0,0.0,0.0,0.0,0.0,0.0,0.0,0.0,0.0,0.0,0.0,0.0,0.0,0.0,0.0,0.0,0.0,0.0,0.0,0.0,0.0,0.0,0.0,0.0,0.0,0.0,0.0,0.0,0.0,0.0,0.0,0.0,0.0,0.0,0.0,0.0,0.0,0.0,0.0,0.0,0.0,0.0,0.0,0.0,0.0,0.0,0.0,0.0,0.0,0.0,0.0,0.0,0.0,0.0,0.0,0.0,0.0,0.0,0.0,0.0,0.0,0.0,0.0,0.0,0.0,0.0,0.0,0.0,0.0,0.0,0.0,0.0,0.0,0.0,0.0,0.0,0.0,0.0,0.0,0.0,0.0,0.0,0.0,0.0,2.1175,0.0,0.0,0.0,0.0,0.0,0.0,0.0,0.0,0.0,0.0,0.0,0.0,0.0,0.0,0.0,0.0,0.0,0.0,0.0,0.0,0.0,0.0,0.0,0.0,0.0,0.0,0.0,0.0,0.0,0.0,0.0,0.0,0.0,0.0,0.0,0.0,0.0,0.0,0.0,0.0,0.0,0.0,0.0,0.0,0.0,0.0,0.0,0.0,0.0,0.0,0.0,0.0,0.0,0.0,0.0,0.0,0.0,0.0,0.0,0.0,0.0,0.0,0.0,0.0,0.0,0.0,0.0,0.0,0.0,0.0,0.0,0.0,0.0,0.0,0.0,0.0,0.0,0.0,0.0,0.0,0.0,0.0,0.0,0.0,0.0,0.0,0.0,0.0,0.0,0.0,0.0,0.0,0.0,0.0,0.0,0.0,0.0,0.0,0.0,0.0,0.0,0.0,0.0,0.0,0.0,0.0,0.0,0.0,0.0,0.0,2.1484,2.1784,2.1665,2.1575,2.1506,0.0,0.0,0.0,0.0,0.0,0.0,0.0,0.0,0.0,0.0,0.0,0.0,0.0,0.0,0.0,0.0,0.0,0.0,0.0,0.0,0.0,0.0,0.0,0.0,0.0,0.0,0.0,0.0,0.0,0.0,0.0,0.0,0.0,0.0,0.0,0.0,0.0,0.0,0.0,0.0,0.0,0.0,0.0,0.0,0.0,0.0,0.0,0.0,0.0,0.0,0.0,0.0,0.0,0.0,0.0,0.0,0.0,0.0,0.0,0.0,0.0,0.0,0.0,0.0,0.0,0.0,0.0,0.0,0.0,0.0,0.0,0.0,0.0,0.0,0.0,0.0,0.0,0.0,0.0,0.0,0.0,0.0,0.0,0.0,0.0,0.0,0.0,0.0,0.0,0.0,0.0,0.0,0.0,0.0,0.0,0.0,0.0,0.0,0.0,0.0,0.0,0.0,0.0,0.0,0.0,0.0,0.0,0.0,0.0,0.0,0.0,0.0,2.2218,2.2108,2.203,0.0,0.0,0.0,0.0,0.0,0.0,0.0,0.0,0.0,0.0,0.0,0.0,0.0,0.0,0.0,0.0,0.0,0.0,0.0,0.0,0.0,0.0,0.0,0.0,0.0,0.0,0.0,0.0,0.0,0.0,0.0,0.0,0.0,0.0,0.0,0.0,0.0,0.0,0.0,0.0,0.0,0.0,0.0,0.0,0.0,0.0,0.0,0.0,0.0,0.0,0.0,0.0,0.0,0.0,0.0,0.0,0.0,0.0,0.0,0.0,0.0,0.0,0.0,0.0,0.0,0.0,0.0,0.0,0.0,0.0,0.0,0.0,0.0,0.0,0.0,0.0,0.0,0.0,0.0,0.0,0.0,0.0,0.0,0.0,0.0,0.0,0.0,0.0,0.0,0.0,0.0,0.0,0.0,0.0,0.0,0.0,0.0,0.0,0.0,0.0,0.0,0.0,0.0,0.0,0.0,0.0,0.0,0.0,0.0,0.0,2.3348,2.4049,2.3867,0.0,2.3603,0.0,0.0,0.0,0.0,0.0,0.0,0.0,0.0,0.0,0.0,0.0,0.0,0.0,0.0,0.0,0.0,0.0,0.0,0.0,0.0,0.0,0.0,0.0,0.0,0.0,0.0,0.0,0.0,0.0,0.0,0.0,0.0,0.0,0.0,0.0,0.0,0.0,0.0,0.0,0.0,0.0,0.0,0.0,0.0,0.0,0.0,0.0,0.0,0.0,0.0,0.0,0.0,0.0,0.0,0.0,0.0,0.0,0.0,0.0,0.0,0.0,0.0,0.0,0.0,0.0,0.0,0.0,0.0,0.0,0.0,0.0,0.0,0.0,0.0,0.0,0.0,0.0,0.0,0.0,0.0,0.0,0.0,0.0,0.0,0.0,0.0,0.0,0.0,0.0,0.0,0.0,0.0,0.0,0.0,0.0,0.0,0.0,0.0,0.0,0.0,0.0,0.0,0.0,0.0,0.0,0.0,0.0,0.0,0.0,0.0,2.3957,2.4294,2.4105,2.3927,0.0,0.0,0.0,0.0,0.0,0.0,0.0,0.0,0.0,0.0,0.0,0.0,0.0,0.0,0.0,0.0,0.0,0.0,0.0,0.0,0.0,0.0,0.0,0.0,0.0,0.0,0.0,0.0,0.0,0.0,0.0,0.0,0.0,0.0,0.0,0.0,0.0,0.0,0.0,0.0,0.0,0.0,0.0,0.0,0.0,0.0,0.0,0.0,0.0,0.0,0.0,0.0,0.0,0.0,0.0,0.0,0.0,0.0,0.0,0.0,0.0,0.0,0.0,0.0,0.0,0.0,0.0,0.0,0.0,0.0,0.0,0.0,0.0,0.0,0.0,0.0,0.0,0.0,0.0,0.0,0.0,0.0,0.0,0.0,0.0,0.0,0.0,0.0,0.0,0.0,0.0,0.0,0.0,0.0,0.0,0.0,0.0,0.0,0.0,0.0,0.0,0.0,0.0,0.0,0.0,0.0,0.0,0.0,0.0,0.0,2.442,2.4294,2.4252,2.4103,2.3955,2.3845,0.0,0.0,0.0,0.0,0.0,0.0,0.0,0.0,0.0,0.0,0.0,0.0,0.0,0.0,0.0,0.0,0.0,0.0,0.0,0.0,0.0,0.0,0.0,0.0,0.0,0.0,0.0,0.0,0.0,0.0,0.0,0.0,0.0,0.0,0.0,0.0,0.0,0.0,0.0,0.0,0.0,0.0,0.0,0.0,0.0,0.0,0.0,0.0,0.0,0.0,0.0,0.0,0.0,0.0,0.0,0.0,0.0,0.0,0.0,0.0,0.0,0.0,0.0,0.0,0.0,0.0,0.0,0.0,0.0,0.0,0.0,0.0,0.0,0.0,0.0,0.0,0.0,0.0,0.0,0.0,0.0,0.0,0.0,0.0,0.0,0.0,0.0,0.0,0.0,0.0,0.0,0.0,0.0,0.0,0.0,0.0,0.0,0.0,0.0,0.0,0.0,0.0,0.0,0.0,0.0,0.0,0.0,0.0,2.4599,2.4397,2.4247,2.4113,2.4049,2.3976,0.0,0.0,0.0,0.0,0.0,0.0,0.0,0.0,0.0,0.0,0.0,0.0,0.0,0.0,0.0,0.0,0.0,0.0,0.0,0.0,0.0,0.0,0.0,0.0,0.0,0.0,0.0,0.0,0.0,0.0,0.0,0.0,0.0,0.0,0.0,0.0,0.0,0.0,0.0,0.0,0.0,0.0,0.0,0.0,0.0,0.0,0.0,0.0,0.0,0.0,0.0,0.0,0.0,0.0,0.0,0.0,0.0,0.0,0.0,0.0,0.0,0.0,0.0,0.0,0.0,0.0,0.0,0.0,0.0,0.0,0.0,0.0,0.0,0.0,0.0,0.0,0.0,0.0,0.0,0.0,0.0,0.0,0.0,0.0,0.0,0.0,0.0,0.0,0.0,0.0,0.0,0.0,0.0,0.0,0.0,0.0,0.0,0.0,0.0,0.0,0.0,0.0,0.0,0.0,0.0,0.0,0.0,0.0,0.0,2.4595,2.4401,2.4261,2.4152,2.4064,2.3991,0.0,0.0,0.0,0.0,0.0,0.0,0.0,0.0,0.0,0.0,0.0,0.0,0.0,0.0,0.0,0.0,0.0,0.0,0.0,0.0,0.0,0.0,0.0,0.0,0.0,0.0,0.0,0.0,0.0,0.0,0.0,0.0,0.0,0.0,0.0,0.0,0.0,0.0,0.0,0.0,0.0,0.0,0.0,0.0,0.0,0.0,0.0,0.0,0.0,0.0,0.0,0.0,0.0,0.0,0.0,0.0,0.0,0.0,0.0,0.0,0.0,0.0,0.0,0.0,0.0,0.0,0.0,0.0,0.0,0.0,0.0,0.0,0.0,0.0,0.0,0.0,0.0,0.0,0.0,0.0,0.0,0.0,0.0,0.0,0.0,0.0,0.0,0.0,0.0,0.0,0.0,0.0,0.0,0.0,0.0,0.0,0.0,0.0,0.0,0.0,0.0,0.0,0.0,0.0,0.0,0.0,0.0,0.0,0.0,2.4492,0.0,2.4266,2.4208,2.4074,2.3983,0.0,0.0,0.0,0.0,0.0,0.0,0.0,0.0,0.0,0.0,0.0,0.0,0.0,0.0,0.0,0.0,0.0,0.0,0.0,0.0,0.0,0.0,0.0,0.0,0.0,0.0,0.0,0.0,0.0,0.0,0.0,0.0,0.0,0.0,0.0,0.0,0.0,0.0,0.0,0.0,0.0,0.0,0.0,0.0,0.0,0.0,0.0,0.0,0.0,0.0,0.0,0.0,0.0,0.0,0.0,0.0,0.0,0.0,0.0,0.0,0.0,0.0,0.0,0.0,0.0,0.0,0.0,0.0,0.0,0.0,0.0,0.0,0.0,0.0,0.0,0.0,0.0,0.0,0.0,0.0,0.0,0.0,0.0,0.0,0.0,0.0,0.0,0.0,0.0,0.0,0.0,0.0,0.0,0.0,0.0,0.0,0.0,0.0,0.0,0.0,0.0,0.0,0.0,0.0,0.0,0.0,0.0,0.0,2.4492,2.4307,2.4298,2.4266,2.4208,2.4069,2.3983,0.0,0.0,0.0,0.0,0.0,0.0,0.0,0.0,0.0,0.0,0.0,0.0,0.0,0.0,0.0,0.0,0.0,0.0,0.0,0.0,0.0,0.0,0.0,0.0,0.0,0.0,0.0,0.0,0.0,0.0,0.0,0.0,0.0,0.0,0.0,0.0,0.0,0.0,0.0,0.0,0.0,0.0,0.0,0.0,0.0,0.0,0.0,0.0,0.0,0.0,0.0,0.0,0.0,0.0,0.0,0.0,0.0,0.0,0.0,0.0,0.0,0.0,0.0,0.0,0.0,0.0,0.0,0.0,0.0,0.0,0.0,0.0,0.0,0.0,0.0,0.0,0.0,0.0,0.0,0.0,0.0,0.0,0.0,0.0,0.0,0.0,0.0,0.0,0.0,0.0,0.0,0.0,0.0,0.0,0.0,0.0,0.0,0.0,0.0,0.0,0.0,0.0,0.0,0.0,0.0,0.0,0.0,0.0,0.0,2.4298,2.4294,2.4266,2.4194,2.4074,2.3983,0.0,0.0,0.0,0.0,0.0,0.0,0.0,0.0,0.0,0.0,0.0,0.0,0.0,0.0,0.0,0.0,0.0,0.0,0.0,0.0,0.0,0.0,0.0,0.0,0.0,0.0,0.0,0.0,0.0,0.0,0.0,0.0,0.0,0.0,0.0,0.0,0.0,0.0,0.0,0.0,0.0,0.0,0.0,0.0,0.0,0.0,0.0,0.0,0.0,0.0,0.0,0.0,0.0,0.0,0.0,0.0,0.0,0.0,0.0,0.0,0.0,0.0,0.0,0.0,0.0,0.0,0.0,0.0,0.0,0.0,0.0,0.0,0.0,0.0,0.0,0.0,0.0,0.0,0.0,0.0,0.0,0.0,0.0,0.0,0.0,0.0,0.0,0.0,0.0,0.0,0.0,0.0,0.0,0.0,0.0,0.0,0.0,0.0,0.0,0.0,0.0,0.0,0.0,0.0,0.0,0.0,0.0,0.0,0.0,2.4298,2.4294,2.4257,2.4166,2.4051,2.3991,2.3952,0.0,0.0,0.0,0.0,0.0,0.0,0.0,0.0,0.0,0.0,0.0,0.0,0.0,0.0,0.0,0.0,0.0,0.0,0.0,0.0,0.0,0.0,0.0,0.0,0.0,0.0,0.0,0.0,0.0,0.0,0.0,0.0,0.0,0.0,0.0,0.0,0.0,0.0,0.0,0.0,0.0,0.0,0.0,0.0,0.0,0.0,0.0,0.0,0.0,0.0,0.0,0.0,0.0,0.0,0.0,0.0,0.0,0.0,0.0,0.0,0.0,0.0,0.0,0.0,0.0,0.0,0.0,0.0,0.0,0.0,0.0,0.0,0.0,0.0,0.0,0.0,0.0,0.0,0.0,0.0,0.0,0.0,0.0,0.0,0.0,0.0,0.0,0.0,0.0,0.0,0.0,0.0,0.0,0.0,0.0,0.0,0.0,0.0,0.0,0.0,0.0,0.0,0.0,0.0,0.0,0.0,0.0,0.0,2.4294,2.4289,2.4238,2.4122,2.4049,2.3952,0.0,0.0,0.0,0.0,0.0,0.0,0.0,0.0,0.0,0.0,0.0,0.0,0.0,0.0,0.0,0.0,0.0,0.0,0.0,0.0,0.0,0.0,0.0,0.0,0.0,0.0,0.0,0.0,0.0,0.0,0.0,0.0,0.0,0.0,0.0,0.0,0.0,0.0,0.0,0.0,0.0,0.0,0.0,0.0,0.0,0.0,0.0,0.0,0.0,0.0,0.0,0.0,0.0,0.0,0.0,0.0,0.0,0.0,0.0,0.0,0.0,0.0,0.0,0.0,0.0,0.0,0.0,0.0,0.0,0.0,0.0,0.0,0.0,0.0,0.0,0.0,0.0,0.0,0.0,0.0,0.0,0.0,0.0,0.0,0.0,0.0,0.0,0.0,0.0,0.0,0.0,0.0,0.0,0.0,0.0,0.0,0.0,0.0,0.0,0.0,0.0,0.0,0.0,0.0,0.0,0.0,0.0,0.0,0.0,2.4294,2.4261,2.4191,2.4103,2.4049,2.3971,0.0,0.0,0.0,0.0,0.0,0.0,0.0,0.0,0.0,0.0,0.0,0.0,0.0,0.0,0.0,0.0,0.0,0.0,0.0,0.0,0.0,0.0,0.0,0.0,0.0,0.0,0.0,0.0,0.0,0.0,0.0,0.0,0.0,0.0,0.0,0.0,0.0,0.0,0.0,0.0,0.0,0.0,0.0,0.0,0.0,0.0,0.0,0.0,0.0,0.0,0.0,0.0,0.0,0.0,0.0,0.0,0.0,0.0,0.0,0.0,0.0,0.0,0.0,0.0,0.0,0.0,0.0,0.0,0.0,0.0,0.0,0.0,0.0,0.0,0.0,0.0,0.0,0.0,0.0,0.0,0.0,0.0,0.0,0.0,0.0,0.0,0.0,0.0,0.0,0.0,0.0,0.0,0.0,0.0,0.0,0.0,0.0,0.0,0.0,0.0,0.0,0.0,0.0,0.0,0.0,0.0,0.0,0.0,2.4344,2.4294,2.4205,2.4124,2.4041,2.4016,2.3961,0.0,0.0,0.0,0.0,0.0,0.0,0.0,0.0,0.0,0.0,0.0,0.0,0.0,0.0,0.0,0.0,0.0,0.0,0.0,0.0,0.0,0.0,0.0,0.0,0.0,0.0,0.0,0.0,0.0,0.0,0.0,0.0,0.0,0.0,0.0,0.0,0.0,0.0,0.0,0.0,0.0,0.0,0.0,0.0,0.0,0.0,0.0,0.0,0.0,0.0,0.0,0.0,0.0,0.0,0.0,0.0,0.0,0.0,0.0,0.0,0.0,0.0,0.0,0.0,0.0,0.0,0.0,0.0,0.0,0.0,0.0,0.0,0.0,0.0,0.0,0.0,0.0,0.0,0.0,0.0,0.0,0.0,0.0,0.0,0.0,0.0,0.0,0.0,0.0,0.0,0.0,0.0,0.0,0.0,0.0,0.0,0.0,0.0,0.0,0.0,0.0,0.0,0.0,0.0,0.0,0.0,0.0,0.0,2.4294,2.4294,2.4245,2.4197,2.4124,2.4027,2.3945,0.0,0.0,0.0,0.0,0.0,0.0,0.0,0.0,0.0,0.0,0.0,0.0,0.0,0.0,0.0,0.0,0.0,0.0,0.0,0.0,0.0,0.0,0.0,0.0,0.0,0.0,0.0,0.0,0.0,0.0,0.0,0.0,0.0,0.0,0.0,0.0,0.0,0.0,0.0,0.0,0.0,0.0,0.0,0.0,0.0,0.0,0.0,0.0,0.0,0.0,0.0,0.0,0.0,0.0,0.0,0.0,0.0,0.0,0.0,0.0,0.0,0.0,0.0,0.0,0.0,0.0,0.0,0.0,0.0,0.0,0.0,0.0,0.0,0.0,0.0,0.0,0.0,0.0,0.0,0.0,0.0,0.0,0.0,0.0,0.0,0.0,0.0,0.0,0.0,0.0,0.0,0.0,0.0,0.0,0.0,0.0,0.0,0.0,0.0,0.0,0.0,0.0,0.0,0.0,0.0,0.0,0.0,0.0,2.4294,2.4307,2.479,2.5009,2.4957,2.4283,2.3894,0.0,0.0,0.0,0.0,0.0,0.0,0.0,0.0,0.0,0.0,0.0,0.0,0.0,0.0,0.0,0.0,0.0,0.0,0.0,0.0,0.0,0.0,0.0,0.0,0.0,0.0,0.0,0.0,0.0,0.0,0.0,0.0,0.0,0.0,0.0,0.0,0.0,0.0,0.0,0.0,0.0,0.0,0.0,0.0,0.0,0.0,0.0,0.0,2.6538,0.0,0.0,0.0,0.0,0.0,0.0,0.0,0.0,0.0,0.0,0.0,0.0,0.0,0.0,0.0,0.0,0.0,0.0,0.0,0.0,0.0,0.0,0.0,0.0,0.0,0.0,0.0,0.0,0.0,0.0,0.0,0.0,0.0,0.0,0.0,0.0,0.0,0.0,0.0,0.0,0.0,0.0,0.0,0.0,0.0,0.0,0.0,0.0,0.0,0.0,0.0,0.0,0.0,0.0,0.0,0.0,0.0,0.0,0.0,2.505,2.542,2.5682,2.581,2.5765,2.5219,2.4914,0.0,0.0,0.0,0.0,0.0,0.0,0.0,0.0,0.0,0.0,0.0,0.0,0.0,0.0,0.0,0.0,0.0,0.0,0.0,0.0,0.0,0.0,0.0,0.0,0.0,0.0,0.0,0.0,0.0,0.0,0.0,0.0,0.0,0.0,0.0,0.0,0.0,0.0,0.0,0.0,0.0,0.0,0.0,0.0,0.0,0.0,0.0,0.0,0.0,0.0,0.0,0.0,0.0,0.0,0.0,0.0,0.0,0.0,0.0,0.0,0.0,0.0,0.0,0.0,0.0,0.0,0.0,0.0,0.0,0.0,0.0,0.0,0.0,0.0,0.0,0.0,0.0,0.0,0.0,0.0,0.0,0.0,0.0,0.0,0.0,0.0,0.0,0.0,0.0,0.0,0.0,0.0,0.0,0.0,0.0,0.0,0.0,0.0,0.0,0.0,0.0,0.0,0.0,0.0,0.0,0.0,0.0,2.5754,2.6005,2.665,2.6609,2.6585,2.6539,2.6493,2.6447,2.6423,0.0,0.0,0.0,0.0,0.0,0.0,0.0,0.0,0.0,0.0,0.0,0.0,0.0,0.0,0.0,0.0,0.0,0.0,0.0,0.0,0.0,0.0,0.0,0.0,0.0,0.0,0.0,0.0,0.0,0.0,0.0,0.0,0.0,0.0,0.0,0.0,0.0,0.0,2.3511,2.4726,0.0,0.0,0.0,0.0,0.0,0.0,0.0,0.0,2.6708,0.0,0.0,0.0,0.0,0.0,0.0,0.0,0.0,0.0,0.0,0.0,0.0,0.0,0.0,0.0,0.0,0.0,0.0,0.0,0.0,0.0,0.0,0.0,0.0,0.0,0.0,0.0,0.0,0.0,0.0,0.0,0.0,0.0,0.0,0.0,0.0,0.0,0.0,0.0,0.0,0.0,0.0,0.0,0.0,0.0,0.0,0.0,0.0,0.0,0.0,0.0,0.0,0.0,0.0,0.0,0.0,2.6621,2.6544,2.6524,2.6639,2.7132,2.7335,2.7248,2.7814,2.8038,2.7898,0.0,0.0,0.0,0.0,0.0,0.0,0.0,0.0,0.0,0.0,0.0,0.0,0.0,0.0,0.0,0.0,0.0,0.0,0.0,0.0,0.0,0.0,0.0,0.0,0.0,0.0,0.0,0.0,0.0,0.0,0.0,0.0,0.0,0.0,0.0,0.0,0.0,0.0,0.0,2.5824,2.6437,0.0,0.0,0.0,0.0,0.0,0.0,0.0,0.0,2.6859,0.0,0.0,0.0,0.0,0.0,0.0,0.0,0.0,0.0,0.0,0.0,0.0,0.0,0.0,0.0,0.0,0.0,0.0,0.0,0.0,0.0,0.0,0.0,0.0,0.0,0.0,0.0,0.0,0.0,0.0,0.0,0.0,0.0,0.0,0.0,0.0,0.0,0.0,0.0,0.0,0.0,0.0,0.0,0.0,0.0,0.0,0.0,0.0,0.0,0.0,0.0,0.0,0.0,0.0,0.0,2.7384,2.7384,2.754,2.7831,2.8078,2.8155,2.802,2.8281,2.838,0.0,0.0,0.0,0.0,0.0,0.0,0.0,0.0,0.0,0.0,0.0,0.0,0.0,0.0,0.0,0.0,0.0,0.0,0.0,0.0,0.0,0.0,0.0,0.0,0.0,0.0,0.0,0.0,0.0,0.0,0.0,0.0,0.0,0.0,0.0,0.0,0.0,0.0,0.0,0.0,2.6421,2.6649,2.6649,0.0,0.0,0.0,0.0,0.0,0.0,2.6859,2.6909,0.0,0.0,0.0,0.0,0.0,0.0,0.0,0.0,0.0,0.0,0.0,0.0,0.0,0.0,0.0,0.0,0.0,0.0,0.0,0.0,0.0,0.0,0.0,0.0,0.0,0.0,0.0,0.0,0.0,0.0,0.0,0.0,0.0,0.0,0.0,0.0,0.0,0.0,0.0,0.0,0.0,0.0,0.0,0.0,0.0,0.0,0.0,0.0,0.0,0.0,0.0,0.0,0.0,0.0,0.0,2.8207,2.8207,2.846,2.8928,2.8822,2.8693,2.8562,2.8419,2.8304,0.0,0.0,0.0,0.0,0.0,0.0,0.0,0.0,0.0,0.0,0.0,0.0,0.0,0.0,0.0,0.0,0.0,0.0,0.0,0.0,0.0,0.0,0.0,0.0,0.0,0.0,0.0,0.0,0.0,0.0,0.0,0.0,0.0,0.0,0.0,0.0,0.0,0.0,0.0,0.0,0.0,2.6708,2.6708,2.6708,0.0,0.0,0.0,0.0,2.6884,2.6917,0.0,0.0,0.0,0.0,0.0,0.0,0.0,0.0,0.0,0.0,0.0,0.0,0.0,0.0,0.0,0.0,0.0,0.0,0.0,0.0,0.0,0.0,0.0,0.0,0.0,0.0,0.0,0.0,0.0,0.0,0.0,0.0,0.0,0.0,0.0,0.0,0.0,0.0,0.0,0.0,0.0,0.0,0.0,0.0,0.0,0.0,0.0,0.0,0.0,0.0,0.0,0.0,0.0,0.0,0.0,0.0,2.9015,2.8944,2.8867,2.8816,2.8687,2.8573,2.8419,2.8309,2.8182,0.0,0.0,0.0,0.0,0.0,0.0,0.0,0.0,0.0,0.0,0.0,0.0,0.0,0.0,0.0,0.0,0.0,0.0,0.0,0.0,0.0,0.0,0.0,0.0,0.0,0.0,0.0,0.0,0.0,0.0,0.0,0.0,0.0,0.0,0.0,0.0,0.0,0.0,0.0,0.0,0.0,2.6708,2.6708,2.6708,2.6708,0.0,0.0,2.675,2.6876,2.6959,0.0,0.0,0.0,0.0,0.0,0.0,0.0,0.0,0.0,0.0,0.0,0.0,0.0,0.0,0.0,0.0,0.0,0.0,0.0,0.0,0.0,0.0,0.0,0.0,0.0,0.0,0.0,0.0,0.0,0.0,0.0,0.0,0.0,0.0,0.0,0.0,0.0,0.0,0.0,0.0,0.0,0.0,0.0,0.0,0.0,0.0,0.0,0.0,0.0,0.0,0.0,0.0,0.0,0.0,0.0,2.887,2.9139,2.9057,2.8923,2.8737,2.865,2.8515,2.8291,2.8223,2.8119,0.0,0.0,0.0,0.0,0.0,0.0,0.0,0.0,0.0,0.0,0.0,0.0,0.0,0.0,0.0,0.0,0.0,0.0,0.0,0.0,0.0,0.0,0.0,0.0,0.0,0.0,0.0,0.0,0.0,0.0,0.0,0.0,0.0,0.0,0.0,0.0,0.0,0.0,0.0,0.0,0.0,0.0,2.6708,2.6708,0.0,0.0,0.0,2.6859,2.6933,0.0,0.0,0.0,0.0,0.0,0.0,0.0,0.0,0.0,0.0,0.0,0.0,0.0,0.0,0.0,0.0,0.0,0.0,0.0,0.0,0.0,0.0,0.0,0.0,0.0,0.0,0.0,0.0,0.0,0.0,0.0,0.0,0.0,0.0,0.0,0.0,0.0,0.0,0.0,0.0,0.0,0.0,0.0,0.0,0.0,0.0,0.0,0.0,0.0,0.0,0.0,0.0,0.0,0.0,0.0,0.0,0.0,2.9085,2.8981,2.8858,2.8687,2.8593,2.845,2.8202,2.8161,0.0,0.0,0.0,0.0,0.0,0.0,0.0,0.0,0.0,0.0,0.0,0.0,0.0,0.0,0.0,0.0,0.0,0.0,0.0,0.0,0.0,0.0,0.0,0.0,0.0,0.0,0.0,2.4762,0.0,0.0,0.0,0.0,0.0,0.0,0.0,0.0,0.0,0.0,0.0,0.0,0.0,0.0,2.6708,2.6708,2.6708,2.6708,0.0,0.0,2.6934,2.7024,2.7062,2.7135,0.0,0.0,0.0,0.0,0.0,0.0,0.0,0.0,0.0,0.0,0.0,0.0,0.0,0.0,0.0,0.0,0.0,0.0,0.0,0.0,0.0,0.0,0.0,0.0,0.0,0.0,0.0,0.0,0.0,0.0,0.0,0.0,0.0,0.0,0.0,0.0,0.0,0.0,0.0,0.0,0.0,0.0,0.0,0.0,0.0,0.0,0.0,0.0,0.0,0.0,0.0,0.0,0.0,0.0,2.9085,2.9005,2.887,2.8743,2.86,2.8496,2.8327,2.8202,2.8085,2.7925,0.0,0.0,0.0,0.0,0.0,0.0,0.0,0.0,0.0,0.0,0.0,0.0,0.0,0.0,0.0,0.0,0.0,0.0,0.0,0.0,0.0,0.0,0.0,0.0,0.0,0.0,0.0,0.0,0.0,0.0,0.0,0.0,0.0,0.0,0.0,0.0,0.0,0.0,0.0,0.0,0.0,2.6708,2.6708,2.6708,2.6742,0.0,2.6884,2.6942,2.707,2.7103,2.7143,2.7274,0.0,0.0,0.0,0.0,0.0,0.0,0.0,0.0,0.0,0.0,0.0,0.0,0.0,0.0,0.0,0.0,0.0,0.0,0.0,0.0,0.0,0.0,0.0,0.0,0.0,0.0,0.0,0.0,0.0,0.0,0.0,0.0,0.0,0.0,0.0,0.0,0.0,0.0,0.0,0.0,0.0,0.0,0.0,0.0,0.0,0.0,0.0,0.0,0.0,0.0,0.0,0.0,0.0,2.9017,2.8934,2.8761,2.8631,2.8542,2.836,2.8234,2.8085,2.7893,2.7763,0.0,0.0,0.0,0.0,0.0,0.0,0.0,0.0,0.0,0.0,0.0,0.0,0.0,0.0,0.0,0.0,0.0,0.0,0.0,0.0,0.0,0.0,0.0,0.0,0.0,0.0,0.0,0.0,2.653,2.6708,2.6708,0.0,0.0,0.0,0.0,0.0,0.0,0.0,0.0,0.0,0.0,2.6859,2.6883,2.6842,0.0,0.0,2.6999,2.7047,2.7103,2.7546,2.7922,2.7963,2.8343,0.0,0.0,0.0,0.0,0.0,0.0,0.0,0.0,0.0,0.0,0.0,0.0,0.0,0.0,0.0,0.0,0.0,0.0,0.0,0.0,0.0,0.0,0.0,0.0,0.0,0.0,0.0,0.0,0.0,0.0,0.0,0.0,0.0,0.0,0.0,0.0,0.0,0.0,0.0,0.0,0.0,0.0,0.0,0.0,0.0,0.0,0.0,0.0,0.0,0.0,0.0,0.0,2.8887,2.8797,2.8657,2.8542,2.8413,2.8277,2.8106,2.7925,2.7767,2.7659,0.0,0.0,0.0,0.0,0.0,0.0,0.0,0.0,0.0,0.0,0.0,0.0,0.0,0.0,0.0,0.0,0.0,0.0,0.0,0.0,0.0,0.0,0.0,0.0,0.0,0.0,0.0,0.0,2.6708,2.6708,2.675,0.0,0.0,0.0,0.0,0.0,0.0,0.0,0.0,0.0,0.0,2.695,2.6983,2.7137,2.7291,2.7374,2.7619,2.7797,2.7813,2.8335,2.873,2.873,0.0,0.0,0.0,0.0,0.0,0.0,0.0,0.0,0.0,0.0,0.0,0.0,0.0,0.0,0.0,0.0,0.0,0.0,0.0,0.0,0.0,0.0,0.0,0.0,0.0,0.0,0.0,0.0,0.0,0.0,2.6307,0.0,0.0,0.0,0.0,0.0,0.0,0.0,0.0,0.0,0.0,0.0,0.0,0.0,0.0,0.0,0.0,0.0,0.0,0.0,0.0,0.0,0.0,2.8737,2.8606,2.8593,2.8483,2.8216,2.8196,2.8032,2.7723,2.7708,2.76,2.7407,0.0,0.0,0.0,0.0,0.0,0.0,0.0,0.0,0.0,0.0,0.0,0.0,0.0,0.0,0.0,0.0,0.0,0.0,0.0,0.0,0.0,0.0,0.0,0.0,0.0,0.0,2.6708,2.6708,2.675,0.0,0.0,0.0,0.0,0.0,0.0,0.0,0.0,0.0,0.0,2.7008,2.7025,2.7033,2.7631,2.8117,2.8261,2.8879,2.9343,2.9403,2.9446,2.9489,0.0,0.0,0.0,0.0,0.0,0.0,0.0,0.0,0.0,0.0,0.0,0.0,0.0,0.0,0.0,0.0,0.0,0.0,0.0,0.0,0.0,0.0,0.0,0.0,0.0,0.0,0.0,2.7803,2.7785,0.0,0.0,0.0,0.0,0.0,0.0,0.0,0.0,0.0,0.0,0.0,2.8333,2.8345,0.0,0.0,0.0,0.0,0.0,0.0,0.0,0.0,0.0,0.0,0.0,0.0,2.8611,2.8465,2.8373,2.8271,2.8133,2.795,2.7811,2.7701,2.7474,2.7293,2.7146,0.0,0.0,0.0,0.0,0.0,0.0,0.0,0.0,0.0,0.0,0.0,0.0,0.0,0.0,0.0,0.0,0.0,0.0,0.0,0.0,0.0,0.0,0.0,0.0,0.0,2.6708,0.0,0.0,0.0,0.0,0.0,0.0,0.0,0.0,0.0,0.0,0.0,2.7194,2.7211,2.7583,2.7876,2.7925,2.8536,2.8991,0.0,0.0,0.0,0.0,0.0,0.0,0.0,0.0,0.0,0.0,0.0,0.0,0.0,0.0,3.075,2.9705,2.9972,3.0361,3.0361,0.0,0.0,0.0,0.0,0.0,0.0,0.0,0.0,0.0,0.0,0.0,0.0,0.0,0.0,2.8523,0.0,2.8523,0.0,0.0,0.0,0.0,0.0,0.0,0.0,0.0,2.8205,2.8191,2.8198,2.8191,2.8219,0.0,2.8291,2.847,0.0,0.0,0.0,0.0,0.0,0.0,0.0,0.0,2.8432,2.8338,2.8202,2.8085,2.7961,2.777,2.7619,2.7537,2.7277,2.7087,2.6983,2.6926,2.6884,0.0,0.0,0.0,0.0,0.0,0.0,0.0,0.0,0.0,0.0,0.0,0.0,0.0,0.0,0.0,0.0,0.0,0.0,0.0,0.0,0.0,0.0,0.0,2.6708,0.0,0.0,0.0,0.0,0.0,0.0,0.0,0.0,0.0,2.7324,2.7514,2.7686,2.7678,2.8275,2.8723,2.8774,0.0,0.0,0.0,0.0,0.0,0.0,0.0,3.1085,3.1076,3.1481,3.18,3.18,3.1837,3.1838,3.182,0.0,0.0,3.0542,3.0811,3.1246,3.1254,3.1707,3.2099,3.2099,3.2099,3.2099,0.0,0.0,0.0,0.0,0.0,0.0,0.0,0.0,2.8458,2.8452,0.0,2.8422,0.0,0.0,0.0,0.0,0.0,2.8259,0.0,0.0,2.8131,2.8078,2.8096,2.8113,2.8096,2.8067,2.8177,2.8571,2.9196,2.8731,0.0,0.0,0.0,0.0,0.0,0.0,2.8317,2.83,2.8181,2.7974,2.7789,2.7702,2.7542,2.7318,2.7132,2.7018,2.6927,2.6901,2.6834,2.6708,2.6708,0.0,0.0,0.0,0.0,0.0,0.0,0.0,0.0,0.0,0.0,0.0,0.0,0.0,0.0,0.0,0.0,0.0,0.0,0.0,0.0,2.6708,0.0,0.0,0.0,0.0,0.0,0.0,0.0,0.0,0.0,0.0,2.7514,2.8006,2.8437,2.8437,0.0,0.0,0.0,0.0,3.074,3.0713,3.1317,3.1783,3.1765,3.1783,3.1783,3.1783,0.0,0.0,3.1818,3.1857,3.1903,3.1903,3.2002,3.2064,3.1913,3.1941,3.2082,3.2065,3.2091,3.2108,3.2126,3.2143,3.2117,2.9876,0.0,0.0,0.0,0.0,3.0029,2.9987,2.993,2.9308,2.9029,2.9001,2.8485,0.0,0.0,0.0,0.0,0.0,0.0,2.8826,2.884,2.9366,2.9652,2.9642,2.9635,2.9642,2.9635,2.9657,2.9789,2.9958,2.9831,2.9813,2.9898,0.0,0.0,0.0,0.0,2.9707,2.9493,2.9446,2.9306,2.9066,2.8992,2.8817,2.8561,2.8015,2.7632,2.7468,2.697,2.6666,2.6623,2.6623,0.0,0.0,0.0,0.0,0.0,0.0,0.0,0.0,0.0,0.0,0.0,0.0,0.0,0.0,0.0,0.0,0.0,0.0,0.0,2.6708,2.6708,2.6725,0.0,0.0,0.0,0.0,0.0,0.0,0.0,0.0,0.0,2.8885,2.9058,2.9196,0.0,0.0,3.036,3.036,3.1016,3.1499,3.1472,3.1671,0.0,3.18,3.18,3.18,3.18,3.183,3.1893,3.1992,3.2028,3.2046,3.2046,3.21,3.2153,3.2126,3.2144,3.217,3.217,3.2249,3.2319,3.231,3.2319,3.2336,3.1129,3.1184,3.0784,3.0619,3.0594,3.0517,3.0477,3.0451,2.9916,2.9716,2.968,2.9233,2.9027,2.9027,2.9044,0.0,0.0,0.0,2.9442,2.9429,2.989,3.0111,3.0111,3.0085,3.0103,3.0103,3.0103,3.0243,3.0517,3.0534,3.0749,3.111,0.0,0.0,3.0279,3.0235,3.0115,2.9955,2.9866,2.9708,2.9574,2.9412,2.9236,2.9004,2.8554,2.8236,2.8057,2.7636,2.7258,2.6965,2.7009,2.6935,0.0,0.0,0.0,0.0,0.0,0.0,0.0,0.0,0.0,0.0,0.0,2.7065,2.6959,0.0,0.0,0.0,2.6708,2.6708,2.6708,2.6708,0.0,0.0,0.0,0.0,0.0,0.0,0.0,2.8851,2.9506,2.9972,2.9963,3.0231,3.0317,3.0024,3.0644,3.1136,3.1136,0.0,3.18,3.18,3.18,3.1801,3.1829,3.1847,3.1865,3.1919,3.193,3.1993,3.2082,3.2117,3.2152,3.2144,3.2214,3.2275,3.2275,3.2275,3.2267,3.2275,3.2345,3.2406,3.2406,3.2406,3.2406,3.2161,3.2083,3.0909,3.0447,3.0453,3.0462,3.0437,3.0437,3.0384,3.0358,3.0341,3.0288,3.0278,3.0253,3.0253,0.0,3.0084,3.0072,3.0027,2.998,2.9983,2.9984,3.0002,2.9984,2.9976,2.9984,2.9976,3.0324,3.0976,3.1003,3.1377,3.2029,3.0865,3.0243,3.0243,3.0141,3.0059,3.0068,2.9816,2.9653,2.9636,2.938,2.9199,2.9072,2.8938,2.8811,2.8698,2.8612,2.8287,2.7621,2.7712,2.7456,2.6816,0.0,0.0,0.0,0.0,0.0,0.0,0.0,0.0,0.0,0.0,0.0,0.0,0.0,0.0,0.0,2.6708,0.0,2.6784,2.6793,0.0,0.0,0.0,2.8254,2.8372,2.9093,2.9601,2.9601,0.0,0.0,3.0774,3.1395,3.1541,3.0878,3.1378,3.18,3.18,3.1775,3.1801,3.1818,3.1827,3.1881,3.2077,3.2146,3.2286,3.2403,3.2291,3.237,3.2414,3.2449,3.2432,3.2494,3.252,3.2616,3.2581,3.2687,3.2581,3.266,3.2493,3.2406,3.2406,3.2406,3.2441,3.1901,3.1875,3.1566,3.1603,3.1807,3.1757,3.1741,3.1688,3.1035,3.0747,3.0712,3.0162,2.9917,2.9925,2.9917,2.9909,2.9885,3.0435,3.0671,3.0706,3.1281,3.1551,3.1551,3.1542,3.1568,3.1551,3.1568,3.1638,3.1803,3.182,3.1855,3.1922,3.1566,3.148,3.1603,3.1489,3.1401,3.1355,3.1176,3.1012,3.0872,3.0678,3.0516,3.0486,2.9834,2.9453,2.9349,2.8839,2.8446,2.8279,2.8401,2.8384,2.8271,2.7805,0.0,0.0,0.0,0.0,0.0,0.0,0.0,0.0,0.0,2.7104,2.6999,0.0,2.6859,0.0,2.6708,2.6928,2.7494,2.7623,0.0,0.0,2.8913,2.9111,2.9214,2.9929,3.0403,3.0403,3.1085,3.1541,3.155,3.1688,3.174,3.1558,3.1688,3.18,3.18,3.1856,3.1875,3.1919,3.2017,3.2237,3.2802,3.342,3.3814,3.3916,3.3899,3.3962,3.4062,3.4107,3.4107,3.4099,3.4125,3.4144,3.41,3.4153,3.4135,3.4082,3.324,3.2406,3.2406,3.2423,3.2572,3.166,3.166,3.166,3.1773,3.1939,3.2001,3.2036,3.1975,3.1496,3.1288,3.1271,3.0863,3.069,3.069,3.069,3.0664,3.0629,3.1026,3.119,3.1205,3.162,3.1837,3.1837,3.1819,3.1837,3.1837,3.1837,3.1837,3.1819,3.1837,3.1809,3.1727,3.1688,3.1726,3.1827,3.1755,3.1709,3.166,3.154,3.137,3.1176,3.1048,3.0955,3.0865,3.0403,3.0089,3.0015,2.9586,2.9238,2.8932,2.9061,2.9015,2.8762,2.848,2.8349,0.0,0.0,0.0,0.0,0.0,0.0,0.0,0.0,0.0,0.0,0.0,2.6987,2.719,2.7512,2.7901,2.8298,2.8429,2.8679,2.9142,2.9599,2.9928,3.0015,3.0713,3.1188,3.1205,3.1558,3.18,3.18,3.2102,3.2301,3.2365,3.2668,3.2755,3.2453,3.2404,3.2554,3.2956,3.3081,3.3258,3.3722,3.4187,3.4548,3.4577,3.4596,3.4615,3.4679,3.4697,3.4697,3.4697,3.4697,3.4697,3.4697,3.4697,3.4697,3.4592,3.4047,3.3476,3.3415,3.3415,3.3573,3.1713,3.1684,3.1684,3.1701,3.1694,3.1869,3.1879,3.1763,3.1772,3.1763,3.1763,3.1763,3.1763,3.1763,3.1763,3.169,3.1589,3.1596,3.1549,3.149,3.149,3.149,3.149,3.149,3.149,3.149,3.149,3.149,3.149,3.149,3.1488,3.1479,3.1462,3.1479,3.1469,3.146,3.146,3.145,3.1312,3.1176,3.0985,3.0975,3.0875,3.0712,3.0681,3.062,3.0499,3.0489,3.0218,2.9589,2.9712,2.9563,2.9032,2.9076,2.911,0.0,2.9061,0.0,0.0,0.0,0.0,0.0,0.0,0.0,0.0,2.7165,2.7394,2.79,2.8578,2.9053,2.9154,2.9229,2.9336,2.951,3.02,3.0711,3.0851,3.1412,3.18,3.18,3.1878,3.1938,3.1999,3.2593,3.3099,3.3244,3.3705,3.3942,3.3553,3.3371,3.3531,3.4337,3.4522,3.4552,3.4688,3.4878,3.5074,3.5048,3.5109,3.4995,3.5083,3.5075,3.504,3.5057,3.5101,3.5066,3.4995,3.5031,3.5031,3.5101,3.5048,3.4908,3.4644,3.4557,3.4732,3.281,3.2725,3.2708,3.2708,3.2725,3.2751,3.232,3.1565,3.1547,3.1565,3.1565,3.1565,3.1555,3.1565,3.1555,3.1555,3.1527,3.1536,3.1517,3.149,3.149,3.149,3.149,3.149,3.149,3.149,3.149,3.149,3.149,3.149,3.1443,3.1341,3.1341,3.132,3.1259,0.0,0.0,0.0,3.1075,3.1015,3.0905,3.0804,3.0743,3.0692,3.0599,0.0,3.0506,3.0489,3.0439,3.0301,3.0424,0.0,0.0,0.0,0.0,0.0,0.0,0.0,0.0,0.0,0.0,0.0,2.8793,2.8649,2.8686,2.8649,2.8655,2.8764,2.8925,2.9274,2.9915,3.0094,3.0417,3.1073,3.1398,3.1584,3.1602,3.1723,3.18,3.1817,3.2317,3.2697,3.2741,3.3419,3.3954,3.4017,3.4206,3.4588,3.5145,3.4622,3.4335,3.4503,3.5119,3.5517,3.5553,3.6083,3.6418,3.6568,3.6568,3.6515,3.647,3.6498,3.6523,3.6498,3.6586,3.6533,3.6533,3.6568,3.6463,3.655,3.655,3.619,3.4978,3.4715,3.4863,3.3053,0.0,3.2998,3.2998,0.0,3.2998,3.2708,3.2242,3.2232,3.2283,3.2351,3.2334,3.2381,3.2448,3.2441,3.2431,3.2448,3.2441,3.2431,3.2431,3.2458,3.2441,3.2431,3.2431,3.2441,3.2431,3.2441,3.2441,3.2431,3.2441,3.2411,3.2327,3.2327,3.2324,3.2273,3.229,3.1857,3.1012,3.0972,3.0895,3.0804,3.0733,3.0671,3.0599,3.052,0.0,0.0,0.0,0.0,0.0,0.0,0.0,0.0,0.0,0.0,3.0535,3.0248,3.0083,3.0083,3.0067,3.0093,3.0083,3.0093,2.9798,2.9106,2.9357,2.9533,2.9567,2.9893,3.0296,3.07,3.0883,3.1149,3.1547,3.1718,3.18,3.1834,3.2127,3.2334,3.2421,3.3024,3.3509,3.355,3.4273,3.4812,3.4942,3.5331,3.5741,3.6153,3.5626,3.5222,3.5647,3.6063,3.6373,3.6426,3.6681,3.698,3.698,3.698,3.698,3.698,3.698,3.698,3.698,3.698,3.698,3.698,3.698,3.698,3.698,3.698,3.6814,3.5971,3.5838,3.5926,3.3367,3.3345,3.3328,3.3334,3.3334,3.3328,3.3345,3.3328,0.0,0.0,0.0,3.3166,3.323,3.3322,3.3332,3.3332,3.3332,3.3337,3.3364,3.3358,3.3385,3.3389,3.3389,3.3389,3.3389,3.3389,3.3389,3.3389,3.3389,3.3389,3.3389,3.3389,3.3389,3.3389,3.3396,3.3385,3.2731,3.1476,3.1328,3.1205,3.1054,3.0927,3.0819,3.0688,3.0555,3.0489,3.0489,3.0489,3.0489,3.0506,3.0599,3.0671,3.0702,3.0855,3.0965,3.1012,3.1112,3.1197,3.119,3.119,3.119,3.119,3.119,3.0693,2.9474,2.9939,3.0284,3.0303,3.0907,3.1315,3.1353,3.1477,3.1676,3.1815,3.1934,3.2041,3.2231,3.2741,3.311,3.3179,3.381,3.4315,3.4421,3.5146,3.5695,3.5923,3.6357,3.6888,3.6898,3.6375,3.6145,3.6714,3.6857,3.6945,3.6989,3.6972,3.698,3.698,3.698,3.698,3.698,3.698,3.698,3.698,3.698,3.698,3.698,3.698,3.698,3.698,3.698,3.698,3.698,3.698,3.6927,3.4737,3.4631,3.4631,3.4643,3.4631,3.4631,3.4631,3.4544,3.3478,3.3009,3.3031,3.3031,3.3031,3.3069,3.3053,3.3053,3.3053,3.3177,3.3214,3.323,3.3353,3.3389,3.3389,3.3389,3.3389,3.3389,3.3406,3.3389,3.3396,3.3423,3.3389,3.3396,3.3389,3.3396,3.3396,3.3345,3.3207,3.2984,3.2861,3.2683,3.2409,3.1823,3.147,3.1432,3.0837,3.0489,3.0489,3.0506,3.0489,3.0489,3.051,3.0578,3.0692,3.0722,3.0824,3.0985,3.1032,3.1082,3.119,3.119,3.119,3.119,3.119,3.1099,3.0929,3.098,3.1077,3.113,3.1244,3.1363,3.1515,3.1614,3.1937,3.2597,3.2729,3.3017,3.3603,3.3845,3.3931,3.3948,3.4576,3.511,3.53,3.5953,3.6478,3.6624,3.6793,3.696,3.698,3.6892,3.6865,3.6962,3.698,3.698,3.698,3.698,3.698,3.698,3.698,3.698,3.698,3.698,3.698,3.698,3.698,3.698,3.698,3.698,3.698,3.698,3.698,3.698,3.698,3.698,3.698,3.4958,3.4911,3.4911,3.4911,3.4911,3.4911,3.4911,3.4845,3.4291,3.4072,3.414,3.414,3.4174,3.4259,3.4242,3.4259,3.4253,3.4398,3.4448,3.4448,3.4542,3.4585,3.4596,3.4596,3.4596,3.4596,3.4596,3.4585,3.4596,3.4585,3.4585,3.4585,3.4596,3.4585,3.4596,3.4569,3.452,3.4465,3.3494,3.2934,3.2818,3.2409,3.2188,3.2199,3.1868,3.1686,3.1686,3.13,3.1101,3.1101,3.0721,3.0537,3.0589,3.0651,3.0743,3.0824,3.0905,3.1002,3.1092,3.1161,3.119,3.119,3.119,3.119,3.119,3.119,3.1222,3.1286,3.1378,3.1661,3.2181,3.2273,3.2649,3.3473,3.3569,3.3707,3.4052,3.45,3.468,3.4759,3.5414,3.5952,3.6082,3.6496,3.6788,3.6881,3.6968,3.698,3.698,3.698,3.698,3.698,3.698,3.698,3.698,3.698,3.698,3.698,3.698,3.698,3.698,3.698,3.698,3.698,3.698,3.698,3.698,3.698,3.698,3.698,3.698,3.698,3.698,3.698,3.698,3.4799,3.4816,3.4816,3.4799,3.4799,3.4851,3.4863,3.4847,3.4871,3.4958,3.5041,3.5069,3.5116,3.521,3.521,3.5205,3.5233,3.5372,3.5469,3.5469,3.556,3.5628,3.5628,3.5628,3.5628,3.5628,3.5628,3.5628,3.5628,3.5628,3.5628,3.56,3.5628,3.5628,3.5628,3.5628,3.5566,3.5442,3.4153,3.3417,3.3384,3.3117,3.2939,3.2939,3.2774,3.2685,3.2658,3.215,3.1857,3.1824,3.1294,3.0996,3.0996,3.1091,3.1104,3.0985,3.1051,3.1063,3.1012,3.1092,3.1245,3.1437,3.1454,3.1522,3.1674,3.1691,3.1666,3.1621,3.1715,3.2119,3.2906,3.3141,3.349,3.4224,3.4345,3.4448,3.4638,3.5104,3.5449,3.5528,3.6077,3.6527,3.6674,3.6748,3.6849,3.694,3.698,3.698,3.698,3.698,3.698,3.698,3.698,3.698,3.698,3.698,3.698,3.698,3.698,3.698,3.698,3.698,3.698,3.698,3.698,3.698,3.698,3.698,3.698,3.698,3.698,3.6987,3.6948,3.6918,3.6948,3.4533,3.4533,3.4546,3.455,3.4558,3.4667,3.4732,3.4744,3.4851,3.4911,3.4923,3.4923,3.4935,3.4935,3.4947,3.4947,3.497,3.521,3.5314,3.5337,3.5509,3.5628,3.5628,3.5628,3.5628,3.5628,3.5628,3.5628,3.5628,3.5628,3.5628,3.5628,3.5628,3.5628,3.5628,3.5628,3.5588,3.5571,3.5244,3.5021,3.4838,3.4119,3.3685,3.3701,3.3055,3.2685,3.2774,3.2624,3.2597,3.2591,3.2525,3.2475,3.2459,3.2486,3.2265,3.1736,3.1707,3.1519,3.1083,3.1005,3.1412,3.2104,3.2192,3.2452,3.3051,3.3152,3.2964,3.2633,3.2505,3.2911,3.384,3.3973,3.4283,3.4983,3.5104,3.5345,3.5863,3.6146,3.6197,3.6197,3.6354,3.6544,3.6674,3.6758,3.6851,3.697,3.698,3.698,3.698,3.698,3.698,3.698,3.698,3.698,3.698,3.698,3.698,3.698,3.698,3.698,3.698,3.698,3.698,3.698,3.698,3.698,3.698,3.698,3.6987,3.696,3.695,3.6968,3.6859,3.6796,3.6806,3.448,3.448,3.448,3.448,3.4509,3.4558,3.4582,3.4594,3.4732,3.4792,3.4804,3.4875,3.4911,3.4911,3.4911,3.4911,3.4923,3.5187,3.5308,3.5314,3.5498,3.5628,3.5628,3.5628,3.5628,3.5628,3.5628,3.5628,3.5628,3.5611,3.5628,3.5628,3.5628,3.5628,3.5628,3.5628,3.5594,3.5526,3.5383,3.5233,3.5083,3.4688,3.4464,3.4419,3.4154,3.4,3.3967,3.3602,3.3353,3.332,3.2939,3.2685,3.2685,3.2685,3.2613,3.2359,3.2424,3.2373,3.2147,3.2234,3.2446,3.2828,3.2918,3.3085,3.3345,3.3389,3.3486,3.3768,3.3482,3.3628,3.4465,3.4701,3.5042,3.5673,3.5863,3.5973,3.6232,3.6284,3.6284,3.6294,3.6475,3.6623,3.6695,3.6819,3.6938,3.6997,3.698,3.698,3.698,3.698,3.698,3.698,3.698,3.698,3.698,3.698,3.698,3.698,3.698,3.698,3.698,3.698,3.698,3.698,3.698,3.698,3.698,3.6911,3.6871,3.6871,3.6839,3.6806,3.6745,3.6722,3.6763,3.4275,3.4288,3.4312,3.4337,3.4349,3.4411,3.4448,3.4472,3.4582,3.4655,3.4703,3.4804,3.4847,3.4899,3.4911,3.4911,3.4935,3.5123,3.5268,3.5314,3.5492,3.5594,3.56,3.5628,3.5628,3.5628,3.5628,3.5588,3.5554,3.5509,3.5509,3.5526,3.5543,3.5583,3.5583,3.5588,3.5571,3.5492,3.5377,3.5233,3.5105,3.497,3.4911,3.4911,3.4911,3.4911,3.4883,3.4397,3.4087,3.4087,3.3551,3.3247,3.3258,3.3258,3.3176,3.3006,3.289,3.2862,3.2901,3.3081,3.3267,3.3478,3.3613,3.3795,3.3954,3.4004,3.4284,3.476,3.4544,3.4598,3.5118,3.5356,3.5676,3.6207,3.6259,3.6286,3.629,3.6284,3.6284,3.6322,3.6475,3.6674,3.6735,3.6886,3.698,3.698,3.698,3.698,3.698,3.698,3.698,3.698,3.698,3.698,3.698,3.698,3.698,3.698,3.698,3.698,3.698,3.698,3.698,3.698,3.696,3.693,3.6918,3.6849,3.6758,3.6748,3.6697,3.6623,3.6564,3.6572,3.653,3.3733,3.3758,3.3873,3.3949,3.3949,3.4201,3.4312,3.43,3.4448,3.457,3.4679,3.4703,3.4792,3.4883,3.4899,3.4911,3.4923,3.5041,3.5187,3.5291,3.5446,3.5543,3.5616,3.5628,3.56,3.5577,3.5566,3.5549,3.5486,3.5372,3.5314,3.5343,3.5446,3.5503,3.5526,3.556,3.556,3.5492,3.5354,3.5233,3.5088,3.497,3.4911,3.4911,3.4911,3.4911,3.4911,3.4866,3.4816,3.4816,3.461,3.455,3.4571,3.4567,3.4284,3.3778,3.3138,3.2829,3.2984,3.3166,3.3521,3.4118,3.4379,3.4726,3.5222,3.5306,3.5357,3.5537,3.5485,3.564,3.5811,3.5848,3.5964,3.6152,3.6204,3.624,3.628,3.629,3.6284,3.6322,3.6444,3.6616,3.6778,3.6928,3.697,3.698,3.698,3.698,3.698,3.698,3.698,3.698,3.698,3.698,3.698,3.698,3.698,3.698,3.698,3.698,3.698,3.698,3.698,3.695,3.6888,3.6829,3.6809,3.6766,3.6684,3.6623,3.6523,3.6451,3.635,3.6255,3.624,3.3694,3.3694,3.3745,3.3758,3.38,3.3975,3.4038,3.4047,3.4275,3.4399,3.4472,3.4618,3.4715,3.4763,3.4863,3.4911,3.4911,3.5029,3.5123,3.5187,3.5314,3.5372,3.5418,3.5401,3.5418,3.5401,3.5401,3.5389,3.536,3.5314,3.5308,3.5319,3.5337,3.5412,3.548,3.5441,3.5395,3.5349,3.5233,3.51,3.4982,3.4923,3.4911,3.4911,3.4911,3.4911,3.4911,3.4911,3.4911,3.4911,3.4763,3.4691,3.4691,3.4691,3.4652,3.4506,3.4237,3.4127,3.4202,3.4391,3.4599,3.4902,3.5105,3.5289,3.5532,3.5628,3.5628,3.5611,3.5633,3.5711,3.5767,3.5899,3.6019,3.6068,3.6079,3.6112,3.6208,3.624,3.6244,3.6329,3.6492,3.6674,3.6778,3.6928,3.698,3.698,3.698,3.698,3.698,3.698,3.698,3.698,3.698,3.698,3.698,3.698,3.698,3.698,3.698,3.6997,3.6997,3.6908,3.6878,3.6859,3.6778,3.6705,3.6664,3.6534,3.6461,3.6325,3.6251,3.6244,3.6099,3.6073,3.6051,3.3568,3.3581,3.362,3.3645,3.3658,3.3784,3.386,3.3911,3.4088,3.4226,3.4325,3.4497,3.4602,3.4703,3.4787,3.4875,3.4911,3.4994,3.5053,3.5105,3.5198,3.5256,3.5291,3.5308,3.5308,3.5308,3.5256,3.5245,3.5222,3.5198,3.5175,3.5163,3.521,3.5303,3.5412,3.5372,3.5354,3.5291,3.521,3.5076,3.4935,3.4911,3.4911,3.4911,3.4911,3.4911,3.4911,3.4911,3.4911,3.4887,3.4792,3.4691,3.4691,3.4691,3.4751,3.4887,3.4894,3.4911,3.4935,3.5152,3.5291,3.5314,3.5464,3.5628,3.5628,3.5628,3.5628,3.5628,3.56,3.5588,3.5605,3.5728,3.5855,3.591,3.5932,3.5975,3.6101,3.615,3.6187,3.6293,3.6471,3.6643,3.6766,3.6876,3.6938,3.697,3.698,3.698,3.698,3.698,3.698,3.698,3.698,3.7155,3.7346,3.7484,3.7196,3.7126,3.7111,3.7068,3.7084,3.6958,3.687,3.6808,3.6719,3.6599,3.6468,3.6342,3.6232,3.6098,3.6041,3.6084,3.5997,3.5949,3.6018,3.3322,3.3332,3.345,3.3534,3.3595,3.3754,3.3835,3.405,3.4043,3.4306,3.4572,3.4459,3.4706,3.4762,3.4971,3.4895,3.509,3.516,3.5115,3.5081,3.5088,3.5163,3.5273,3.5273,3.5261,3.5261,3.5163,3.5116,3.5076,3.4994,3.4947,3.4947,3.5053,3.5182,3.5303,3.5412,3.5423,3.5314,3.5268,3.5152,3.4935,3.4911,3.4911,3.4911,3.4911,3.4911,3.4911,3.4911,3.4911,3.4899,3.4763,3.4703,3.4691,3.4691,3.4763,3.4875,3.4911,3.4911,3.4935,3.5163,3.5319,3.5337,3.5492,3.5628,3.5628,3.5628,3.56,3.5605,3.5605,3.5571,3.5498,3.5509,3.5571,3.5768,3.579,3.5839,3.5943,3.6008,3.6068,3.6208,3.6398,3.6544,3.6674,3.6786,3.6878,3.6968,3.698,3.698,3.7015,3.7085,3.705,3.7085,3.7329,3.7684,3.7892,3.8029,3.7619,3.7314,3.7286,3.7263,3.7389,3.7352,3.7346,3.7269,3.7111,3.7004,3.6891,3.6764,3.6618,3.6484,3.6284,3.6285,3.64,3.6486,3.622,3.3293,3.3293,3.3346,3.3644,3.4037,3.4205,3.4593,3.5201,3.5297,3.5472,3.5659,3.5734,3.5795,3.5911,3.6105,3.6215,3.6269,3.6324,3.5901,3.5124,3.4992,3.5032,3.5067,3.5063,3.5018,3.5018,3.4982,3.4958,3.498,3.4956,3.4911,3.4935,3.5063,3.5158,3.5358,3.5354,3.5326,3.5291,3.521,3.5065,3.4923,3.4928,3.4928,3.4911,3.4911,3.4911,3.4911,3.4911,3.4911,3.4883,3.478,3.4691,3.4691,3.4691,3.4751,3.4887,3.4911,3.4947,3.5058,3.5182,3.5354,3.5418,3.5521,3.56,3.5628,3.5628,3.5594,3.5543,3.5532,3.5503,3.54,3.536,3.5383,3.5452,3.5532,3.5633,3.5762,3.5971,3.6133,3.6197,3.6377,3.6561,3.6692,3.6776,3.6859,3.7048,3.7032,3.7032,3.7095,3.7524,3.7742,3.776,3.8078,3.8349,3.8622,3.8751,3.8516,3.8203,3.8045,3.777,3.7808,3.7765,3.7759,3.7657,3.752,3.7375,3.7274,3.7166,3.703,3.7148,3.7187,3.7214,3.7253,3.7095,3.6823,3.4083,3.4083,3.4083,3.4318,3.4697,3.4811,3.5186,3.5762,3.589,3.6053,3.626,3.6337,3.6374,3.6437,3.6623,3.6753,3.6788,3.6878,3.6409,3.5659,3.5686,3.5727,3.5711,3.5711,3.5711,3.5727,3.5727,3.5711,3.5711,3.5711,3.5752,3.5824,3.588,3.6033,3.617,3.6182,3.617,3.6111,3.6057,3.5892,3.5747,3.5711,3.5727,3.569,3.551,3.5402,3.5381,3.5184,3.5006,3.4911,3.4828,3.478,3.478,3.4828,3.4899,3.4958,3.5034,3.5105,3.5187,3.5291,3.54,3.5475,3.556,3.56,3.5628,3.5628,3.5571,3.5514,3.5492,3.5434,3.5285,3.5222,3.521,3.5135,3.5314,3.5452,3.5583,3.5894,3.609,3.6155,3.6304,3.6492,3.6654,3.6753,3.6968,3.7264,3.7419,3.7612,3.7805,3.8269,3.8424,3.8533,3.8681,3.8985,3.9375,3.9434,3.9422,3.9215,3.9015,3.8622,3.841,3.8199,3.8093,3.7946,3.7809,3.7619,3.7525,3.752,3.746,3.774,3.792,3.7639,3.7465,3.7568,3.7417,3.5377,3.5408,3.5393,3.5361,3.544,3.547,3.5717,3.5986,3.6044,3.6272,3.6502,3.664,3.6599,3.6566,3.6795,3.6871,3.6738,3.6934,3.6964,3.6881,3.6977,3.7059,3.6795,3.6758,3.6783,3.6878,3.6924,3.6986,3.6854,3.687,3.7161,3.7103,3.7103,3.738,3.7412,3.7658,3.7463,3.7299,3.7375,3.7235,3.7016,3.704,3.7024,3.6987,3.6526,3.6283,3.6211,3.5861,3.5358,3.5003,3.4947,3.4947,3.4947,3.5058,3.5088,3.51,3.5233,3.5268,3.5314,3.5395,3.5492,3.5526,3.5588,3.5628,3.5628,3.5605,3.5549,3.5469,3.5446,3.5337,3.5152,3.5076,3.5063,3.5053,3.5242,3.5377,3.5503,3.5795,3.6033,3.6149,3.626,3.6523,3.6956,3.7043,3.7407,3.7899,3.8171,3.8452,3.8807,3.9042,3.9221,3.9314,3.9397,3.9682,4.0063,3.9991,3.9945,3.983,3.9675,3.9376,3.9072,3.8865,3.8689,3.8503,3.8214,3.8014,3.7985,3.8147,3.8148,3.8237,3.8136,3.7759,3.7871,3.8196,3.8304,3.5408,3.5408,3.5408,3.5679,3.6105,3.6235,3.6678,3.7311,3.7486,3.756,3.7781,3.7857,3.7772,3.788,3.7945,3.8046,3.8003,3.8098,3.8231,3.8231,3.8286,3.7666,3.6953,3.6911,3.7012,3.7041,3.72,3.7119,3.7119,3.7231,3.7261,3.7295,3.7527,3.7588,3.7684,3.7865,3.7757,3.7672,3.7677,3.7625,3.7477,3.7457,3.7398,3.7381,3.7239,3.7163,3.7151,3.7015,3.6317,3.5293,3.5198,3.5182,3.5237,3.5272,3.5295,3.5256,3.528,3.5337,3.5434,3.548,3.5509,3.5571,3.5594,3.5628,3.56,3.5566,3.5475,3.536,3.5285,3.5168,3.4999,3.5013,3.52,3.5593,3.5573,3.55,3.5576,3.5712,3.6082,3.6676,3.6939,3.742,3.7992,3.8272,3.845,3.8818,3.8965,3.9049,3.9434,3.9797,3.9992,4.0087,4.0207,4.047,4.0643,4.0537,4.047,4.0367,4.0226,4.0063,3.9868,3.9749,3.9616,3.9501,3.908,3.8791,3.903,3.9256,3.9104,3.8726,3.8857,3.8769,3.9101,3.9409,3.9383,3.6322,3.6364,3.6364,3.6614,3.7007,3.7124,3.7476,3.7956,3.8151,3.8264,3.8391,3.8478,3.8476,3.849,3.856,3.8588,3.8602,3.8614,3.8611,3.8611,3.8579,3.8174,3.7691,3.7722,3.7791,3.7801,3.7932,3.8046,3.8089,3.8094,3.8193,3.8367,3.8443,3.8584,3.8788,3.8753,3.8741,3.868,3.8622,3.8572,3.843,3.843,3.8434,3.8376,3.8216,3.7976,3.7795,3.7783,3.7302,3.6467,3.6212,3.6107,3.58,3.583,3.5707,3.5456,3.5406,3.5458,3.552,3.5543,3.556,3.5588,3.5628,3.5628,3.56,3.5549,3.5469,3.5314,3.5233,3.5255,3.5411,3.5628,3.6046,3.6435,3.6343,3.6264,3.6347,3.6683,3.6996,3.7445,3.7774,3.8077,3.886,3.8945,3.9205,3.9477,3.9597,3.9792,4.0073,4.0422,4.0599,4.0573,4.0545,4.0659,4.0644,4.0535,4.0378,4.0341,4.0184,4.015,4.015,4.01,3.9935,3.9736,3.9657,3.9599,3.9629,3.9603,3.9361,3.9214,3.9543,3.9681,3.9768,3.9884,3.9961,3.7628,3.773,3.7715,3.7772,3.7858,3.7934,3.7987,3.8193,3.8266,3.8335,3.8476,3.8574,3.8616,3.8616,3.8644,3.863,3.8604,3.8518,3.8448,3.845,3.8448,3.8384,3.8553,3.8605,3.8709,3.8782,3.9142,3.9183,3.9103,3.9282,3.951,3.9486,3.9664,3.991,3.9809,3.9931,4.0003,3.9779,3.9699,3.9627,3.9521,3.9508,3.9521,3.9492,3.9236,3.887,3.8615,3.8535,3.8338,3.7854,3.7695,3.7211,3.6685,3.6734,3.6533,3.6117,3.6101,3.6084,3.5966,3.6101,3.5989,3.6084,3.6022,3.5847,3.6022,3.6056,3.5981,3.5869,3.5542,3.5819,3.614,3.6709,3.7087,3.7344,3.7498,3.7609,3.7762,3.7999,3.8196,3.8316,3.8551,3.8755,3.897,3.9095,3.9365,4.0175,4.0273,4.0407,4.056,4.074,4.0822,4.0763,4.072,4.0688,4.059,4.0456,4.0254,4.0108,3.9897,3.9794,3.9833,3.9807,3.9742,3.9638,3.955,3.9498,3.9501,3.9418,3.9352,3.9392,3.9511,3.9616,3.969,3.9833,3.9922,3.7832,3.7861,3.7847,3.786,3.7934,3.8064,3.8221,3.8363,3.8462,3.8574,3.8681,3.8736,3.875,3.8766,3.875,3.8711,3.8616,3.8562,3.852,3.8408,3.8391,3.8476,3.8655,3.8791,3.886,3.8928,3.9148,3.9339,3.9432,3.9484,3.9629,3.9836,3.9884,3.9977,4.007,4.0113,4.0083,4.0045,4.0049,4.0037,4.0024,3.9995,4.0049,4.0121,4.0088,4.0068,4.001,4.0007,3.9971,3.9625,3.8845,3.8158,3.7903,3.7875,3.775,3.758,3.7569,3.7638,3.7643,3.7478,3.7516,3.7386,3.7242,3.7386,3.7391,3.7219,3.7177,3.7136,3.7003,3.6844,3.7036,3.7161,3.7674,3.8183,3.843,3.8719,3.9084,3.866,3.8569,3.8988,3.9317,3.9698,4.0418,4.0406,4.062,4.0902,4.0937,4.1001,4.1019,4.0995,4.0871,4.0733,4.0607,4.051,4.0362,4.0213,4.0037,3.9884,3.9694,3.955,3.959,3.9603,3.9563,3.9498,3.9418,3.9379,3.9395,3.9365,3.9325,3.9392,3.9488,3.9616,3.9742,3.9833,3.9922,3.8062,3.8134,3.8205,3.8276,3.8331,3.8415,3.8516,3.8586,3.8655,3.8738,3.8805,3.8873,3.8901,3.8884,3.8887,3.8835,3.8669,3.8546,3.8478,3.8436,3.8464,3.8548,3.863,3.8794,3.8901,3.8928,3.9161,3.9365,3.9488,3.9563,3.9677,3.9901,3.9965,4.0024,4.0083,4.0113,4.0113,4.0083,4.0113,4.0125,4.0175,4.0201,4.0263,4.0387,4.051,4.0583,4.0561,4.0621,4.0645,4.0503,3.9953,3.9265,3.8881,3.8806,3.8681,3.8362,3.831,3.831,3.8258,3.8172,3.8033,3.8118,3.7989,3.7917,3.7893,3.7817,3.7757,3.7696,3.7587,3.7572,3.7895,3.8329,3.8714,3.9034,3.9257,3.9548,3.9855,3.9562,3.9349,3.985,4.0108,4.0404,4.0821,4.0977,4.0989,4.088,4.0792,4.0837,4.0802,4.0776,4.0643,4.051,4.0387,4.0263,4.013,3.9965,3.9768,3.9625,3.9524,3.9448,3.9435,3.9435,3.9418,3.9365,3.9339,3.9325,3.9342,3.9312,3.9352,3.9445,3.955,3.9694,3.9807,3.9922,3.9999,3.8286,3.8476,3.8583,3.8678,3.8805,3.8805,3.8819,3.8832,3.886,3.8917,3.8901,3.9013,3.905,3.9053,3.9037,3.8955,3.8764,3.8558,3.8462,3.8478,3.8588,3.8658,3.8741,3.889,3.9053,3.9094,3.9272,3.9422,3.955,3.9668,3.9794,3.9935,4.0037,4.0087,4.01,4.0113,4.0113,4.0113,4.0121,4.0188,4.0292,4.0313,4.0399,4.0571,4.0709,4.0769,4.0793,4.0852,4.0894,4.0894,4.0894,4.0449,3.9923,3.9595,3.9412,3.879,3.8916,3.8996,3.9019,3.8765,3.8649,3.846,3.8386,3.8319,3.8345,3.8418,3.8398,3.8274,3.8268,3.8375,3.8774,3.9147,3.9609,3.9833,3.9905,4.0037,4.0255,4.0429,4.0378,4.0468,4.0556,4.075,4.0819,4.09,4.0888,4.0835,4.0745,4.066,4.0607,4.0534,4.0412,4.0288,4.0163,3.9999,3.9862,3.9798,3.9603,3.9498,3.9382,3.9369,3.9329,3.9342,3.9369,3.9342,3.9315,3.9315,3.9329,3.9352,3.9418,3.9528,3.9655,3.9781,3.991,4.0024,4.0075,3.8708,3.8736,3.8764,3.8791,3.8832,3.8928,3.8996,3.8996,3.9161,3.9218,3.9202,3.9245,3.9245,3.9245,3.9245,3.9097,3.8819,3.8641,3.856,3.8588,3.8697,3.8807,3.8917,3.901,3.9175,3.9365,3.9488,3.955,3.9664,3.9781,3.991,4.0049,4.01,4.0113,4.0113,4.0096,4.0096,4.015,4.0184,4.0263,4.0355,4.0461,4.0595,4.0799,4.0941,4.0988,4.1011,4.1035,4.1006,4.0923,4.0894,4.0784,4.0599,4.0541,4.0438,4.0317,4.0202,4.0139,4.0144,4.0182,4.0172,4.0114,3.9832,3.9726,3.9664,3.9656,3.9469,3.9529,3.9463,3.9543,3.9656,3.9813,3.9918,4.0024,4.0087,4.0138,4.0305,4.0416,4.0534,4.0607,4.0764,4.0859,4.0817,4.0781,4.074,4.0692,4.0624,4.0522,4.0473,4.035,4.0188,4.0062,3.9922,3.9742,3.9577,3.9563,3.9471,3.9405,3.9342,3.9342,3.9315,3.9315,3.9315,3.9315,3.9315,3.9315,3.9342,3.9379,3.9498,3.9603,3.9742,3.9897,3.9986,4.0075,4.0087,3.9178,3.9161,3.9225,3.9265,3.9262,3.9319,3.9375,3.9388,3.9468,3.9471,3.9418,3.9392,3.9352,3.9312,3.9315,3.9148,3.8914,3.875,3.8711,3.8738,3.8832,3.8928,3.905,3.9145,3.9309,3.9498,3.9633,3.9733,3.9794,3.9845,3.9973,4.0075,4.0113,4.0113,4.0113,4.0113,4.0133,4.0201,4.0275,4.0392,4.0515,4.068,4.0888,4.0988,4.1058,4.1111,4.1082,4.1023,4.0971,4.0923,4.0894,4.0894,4.0894,4.0894,4.0894,4.0894,4.0894,4.0894,4.0871,4.0764,4.0585,4.0476,4.0375,4.0275,4.0209,4.0145,4.0221,4.0275,4.0275,4.023,4.0196,4.0188,4.0251,4.0258,4.0234,4.0263,4.035,4.0399,4.0473,4.0583,4.068,4.0716,4.0655,4.0619,4.0607,4.0546,4.0461,4.0387,4.0313,4.015,3.9961,3.9845,3.9716,3.9603,3.9458,3.9418,3.9422,3.9355,3.9315,3.9315,3.9315,3.9315,3.9315,3.9315,3.9315,3.9315,3.9339,3.9379,3.9537,3.9694,3.9807,3.9922,4.0037,4.0113,4.0113,3.9616,3.9629,3.9742,3.9781,3.9781,3.9781,3.9755,3.9742,3.9742,3.9668,3.9537,3.9501,3.9435,3.9339,3.9258,3.9148,3.8996,3.8887,3.886,3.8887,3.904,3.9121,3.9202,3.9379,3.9567,3.9642,3.9759,3.9884,3.9901,3.9935,4.0011,4.0075,4.0113,4.0113,4.0113,4.015,4.0213,4.0263,4.0362,4.051,4.0769,4.0976,4.1105,4.1128,4.1117,4.1128,4.1082,4.1006,4.0947,4.0923,4.0894,4.0894,4.0894,4.0894,4.0894,4.0894,4.0894,4.0894,4.0871,4.0811,4.0709,4.0571,4.0448,4.0375,4.0337,4.035,4.0392,4.0485,4.0485,4.0473,4.0436,4.0485,4.0461,4.0412,4.035,4.0313,4.0362,4.0387,4.0362,4.0461,4.0558,4.0571,4.0522,4.0473,4.0448,4.0337,4.0251,4.0125,4.0037,3.9914,3.9746,3.9642,3.9537,3.9445,3.9382,3.9355,3.9355,3.9342,3.9315,3.9315,3.9315,3.9315,3.9315,3.9315,3.9315,3.9315,3.9339,3.9418,3.9573,3.9716,3.9862,3.9961,4.0062,4.0113,4.0113,4.0037,4.0037,4.0062,4.0062,4.0062,4.0045,3.9986,3.9888,3.9901,3.9811,3.9681,3.9567,3.9501,3.9422,3.9175,3.905,3.901,3.8996,3.8996,3.9037,3.9255,3.9392,3.9458,3.9586,3.972,3.9798,3.9875,3.9888,3.9922,4.0024,4.0058,4.0113,4.0113,4.0113,4.0138,4.0218,4.028,4.0325,4.0522,4.0757,4.0988,4.1076,4.1123,4.1146,4.1169,4.1152,4.1093,4.1047,4.0982,4.0894,4.09,4.09,4.0894,4.0894,4.0894,4.0894,4.0894,4.0894,4.0883,4.0876,4.0805,4.0685,4.0636,4.0571,4.051,4.0497,4.0522,4.0497,4.0522,4.0522,4.0534,4.0522,4.0431,4.0387,4.0342,4.0317,4.0342,4.0283,4.0275,4.0255,4.0342,4.0387,4.0399,4.0337,4.0292,4.0167,4.0054,3.991,3.9798,3.9668,3.9577,3.9484,3.9445,3.9382,3.9355,3.9315,3.9315,3.9315,3.9315,3.9315,3.9315,3.9315,3.9315,3.9315,3.9315,3.9315,3.9339,3.9445,3.9612,3.9755,3.9884,3.9986,4.0087,4.0113,4.0113,4.0561,4.0337,4.0308,4.032,4.0337,4.032,4.0251,4.0155,4.013,3.9999,3.9807,3.9664,3.9537,3.9408,3.9202,3.9191,3.9161,3.9161,3.9232,3.9269,3.9432,3.9554,3.9629,3.9746,3.9862,3.9914,3.9973,4.0024,4.0049,4.0045,4.0113,4.0113,4.0113,4.0133,4.0205,4.028,4.0392,4.0522,4.0692,4.0881,4.0988,4.1058,4.1117,4.114,4.114,4.1123,4.1076,4.1023,4.0959,4.0871,4.084,4.0793,4.0769,4.0716,4.0667,4.065,4.0667,4.074,4.0859,4.0883,4.0817,4.0733,4.0685,4.066,4.0636,4.0655,4.0704,4.0728,4.0728,4.068,4.0624,4.0624,4.0522,4.0436,4.0325,4.0292,4.0267,4.0188,4.0163,4.0113,4.0092,4.0113,4.015,4.01,4.0028,3.9939,3.9833,3.9742,3.9629,3.9498,3.9418,3.9369,3.9342,3.9329,3.9329,3.9315,3.9315,3.9315,3.9315,3.9315,3.9315,3.9315,3.9315,3.9315,3.9315,3.9329,3.9325,3.9484,3.9664,3.9807,3.9905,4.0007,4.0113,4.0113,4.0113,4.0989,4.0686,4.0674,4.0662,4.066,4.0619,4.0522,4.0404,4.0317,4.0175,4.0003,3.982,3.9629,3.9445,3.9402,3.9418,3.9405,3.9405,3.9458,3.9524,3.959,3.9668,3.9785,3.9888,3.9965,3.9952,4.0037,4.0087,4.01,4.0113,4.0113,4.0113,4.0113,4.0159,4.0263,4.035,4.0461,4.0733,4.0829,4.0912,4.0971,4.1041,4.1082,4.1122,4.1111,4.107,4.1035,4.0912,4.0852,4.0817,4.0704,4.0643,4.0631,4.0583,4.0546,4.0529,4.0546,4.0607,4.0716,4.0752,4.0745,4.0685,4.0648,4.0607,4.0631,4.074,4.0805,4.0728,4.074,4.0692,4.0655,4.0619,4.0534,4.0424,4.0337,4.0275,4.0188,4.01,3.9999,3.9935,3.9858,3.9798,3.9807,3.9811,3.9759,3.9681,3.9629,3.959,3.9484,3.9365,3.9339,3.9315,3.9315,3.9315,3.9315,3.9315,3.9315,3.9315,3.9315,3.9315,3.9315,3.9315,3.9315,3.9315,3.9315,3.9339,3.9379,3.9563,3.9703,3.9794,3.9897,4.0037,4.0113,4.0113,4.0113,4.1186,4.1163,4.1152,4.11,4.1023,4.0923,4.0793,4.0636,4.0416,4.0305,4.0192,4.0003,3.9781,3.9677,3.9625,3.9638,3.9651,3.9677,3.9664,3.9703,3.9794,3.9849,3.9926,3.9999,4.0087,4.0075,4.01,4.01,4.0113,4.0113,4.0113,4.0113,4.0138,4.0201,4.0325,4.0473,4.0619,4.0829,4.09,4.0947,4.1023,4.107,4.1082,4.1082,4.1082,4.1047,4.0941,4.0781,4.0709,4.0709,4.0571,4.051,4.048,4.0473,4.0436,4.0436,4.0419,4.0468,4.0505,4.0554,4.0546,4.0534,4.0534,4.0546,4.0558,4.0534,4.0546,4.0571,4.0607,4.0554,4.0517,4.0493,4.0448,4.03,4.0205,4.0113,4.0041,3.9977,3.9858,3.9755,3.9677,3.9625,3.9577,3.9577,3.959,3.9524,3.9511,3.9471,3.9418,3.9325,3.9329,3.9315,3.9315,3.9315,3.9315,3.9315,3.9315,3.9315,3.9315,3.9315,3.9315,3.9315,3.9315,3.9315,3.9315,3.9379,3.9458,3.9603,3.9703,3.9755,3.9871,4.0037,4.0113,4.0113,4.0113,4.1442,4.1436,4.1442,4.134,4.1175,4.1064,4.0947,4.0787,4.0624,4.0375,4.0175,3.9973,3.9836,3.9742,3.9703,3.9703,3.9703,3.9703,3.9755,3.9824,3.9888,3.9935,4.0011,4.0062,4.0113,4.0113,4.0113,4.0113,4.0113,4.0125,4.0175,4.0201,4.0243,4.0313,4.0448,4.0619,4.0787,4.0847,4.0894,4.0935,4.0947,4.0988,4.0982,4.0971,4.0881,4.0829,4.0757,4.066,4.0612,4.0546,4.0448,4.0399,4.0362,4.0325,4.0288,4.0288,4.0271,4.0271,4.0308,4.0382,4.0497,4.051,4.051,4.0497,4.0456,4.048,4.048,4.051,4.0468,4.0444,4.0375,4.0362,4.03,4.0142,4.0028,3.9965,3.9888,3.9811,3.972,3.9599,3.9547,3.9511,3.9445,3.9395,3.9395,3.9395,3.9365,3.9365,3.9325,3.9315,3.9315,3.9315,3.9315,3.9315,3.9315,3.9315,3.9315,3.9315,3.9315,3.9315,3.9315,3.9315,3.9315,3.9315,3.9312,3.9379,3.9471,3.9616,3.9733,3.9811,3.9922,4.0075,4.0113,4.0113,4.0113,4.1604,4.1604,4.1604,4.1482,4.1255,4.1215,4.1117,4.0947,4.0817,4.0558,4.0226,4.0113,4.0041,3.9961,3.9944,3.9922,3.9935,3.9922,3.9939,3.9948,3.9973,4.0011,4.0075,4.0113,4.0113,4.0113,4.0113,4.0113,4.0113,4.0138,4.0218,4.0292,4.0409,4.0473,4.0583,4.0781,4.0894,4.0894,4.0894,4.0894,4.0894,4.0912,4.0876,4.0852,4.0757,4.068,4.0619,4.0522,4.0448,4.0416,4.0342,4.0251,4.0213,4.0175,4.0125,4.0113,4.0113,4.0113,4.0146,4.0234,4.0387,4.0345,4.0345,4.0358,4.037,4.037,4.035,4.0345,4.0345,4.032,4.0218,4.015,4.0075,3.9926,3.9888,3.9824,3.9733,3.9642,3.955,3.9471,3.9432,3.9405,3.9379,3.9342,3.9342,3.9342,3.9342,3.9325,3.9312,3.9315,3.9315,3.9315,3.9315,3.9315,3.9315,3.9315,3.9315,3.9315,3.9315,3.9315,3.9315,3.9315,3.9315,3.9315,3.9325,3.9379,3.9494,3.9651,3.9755,3.9875,3.9986,4.0113,4.0113,4.0113,4.0113,4.1615,4.1604,4.1604,4.1526,4.1414,4.1403,4.1284,4.1105,4.0918,4.0728,4.0497,4.0461,4.0436,4.0412,4.0345,4.0283,4.0226,4.0226,4.0213,4.0138,4.01,4.0113,4.0113,4.0125,4.0113,4.0113,4.0096,4.0096,4.0125,4.0213,4.028,4.0404,4.0563,4.0673,4.0726,4.084,4.0894,4.0894,4.0894,4.0894,4.0883,4.0871,4.0817,4.0757,4.066,4.0571,4.0497,4.0375,4.0313,4.0288,4.0213,4.0133,4.0138,4.0125,4.0113,4.0113,4.0113,4.0113,4.0113,4.0125,4.015,4.0171,4.0196,4.0171,4.0133,4.0138,4.015,4.0146,4.0138,4.0049,3.9961,3.9897,3.9849,3.9772,3.9733,3.9681,3.9577,3.9511,3.9418,3.9379,3.9339,3.9315,3.9329,3.9315,3.9315,3.9315,3.9315,3.9315,3.9315,3.9315,3.9315,3.9315,3.9315,3.9315,3.9315,3.9315,3.9315,3.9315,3.9315,3.9315,3.9315,3.9315,3.9315,3.9315,3.9325,3.9379,3.9534,3.97,3.9833,3.9961,4.0024,4.0113,4.0113,4.0113,4.0113,4.1869,4.1841,4.1776,4.1703,4.1637,4.1482,4.1346,4.1255,4.1024,4.0864,4.074,4.0578,4.051,4.051,4.0522,4.0493,4.0448,4.0436,4.0387,4.0362,4.0275,4.0238,4.0213,4.0175,4.0125,4.0113,4.0096,4.0171,4.0238,4.0317,4.0441,4.0576,4.0721,4.0817,4.084,4.09,4.0894,4.0894,4.0894,4.0883,4.0888,4.0817,4.0745,4.0667,4.0539,4.0441,4.0362,4.0238,4.0188,4.0188,4.0108,4.0096,4.0113,4.0113,4.0113,4.0113,4.0113,4.0113,4.0113,4.0113,4.0113,4.01,4.0083,4.0083,4.0113,4.0011,3.9986,3.9948,3.991,3.9845,3.9781,3.9768,3.972,3.9603,3.955,3.9498,3.9418,3.9379,3.9325,3.9325,3.9315,3.9315,3.9315,3.9315,3.9315,3.9315,3.9315,3.9315,3.9315,3.9315,3.9315,3.9315,3.9315,3.9315,3.9315,3.9315,3.9315,3.9315,3.9315,3.9315,3.9315,3.9315,3.9315,3.9315,3.9339,3.9392,3.9586,3.9764,3.9931,4.0045,4.007,4.0113,4.0113,4.0113,4.0113,4.2005,4.1994,4.1912,4.188,4.183,4.1582,4.1448,4.1358,4.1111,4.0995,4.096,4.0801,4.0741,4.0758,4.0746,4.068,4.0638,4.0643,4.0534,4.0522,4.0424,4.0375,4.0337,4.0288,4.0288,4.0238,4.0251,4.0317,4.0375,4.0429,4.0563,4.0745,4.0864,4.0888,4.09,4.0883,4.0894,4.09,4.0876,4.0799,4.0781,4.0721,4.0612,4.0527,4.0416,4.0292,4.0226,4.0163,4.0113,4.0113,4.0113,4.0113,4.0113,4.0113,4.0113,4.0113,4.0113,4.0113,4.0113,4.0113,4.0087,4.0024,4.002,3.9995,3.9973,3.9888,3.9845,3.9794,3.9729,3.9677,3.9638,3.9638,3.959,3.9458,3.9418,3.9382,3.9352,3.9312,3.9299,3.9315,3.9315,3.9315,3.9315,3.9315,3.9315,3.9315,3.9315,3.9315,3.9315,3.9315,3.9315,3.9315,3.9315,3.9315,3.9315,3.9315,3.9315,3.9315,3.9315,3.9315,3.9315,3.9315,3.9315,3.9315,3.9325,3.9432,3.9664,3.9841,3.9995,4.007,4.01,4.0113,4.0113,4.0113,4.0113,4.2016,4.2005,4.2005,4.1987,4.1945,4.1732,4.1566,4.1426,4.1283,4.1203,4.122,4.1186,4.1117,4.1163,4.1157,4.1047,4.0906,4.0912,4.0781,4.0624,4.0546,4.0539,4.0497,4.0485,4.0436,4.0461,4.0473,4.0436,4.051,4.0624,4.0769,4.0847,4.09,4.0894,4.0894,4.0859,4.0859,4.084,4.0793,4.0716,4.0667,4.0576,4.0461,4.0362,4.0275,4.0213,4.0163,4.0113,4.0113,4.0113,4.0113,4.0113,4.0113,4.0113,4.0113,4.0113,4.0113,4.0113,4.0113,4.0113,4.0011,3.9939,3.9884,3.982,3.9755,3.9746,3.9707,3.9677,3.9625,3.956,3.9524,3.9484,3.9445,3.9379,3.9342,3.9329,3.9329,3.9315,3.9315,3.9315,3.9315,3.9315,3.9315,3.9315,3.9315,3.9315,3.9315,3.9315,3.9315,3.9315,3.9315,3.9315,3.9315,3.9315,3.9315,3.9315,3.9315,3.9315,3.9315,3.9315,3.9315,3.9315,3.9315,3.9315,3.9325,3.9471,3.9716,3.9922,4.0045,4.0113,4.0113,4.0113,4.0113,4.0113,4.0113,4.2212,4.2212,4.21,4.2051,4.2048,4.1927,4.1841,4.1804,4.1593,4.1475,4.1493,4.1277,4.1255,4.1209,4.1209,4.1175,4.1123,4.1076,4.1023,4.0888,4.074,4.0685,4.0636,4.0595,4.0534,4.0522,4.0546,4.0583,4.0643,4.0781,4.0852,4.0883,4.0894,4.0894,4.0859,4.0805,4.0781,4.0733,4.0685,4.0636,4.0534,4.0441,4.0337,4.0275,4.0201,4.015,4.0125,4.0113,4.0113,4.0113,4.0113,4.0113,4.0113,4.0113,4.0113,4.0113,4.0113,4.0113,4.0113,4.0113,4.0024,3.9849,3.9798,3.9755,3.969,3.9612,3.9563,3.9537,3.9494,3.9432,3.9405,3.9379,3.9365,3.9339,3.9315,3.9315,3.9315,3.9315,3.9315,3.9315,3.9315,3.9315,3.9315,3.9315,3.9315,3.9315,3.9315,3.9315,3.9315,3.9315,3.9315,3.9315,3.9315,3.9315,3.9315,3.9315,3.9315,3.9315,3.9315,3.9315,3.9315,3.9315,3.9315,3.9352,3.9445,3.9603,3.9794,3.9961,4.01,4.0113,4.0113,4.0113,4.0113,4.0113,4.0113,4.2297,4.2287,4.2225,4.2166,4.2184,4.2128,4.2107,4.2083,4.1862,4.1754,4.1743,4.1604,4.1509,4.152,4.1487,4.1413,4.1346,4.1267,4.1181,4.107,4.0965,4.0936,4.0853,4.0806,4.0811,4.0752,4.0745,4.0776,4.0805,4.084,4.0894,4.0894,4.0894,4.0894,4.0876,4.0781,4.0667,4.0624,4.0563,4.0502,4.0416,4.03,4.0238,4.0213,4.0125,4.0125,4.0096,4.0096,4.0096,4.0113,4.0113,4.0113,4.0113,4.0113,4.0113,4.0113,4.0113,4.0113,4.0113,4.0113,3.9973,3.9845,3.9785,3.972,3.9599,3.9498,3.9461,3.9422,3.9369,3.9315,3.9315,3.9315,3.9315,3.9315,3.9315,3.9315,3.9315,3.9315,3.9315,3.9315,3.9315,3.9315,3.9315,3.9315,3.9315,3.9315,3.9315,3.9315,3.9315,3.9315,3.9315,3.9315,3.9315,3.9315,3.9315,3.9315,3.9315,3.9315,3.9315,3.9315,3.9315,3.9329,3.9325,3.9458,3.9616,3.9759,3.9901,3.9999,4.0113,4.0113,4.0113,4.0113,4.0113,4.0113,4.0113,4.2297,4.2297,4.2297,4.2287,4.2297,4.2287,4.2287,4.2277,4.2094,4.2009,4.1987,4.1984,4.1934,4.1869,4.1797,4.1681,4.1582,4.1448,4.1335,4.1232,4.1152,4.1117,4.1128,4.1186,4.1053,4.1076,4.107,4.0965,4.0923,4.0912,4.0894,4.0894,4.0894,4.0894,4.0871,4.0769,4.0673,4.06,4.049,4.0392,4.0288,4.0188,4.0113,4.0113,4.0125,4.0121,4.0121,4.0121,4.0133,4.0133,4.0125,4.0138,4.0096,4.0113,4.0113,4.0113,4.0113,4.0113,4.0113,4.0113,4.0024,3.9922,3.9871,3.9759,3.9629,3.9471,3.9435,3.9369,3.9315,3.9315,3.9315,3.9315,3.9315,3.9315,3.9315,3.9315,3.9315,3.9315,3.9315,3.9315,3.9315,3.9315,3.9315,3.9315,3.9315,3.9315,3.9315,3.9315,3.9315,3.9315,3.9315,3.9315,3.9315,3.9315,3.9315,3.9315,3.9315,3.9315,3.9315,3.9315,3.9315,3.9325,3.9365,3.9524,3.9707,3.9836,3.9965,4.0049,4.0113,4.0113,4.0113,4.0113,4.0113,4.0113,4.0113,4.2297,4.2297,4.2297,4.2297,4.2297,4.2297,4.2297,4.2297,4.2264,4.2163,4.2069,4.203,4.2016,4.2016,4.1994,4.1873,4.1747,4.1637,4.1475,4.1386,4.1318,4.1312,4.1243,4.13,4.122,4.1175,4.1157,4.1117,4.1029,4.0959,4.0894,4.0894,4.0894,4.0894,4.09,4.0769,4.0673,4.0624,4.0497,4.035,4.0226,4.0163,4.0113,4.015,4.0175,4.0251,4.0275,4.035,4.0387,4.0395,4.03,4.0196,4.0108,4.0096,4.0113,4.0113,4.0113,4.0113,4.0113,4.0083,4.0037,3.9965,3.9888,3.9781,3.9664,3.9537,3.9435,3.9369,3.9315,3.9329,3.9315,3.9315,3.9315,3.9315,3.9315,3.9315,3.9315,3.9315,3.9315,3.9315,3.9315,3.9315,3.9315,3.9315,3.9315,3.9315,3.9315,3.9315,3.9315,3.9315,3.9315,3.9315,3.9315,3.9315,3.9315,3.9315,3.9315,3.9315,3.9315,3.9315,3.9315,3.9418,3.9537,3.9642,3.9785,3.9897,3.9999,4.0062,4.0113,4.0113,4.0113,4.0113,4.0113,4.0113,4.0113,4.2297,4.2297,4.2297,4.2297,4.2308,4.2356,4.2387,4.2387,4.2409,4.2399,4.23,4.2202,4.2118,4.2115,4.2083,4.2012,4.1909,4.183,4.1765,4.1666,4.1571,4.1593,4.1542,4.1526,4.1482,4.1419,4.1243,4.1157,4.1117,4.1047,4.0971,4.0923,4.0894,4.0883,4.0888,4.0781,4.0726,4.0714,4.0588,4.0448,4.0288,4.0288,4.0271,4.0296,4.0337,4.0387,4.0399,4.0461,4.0485,4.048,4.0407,4.0313,4.0221,4.0184,4.0163,4.0125,4.0113,4.0113,4.0096,4.007,4.0045,3.9999,3.9973,3.9922,3.9836,3.9694,3.9577,3.9498,3.9435,3.9422,3.9342,3.9315,3.9315,3.9315,3.9315,3.9315,3.9315,3.9315,3.9315,3.9315,3.9315,3.9315,3.9315,3.9315,3.9315,3.9315,3.9315,3.9315,3.9315,3.9315,3.9315,3.9315,3.9315,3.9315,3.9315,3.9315,3.9315,3.9315,3.9315,3.9352,3.9405,3.9577,3.9703,3.9768,3.9858,3.9986,4.0075,4.01,4.0113,4.0113,4.0113,4.0113,4.0113,4.0113,4.0113,4.2348,4.232,4.2338,4.2348,4.2348,4.2465,4.2514,4.2516,4.2578,4.2599,4.256,4.2399,4.2348,4.2277,4.2176,4.2153,4.2079,4.1991,4.197,4.1973,4.1934,4.1852,4.188,4.1923,4.1776,4.1593,4.1408,4.1278,4.1186,4.1105,4.1023,4.0947,4.0923,4.0894,4.0847,4.0805,4.0733,4.0733,4.0655,4.0595,4.0546,4.0522,4.0468,4.0468,4.0522,4.0522,4.0534,4.0558,4.0558,4.0546,4.0529,4.0448,4.0375,4.0313,4.0238,4.0201,4.0163,4.0133,4.0096,4.0113,4.0083,4.01,4.0113,4.0049,3.9952,3.9862,3.9746,3.9642,3.958,3.9475,3.9395,3.9329,3.9329,3.9315,3.9315,3.9315,3.9315,3.9315,3.9315,3.9315,3.9315,3.9315,3.9315,3.9315,3.9315,3.9315,3.9315,3.9315,3.9315,3.9315,3.9315,3.9315,3.9315,3.9315,3.9315,3.9312,3.9312,3.9325,3.9339,3.9405,3.9511,3.9664,3.9794,3.9858,3.9961,4.0062,4.0087,4.01,4.0113,4.0113,4.0113,4.0113,4.0113,4.0113,4.0113,4.255,4.255,4.2532,4.254,4.255,4.2588,4.257,4.257,4.2599,4.2609,4.2609,4.258,4.2518,4.2455,4.2308,4.2246,4.2176,4.2132,4.2062,4.2016,4.2072,4.203,4.2009,4.203,4.1912,4.1754,4.1604,4.1471,4.1318,4.1198,4.1111,4.1058,4.0935,4.0912,4.0883,4.0835,4.0823,4.0829,4.0829,4.0776,4.0728,4.0667,4.0522,4.0534,4.0595,4.0636,4.0685,4.0781,4.0799,4.0787,4.0704,4.0595,4.051,4.0448,4.0375,4.03,4.0263,4.0213,4.0188,4.0133,4.0121,4.0113,4.0113,4.01,4.0037,4.0037,3.9922,3.9824,3.9707,3.9567,3.9475,3.9379,3.9352,3.9312,3.9312,3.9299,3.9315,3.9315,3.9315,3.9315,3.9315,3.9315,3.9315,3.9315,3.9315,3.9315,3.9315,3.9315,3.9315,3.9315,3.9315,3.9329,3.9329,3.9315,3.9315,3.9325,3.9339,3.9339,3.9405,3.9537,3.9668,3.9785,3.9871,3.9948,4.0011,4.0087,4.0113,4.0113,4.0113,4.0113,4.0113,4.0113,4.0113,4.0113,4.0113]}]]